[[{"header":{"parameterUnit":"m.s-1","parameterCategory":1,"la1":31.0,"la2":29.5877,"lo1":-88.7671,"lo2":-86.6584,"dy":0.0162,"dx":0.0185,"nx":115,"ny":88,"refTime":"2023-09-06T06:00:00:Z","depth":0,"parameterNumber":2,"parameterNumberName":"U-component_of_WINDS"},"data":[0.0,0.0,0.0,0.0,0.0,0.0,0.0,0.0,0.0,0.0,0.0,0.0,0.0,0.0,0.0,0.0,0.0,0.0,0.0,0.0,0.0,0.0,0.0,0.0,0.0,0.0,0.0,0.0,0.0,0.0,0.0,0.0,0.0,0.0,0.0,0.0,0.0,0.0,0.0,0.0,0.0,0.0,0.0,0.0,0.0,0.0,0.0,0.0,0.0,0.0,0.0,0.0,0.0,0.0,0.0,0.0,0.0,0.0,0.0,0.0,0.0,0.0,0.0,0.0,0.0,0.0,0.0,0.0,0.0,0.0,0.0,0.0,0.0,0.0,0.0,0.0,0.0,0.0,0.0,0.0,0.0,0.0,0.0,0.0,0.0,0.0,0.0,0.0,0.0,0.0,0.0,0.0,0.0,0.0,0.0,0.0,0.0,0.0,0.0,0.0,0.0,0.0,0.0,0.0,0.0,0.0,0.0,0.0,0.0,0.0,0.0,0.0,0.0,0.0,0.0,0.0,0.0,0.0,0.0,0.0,0.0,0.0,0.0,0.0,0.0,0.0,0.0,0.0,0.0,0.0,0.0,0.0,0.0,0.0,0.0,0.0,0.0,0.0,0.0,0.0,0.0,0.0,0.0,0.0,0.0,0.0,0.0,0.0,0.0,0.0,0.0,0.0,0.0,0.0,0.0,0.0,0.0,0.0,0.0,0.0,0.0,0.0,0.0,0.0,0.0,0.0,0.0,0.0,0.0,0.0,0.0,0.0,0.0,0.0,0.0,0.0,0.0,0.0,0.0,0.0,0.0,0.0,0.0,0.0,0.0,0.0,0.0,0.0,0.0,0.0,0.0,0.0,0.0,0.0,0.0,0.0,0.0,0.0,0.0,0.0,0.0,0.0,0.0,0.0,0.0,0.0,0.0,0.0,0.0,0.0,0.0,0.0,0.0,0.0,0.0,0.0,0.0,0.0,0.0,0.0,0.0,0.0,0.0,0.0,0.0,0.0,0.0,0.0,0.0,0.0,0.0,0.0,0.0,0.0,0.0,0.0,0.0,0.0,0.0,0.0,0.0,0.0,0.0,0.0,0.0,0.0,0.0,0.0,0.0,0.0,0.0,0.0,0.0,0.0,0.0,0.0,0.0,0.0,0.0,0.0,0.0,0.0,0.0,0.0,0.0,0.0,0.0,0.0,0.0,0.0,0.0,0.0,0.0,0.0,0.0,0.0,0.0,0.0,0.0,0.0,0.0,0.0,0.0,0.0,0.0,0.0,0.0,0.0,0.0,0.0,0.0,0.0,0.0,0.0,0.0,0.0,0.0,0.0,0.0,0.0,0.0,0.0,0.0,0.0,0.0,0.0,0.0,0.0,0.0,0.0,0.0,0.0,0.0,0.0,0.0,0.0,0.0,0.0,0.0,0.0,0.0,0.0,0.0,0.0,0.0,0.0,0.0,0.0,0.0,0.0,0.0,0.0,0.0,0.0,0.0,0.0,0.0,0.0,0.0,0.0,0.0,0.0,0.0,0.0,0.0,0.0,0.0,0.0,0.0,0.0,0.0,0.0,0.0,0.0,0.0,0.0,0.0,0.0,0.0,0.0,0.0,0.0,0.0,0.0,0.0,0.0,0.0,0.0,0.0,0.0,0.0,0.0,0.0,0.0,0.0,0.0,0.0,0.0,0.0,0.0,0.0,0.0,0.0,0.0,0.0,0.0,0.0,0.0,0.0,0.0,0.0,0.0,0.0,0.0,0.0,0.0,0.0,0.0,0.0,0.0,0.0,0.0,0.0,0.0,0.0,0.0,0.0,0.0,0.0,0.0,0.0,0.0,0.0,0.0,0.0,0.0,0.0,0.0,0.0,0.0,0.0,0.0,0.0,0.0,0.0,0.0,0.0,0.0,0.0,0.0,0.0,0.0,0.0,0.0,0.0,0.0,0.0,0.0,0.0,0.0,0.0,0.0,0.0,0.0,0.0,0.0,0.0,0.0,0.0,0.0,0.0,0.0,0.0,0.0,0.0,0.0,0.0,0.0,0.0,0.0,0.0,0.0,0.0,0.0,0.0,0.0,0.0,0.0,0.0,0.0,0.0,0.0,0.0,0.0,0.0,0.0,0.0,0.0,0.0,0.0,0.0,0.0,0.0,0.0,0.0,0.0,0.0,0.0,0.0,0.0,0.0,0.0,0.0,0.0,0.0,0.0,0.0,0.0,0.0,0.0,0.0,0.0,0.0,0.0,0.0,0.0,0.0,0.0,0.0,0.0,0.0,0.0,0.0,0.0,0.0,0.0,0.0,0.0,0.0,0.0,0.0,0.0,0.0,0.0,0.0,0.0,0.0,0.0,0.0,0.0,0.0,0.0,0.0,0.0,0.0,0.0,0.0,0.0,0.0,0.0,0.0,0.0,0.0,0.0,0.0,0.0,0.0,0.0,0.0,0.0,0.0,0.0,0.0,0.0,0.0,0.0,0.0,0.0,0.0,0.0,0.0,0.0,0.0,0.0,0.0,0.0,0.0,0.0,0.0,0.0,0.0,0.0,0.0,0.0,0.0,0.0,0.0,0.0,0.0,0.0,0.0,0.0,0.0,0.0,0.0,0.0,0.0,0.0,0.0,0.0,0.0,0.0,0.0,0.0,0.0,0.0,0.0,0.0,0.0,0.0,0.0,0.0,0.0,0.0,0.0,0.0,0.0,0.0,0.0,0.0,0.0,0.0,0.0,0.0,0.0,0.0,0.0,0.0,0.0,0.0,0.0,0.0,0.0,0.0,0.0,0.0,0.0,0.0,0.0,0.0,0.0,0.0,0.0,0.0,0.0,0.0,0.0,0.0,0.0,0.0,0.0,0.0,0.0,0.0,0.0,0.0,0.0,0.0,0.0,0.0,0.0,0.0,0.0,0.0,0.0,0.0,0.0,0.0,0.0,0.0,0.0,0.0,0.0,0.0,0.0,0.0,0.0,0.0,0.0,0.0,0.0,0.0,0.0,0.0,0.0,0.0,0.0,0.0,0.0,0.0,0.0,0.0,0.0,0.0,0.0,0.0,0.0,0.0,0.0,0.0,0.0,0.0,0.0,0.0,0.0,0.0,0.0,0.0,0.0,0.0,0.0,0.0,0.0,0.0,0.0,0.0,0.0,0.0,0.0,0.0,0.0,0.0,0.0,0.0,0.0,0.0,0.0,0.0,0.0,0.0,0.0,0.0,0.0,0.0,0.0,0.0,0.0,0.0,0.0,0.0,0.0,0.0,0.0,0.0,0.0,0.0,0.0,0.0,0.0,0.0,0.0,0.0,0.0,0.0,0.0,0.0,0.0,0.0,0.0,0.0,0.0,0.0,0.0,0.0,0.0,0.0,0.0,0.0,0.0,0.0,0.0,0.0,0.0,0.0,0.0,0.0,0.0,0.0,0.0,0.0,0.0,0.0,0.0,0.0,0.0,0.0,0.0,0.0,0.0,0.0,0.0,0.0,0.0,0.0,0.0,0.0,0.0,0.0,0.0,0.0,0.0,0.0,0.0,0.0,0.0,0.0,0.0,0.0,0.0,0.0,0.0,0.0,0.0,0.0,0.0,0.0,0.0,0.0,0.0,0.0,0.0,0.0,0.0,0.0,0.0,0.0,0.0,0.0,0.0,0.0,0.0,0.0,0.0,0.0,0.0,0.0,0.0,0.0,0.0,0.0,0.0,0.0,0.0,0.0,0.0,0.0,0.0,0.0,0.0,0.0,0.0,0.0,0.0,0.0,0.0,0.0,0.0,0.0,0.0,0.0,0.0,0.0,0.0,0.0,0.0,0.0,0.0,0.0,0.0,0.0,0.0,0.0,0.0,0.0,0.0,0.0,0.0,0.0,0.0,0.0,0.0,0.0,0.0,0.0,0.0,0.0,0.0,0.0,0.0,0.0,0.0,0.0,0.0,0.0,0.0,0.0,0.0,0.0,0.0,0.0,0.0,0.0,0.0,0.0,0.0,0.0,0.0,0.0,0.0,0.0,0.0,0.0,0.0,0.0,0.0,0.0,0.0,0.0,0.0,0.0,0.0,0.0,0.0,0.0,0.0,0.0,0.0,0.0,0.0,0.0,0.0,0.0,0.0,0.0,0.0,0.0,0.0,0.0,0.0,0.0,0.0,0.0,0.0,0.0,0.0,0.0,0.0,0.0,0.0,0.0,0.0,0.0,0.0,0.0,0.0,0.0,0.0,0.0,0.0,0.0,0.0,0.0,0.0,0.0,0.0,0.0,0.0,0.0,0.0,0.0,0.0,0.0,0.0,0.0,0.0,0.0,1.9819,0.0,0.0,0.0,0.0,0.0,0.0,0.0,0.0,0.0,0.0,0.0,0.0,0.0,0.0,0.0,0.0,0.0,0.0,0.0,0.0,0.0,0.0,0.0,0.0,0.0,0.0,0.0,0.0,0.0,0.0,0.0,0.0,0.0,0.0,0.0,0.0,0.0,0.0,0.0,0.0,0.0,0.0,0.0,0.0,0.0,0.0,0.0,0.0,0.0,0.0,0.0,0.0,0.0,0.0,0.0,0.0,0.0,0.0,0.0,0.0,0.0,0.0,0.0,0.0,0.0,0.0,0.0,0.0,0.0,0.0,0.0,0.0,0.0,0.0,0.0,0.0,0.0,0.0,0.0,0.0,0.0,0.0,0.0,0.0,0.0,0.0,0.0,0.0,0.0,0.0,0.0,0.0,0.0,0.0,0.0,0.0,0.0,0.0,0.0,0.0,0.0,0.0,0.0,0.0,0.0,0.0,0.0,0.0,0.0,0.0,1.9992,2.0087,2.0144,2.0107,1.9993,0.0,0.0,0.0,0.0,0.0,0.0,0.0,0.0,0.0,0.0,0.0,0.0,0.0,0.0,0.0,0.0,0.0,0.0,0.0,0.0,0.0,0.0,0.0,0.0,0.0,0.0,0.0,0.0,0.0,0.0,0.0,0.0,0.0,0.0,0.0,0.0,0.0,0.0,0.0,0.0,0.0,0.0,0.0,0.0,0.0,0.0,0.0,0.0,0.0,0.0,0.0,0.0,0.0,0.0,0.0,0.0,0.0,0.0,0.0,0.0,0.0,0.0,0.0,0.0,0.0,0.0,0.0,0.0,0.0,0.0,0.0,0.0,0.0,0.0,0.0,0.0,0.0,0.0,0.0,0.0,0.0,0.0,0.0,0.0,0.0,0.0,0.0,0.0,0.0,0.0,0.0,0.0,0.0,0.0,0.0,0.0,0.0,0.0,0.0,0.0,0.0,0.0,0.0,0.0,0.0,0.0,0.0,0.0,0.0,0.0,0.0,0.0,2.0174,2.004,1.9791,0.0,0.0,0.0,0.0,0.0,0.0,0.0,0.0,0.0,0.0,0.0,0.0,0.0,0.0,0.0,0.0,0.0,0.0,0.0,0.0,0.0,0.0,0.0,0.0,0.0,0.0,0.0,0.0,0.0,0.0,0.0,0.0,0.0,0.0,0.0,0.0,0.0,0.0,0.0,0.0,0.0,0.0,0.0,0.0,0.0,0.0,0.0,0.0,0.0,0.0,0.0,0.0,0.0,0.0,0.0,0.0,0.0,0.0,0.0,0.0,0.0,0.0,0.0,0.0,0.0,0.0,0.0,0.0,0.0,0.0,0.0,0.0,0.0,0.0,0.0,0.0,0.0,0.0,0.0,0.0,0.0,0.0,0.0,0.0,0.0,0.0,0.0,0.0,0.0,0.0,0.0,0.0,0.0,0.0,0.0,0.0,0.0,0.0,0.0,0.0,0.0,0.0,0.0,0.0,0.0,0.0,0.0,0.0,0.0,0.0,1.9889,2.027,2.0184,0.0,1.8638,0.0,0.0,0.0,0.0,0.0,0.0,0.0,0.0,0.0,0.0,0.0,0.0,0.0,0.0,0.0,0.0,0.0,0.0,0.0,0.0,0.0,0.0,0.0,0.0,0.0,0.0,0.0,0.0,0.0,0.0,0.0,0.0,0.0,0.0,0.0,0.0,0.0,0.0,0.0,0.0,0.0,0.0,0.0,0.0,0.0,0.0,0.0,0.0,0.0,0.0,0.0,0.0,0.0,0.0,0.0,0.0,0.0,0.0,0.0,0.0,0.0,0.0,0.0,0.0,0.0,0.0,0.0,0.0,0.0,0.0,0.0,0.0,0.0,0.0,0.0,0.0,0.0,0.0,0.0,0.0,0.0,0.0,0.0,0.0,0.0,0.0,0.0,0.0,0.0,0.0,0.0,0.0,0.0,0.0,0.0,0.0,0.0,0.0,0.0,0.0,0.0,0.0,0.0,0.0,0.0,0.0,0.0,0.0,0.0,0.0,1.9947,2.0174,2.1128,2.0671,0.0,0.0,0.0,0.0,0.0,0.0,0.0,0.0,0.0,0.0,0.0,0.0,0.0,0.0,0.0,0.0,0.0,0.0,0.0,0.0,0.0,0.0,0.0,0.0,0.0,0.0,0.0,0.0,0.0,0.0,0.0,0.0,0.0,0.0,0.0,0.0,0.0,0.0,0.0,0.0,0.0,0.0,0.0,0.0,0.0,0.0,0.0,0.0,0.0,0.0,0.0,0.0,0.0,0.0,0.0,0.0,0.0,0.0,0.0,0.0,0.0,0.0,0.0,0.0,0.0,0.0,0.0,0.0,0.0,0.0,0.0,0.0,0.0,0.0,0.0,0.0,0.0,0.0,0.0,0.0,0.0,0.0,0.0,0.0,0.0,0.0,0.0,0.0,0.0,0.0,0.0,0.0,0.0,0.0,0.0,0.0,0.0,0.0,0.0,0.0,0.0,0.0,0.0,0.0,0.0,0.0,0.0,0.0,0.0,0.0,2.066,2.0418,2.0822,2.1603,2.1118,1.9229,0.0,0.0,0.0,0.0,0.0,0.0,0.0,0.0,0.0,0.0,0.0,0.0,0.0,0.0,0.0,0.0,0.0,0.0,0.0,0.0,0.0,0.0,0.0,0.0,0.0,0.0,0.0,0.0,0.0,0.0,0.0,0.0,0.0,0.0,0.0,0.0,0.0,0.0,0.0,0.0,0.0,0.0,0.0,0.0,0.0,0.0,0.0,0.0,0.0,0.0,0.0,0.0,0.0,0.0,0.0,0.0,0.0,0.0,0.0,0.0,0.0,0.0,0.0,0.0,0.0,0.0,0.0,0.0,0.0,0.0,0.0,0.0,0.0,0.0,0.0,0.0,0.0,0.0,0.0,0.0,0.0,0.0,0.0,0.0,0.0,0.0,0.0,0.0,0.0,0.0,0.0,0.0,0.0,0.0,0.0,0.0,0.0,0.0,0.0,0.0,0.0,0.0,0.0,0.0,0.0,0.0,0.0,0.0,2.2255,2.1474,2.1529,2.2432,2.1175,2.0344,0.0,0.0,0.0,0.0,0.0,0.0,0.0,0.0,0.0,0.0,0.0,0.0,0.0,0.0,0.0,0.0,0.0,0.0,0.0,0.0,0.0,0.0,0.0,0.0,0.0,0.0,0.0,0.0,0.0,0.0,0.0,0.0,0.0,0.0,0.0,0.0,0.0,0.0,0.0,0.0,0.0,0.0,0.0,0.0,0.0,0.0,0.0,0.0,0.0,0.0,0.0,0.0,0.0,0.0,0.0,0.0,0.0,0.0,0.0,0.0,0.0,0.0,0.0,0.0,0.0,0.0,0.0,0.0,0.0,0.0,0.0,0.0,0.0,0.0,0.0,0.0,0.0,0.0,0.0,0.0,0.0,0.0,0.0,0.0,0.0,0.0,0.0,0.0,0.0,0.0,0.0,0.0,0.0,0.0,0.0,0.0,0.0,0.0,0.0,0.0,0.0,0.0,0.0,0.0,0.0,0.0,0.0,0.0,0.0,2.1599,2.1969,2.1845,2.1178,2.0611,2.0263,0.0,0.0,0.0,0.0,0.0,0.0,0.0,0.0,0.0,0.0,0.0,0.0,0.0,0.0,0.0,0.0,0.0,0.0,0.0,0.0,0.0,0.0,0.0,0.0,0.0,0.0,0.0,0.0,0.0,0.0,0.0,0.0,0.0,0.0,0.0,0.0,0.0,0.0,0.0,0.0,0.0,0.0,0.0,0.0,0.0,0.0,0.0,0.0,0.0,0.0,0.0,0.0,0.0,0.0,0.0,0.0,0.0,0.0,0.0,0.0,0.0,0.0,0.0,0.0,0.0,0.0,0.0,0.0,0.0,0.0,0.0,0.0,0.0,0.0,0.0,0.0,0.0,0.0,0.0,0.0,0.0,0.0,0.0,0.0,0.0,0.0,0.0,0.0,0.0,0.0,0.0,0.0,0.0,0.0,0.0,0.0,0.0,0.0,0.0,0.0,0.0,0.0,0.0,0.0,0.0,0.0,0.0,0.0,0.0,2.1221,0.0,2.2267,2.1153,2.0595,2.03,0.0,0.0,0.0,0.0,0.0,0.0,0.0,0.0,0.0,0.0,0.0,0.0,0.0,0.0,0.0,0.0,0.0,0.0,0.0,0.0,0.0,0.0,0.0,0.0,0.0,0.0,0.0,0.0,0.0,0.0,0.0,0.0,0.0,0.0,0.0,0.0,0.0,0.0,0.0,0.0,0.0,0.0,0.0,0.0,0.0,0.0,0.0,0.0,0.0,0.0,0.0,0.0,0.0,0.0,0.0,0.0,0.0,0.0,0.0,0.0,0.0,0.0,0.0,0.0,0.0,0.0,0.0,0.0,0.0,0.0,0.0,0.0,0.0,0.0,0.0,0.0,0.0,0.0,0.0,0.0,0.0,0.0,0.0,0.0,0.0,0.0,0.0,0.0,0.0,0.0,0.0,0.0,0.0,0.0,0.0,0.0,0.0,0.0,0.0,0.0,0.0,0.0,0.0,0.0,0.0,0.0,0.0,0.0,2.0934,2.1301,2.2242,2.2641,2.2727,2.1179,2.0346,0.0,0.0,0.0,0.0,0.0,0.0,0.0,0.0,0.0,0.0,0.0,0.0,0.0,0.0,0.0,0.0,0.0,0.0,0.0,0.0,0.0,0.0,0.0,0.0,0.0,0.0,0.0,0.0,0.0,0.0,0.0,0.0,0.0,0.0,0.0,0.0,0.0,0.0,0.0,0.0,0.0,0.0,0.0,0.0,0.0,0.0,0.0,0.0,0.0,0.0,0.0,0.0,0.0,0.0,0.0,0.0,0.0,0.0,0.0,0.0,0.0,0.0,0.0,0.0,0.0,0.0,0.0,0.0,0.0,0.0,0.0,0.0,0.0,0.0,0.0,0.0,0.0,0.0,0.0,0.0,0.0,0.0,0.0,0.0,0.0,0.0,0.0,0.0,0.0,0.0,0.0,0.0,0.0,0.0,0.0,0.0,0.0,0.0,0.0,0.0,0.0,0.0,0.0,0.0,0.0,0.0,0.0,0.0,0.0,2.047,2.0906,2.1137,2.1127,2.0617,2.0353,0.0,0.0,0.0,0.0,0.0,0.0,0.0,0.0,0.0,0.0,0.0,0.0,0.0,0.0,0.0,0.0,0.0,0.0,0.0,0.0,0.0,0.0,0.0,0.0,0.0,0.0,0.0,0.0,0.0,0.0,0.0,0.0,0.0,0.0,0.0,0.0,0.0,0.0,0.0,0.0,0.0,0.0,0.0,0.0,0.0,0.0,0.0,0.0,0.0,0.0,0.0,0.0,0.0,0.0,0.0,0.0,0.0,0.0,0.0,0.0,0.0,0.0,0.0,0.0,0.0,0.0,0.0,0.0,0.0,0.0,0.0,0.0,0.0,0.0,0.0,0.0,0.0,0.0,0.0,0.0,0.0,0.0,0.0,0.0,0.0,0.0,0.0,0.0,0.0,0.0,0.0,0.0,0.0,0.0,0.0,0.0,0.0,0.0,0.0,0.0,0.0,0.0,0.0,0.0,0.0,0.0,0.0,0.0,0.0,2.0688,2.0497,2.043,2.0474,2.1012,2.1021,2.0439,0.0,0.0,0.0,0.0,0.0,0.0,0.0,0.0,0.0,0.0,0.0,0.0,0.0,0.0,0.0,0.0,0.0,0.0,0.0,0.0,0.0,0.0,0.0,0.0,0.0,0.0,0.0,0.0,0.0,0.0,0.0,0.0,0.0,0.0,0.0,0.0,0.0,0.0,0.0,0.0,0.0,0.0,0.0,0.0,0.0,0.0,0.0,0.0,0.0,0.0,0.0,0.0,0.0,0.0,0.0,0.0,0.0,0.0,0.0,0.0,0.0,0.0,0.0,0.0,0.0,0.0,0.0,0.0,0.0,0.0,0.0,0.0,0.0,0.0,0.0,0.0,0.0,0.0,0.0,0.0,0.0,0.0,0.0,0.0,0.0,0.0,0.0,0.0,0.0,0.0,0.0,0.0,0.0,0.0,0.0,0.0,0.0,0.0,0.0,0.0,0.0,0.0,0.0,0.0,0.0,0.0,0.0,0.0,2.1692,2.0933,2.0599,2.072,2.2081,2.208,0.0,0.0,0.0,0.0,0.0,0.0,0.0,0.0,0.0,0.0,0.0,0.0,0.0,0.0,0.0,0.0,0.0,0.0,0.0,0.0,0.0,0.0,0.0,0.0,0.0,0.0,0.0,0.0,0.0,0.0,0.0,0.0,0.0,0.0,0.0,0.0,0.0,0.0,0.0,0.0,0.0,0.0,0.0,0.0,0.0,0.0,0.0,0.0,0.0,0.0,0.0,0.0,0.0,0.0,0.0,0.0,0.0,0.0,0.0,0.0,0.0,0.0,0.0,0.0,0.0,0.0,0.0,0.0,0.0,0.0,0.0,0.0,0.0,0.0,0.0,0.0,0.0,0.0,0.0,0.0,0.0,0.0,0.0,0.0,0.0,0.0,0.0,0.0,0.0,0.0,0.0,0.0,0.0,0.0,0.0,0.0,0.0,0.0,0.0,0.0,0.0,0.0,0.0,0.0,0.0,0.0,0.0,0.0,0.0,2.2614,2.2432,2.2149,2.1776,2.1321,2.0857,0.0,0.0,0.0,0.0,0.0,0.0,0.0,0.0,0.0,0.0,0.0,0.0,0.0,0.0,0.0,0.0,0.0,0.0,0.0,0.0,0.0,0.0,0.0,0.0,0.0,0.0,0.0,0.0,0.0,0.0,0.0,0.0,0.0,0.0,0.0,0.0,0.0,0.0,0.0,0.0,0.0,0.0,0.0,0.0,0.0,0.0,0.0,0.0,0.0,0.0,0.0,0.0,0.0,0.0,0.0,0.0,0.0,0.0,0.0,0.0,0.0,0.0,0.0,0.0,0.0,0.0,0.0,0.0,0.0,0.0,0.0,0.0,0.0,0.0,0.0,0.0,0.0,0.0,0.0,0.0,0.0,0.0,0.0,0.0,0.0,0.0,0.0,0.0,0.0,0.0,0.0,0.0,0.0,0.0,0.0,0.0,0.0,0.0,0.0,0.0,0.0,0.0,0.0,0.0,0.0,0.0,0.0,0.0,2.271,2.2877,2.3689,2.3578,2.2497,2.1795,2.1105,0.0,0.0,0.0,0.0,0.0,0.0,0.0,0.0,0.0,0.0,0.0,0.0,0.0,0.0,0.0,0.0,0.0,0.0,0.0,0.0,0.0,0.0,0.0,0.0,0.0,0.0,0.0,0.0,0.0,0.0,0.0,0.0,0.0,0.0,0.0,0.0,0.0,0.0,0.0,0.0,0.0,0.0,0.0,0.0,0.0,0.0,0.0,0.0,0.0,0.0,0.0,0.0,0.0,0.0,0.0,0.0,0.0,0.0,0.0,0.0,0.0,0.0,0.0,0.0,0.0,0.0,0.0,0.0,0.0,0.0,0.0,0.0,0.0,0.0,0.0,0.0,0.0,0.0,0.0,0.0,0.0,0.0,0.0,0.0,0.0,0.0,0.0,0.0,0.0,0.0,0.0,0.0,0.0,0.0,0.0,0.0,0.0,0.0,0.0,0.0,0.0,0.0,0.0,0.0,0.0,0.0,0.0,0.0,2.3498,2.2707,2.4534,2.4659,2.2929,2.2649,2.1895,0.0,0.0,0.0,0.0,0.0,0.0,0.0,0.0,0.0,0.0,0.0,0.0,0.0,0.0,0.0,0.0,0.0,0.0,0.0,0.0,0.0,0.0,0.0,0.0,0.0,0.0,0.0,0.0,0.0,0.0,0.0,0.0,0.0,0.0,0.0,0.0,0.0,0.0,0.0,0.0,0.0,0.0,0.0,0.0,0.0,0.0,0.0,0.0,0.0,0.0,0.0,0.0,0.0,0.0,0.0,0.0,0.0,0.0,0.0,0.0,0.0,0.0,0.0,0.0,0.0,0.0,0.0,0.0,0.0,0.0,0.0,0.0,0.0,0.0,0.0,0.0,0.0,0.0,0.0,0.0,0.0,0.0,0.0,0.0,0.0,0.0,0.0,0.0,0.0,0.0,0.0,0.0,0.0,0.0,0.0,0.0,0.0,0.0,0.0,0.0,0.0,0.0,0.0,0.0,0.0,0.0,0.0,0.0,2.2516,2.2498,2.411,2.4373,2.3159,2.1572,2.0632,0.0,0.0,0.0,0.0,0.0,0.0,0.0,0.0,0.0,0.0,0.0,0.0,0.0,0.0,0.0,0.0,0.0,0.0,0.0,0.0,0.0,0.0,0.0,0.0,0.0,0.0,0.0,0.0,0.0,0.0,0.0,0.0,0.0,0.0,0.0,0.0,0.0,0.0,0.0,0.0,0.0,0.0,0.0,0.0,0.0,0.0,0.0,0.0,1.2463,0.0,0.0,0.0,0.0,0.0,0.0,0.0,0.0,0.0,0.0,0.0,0.0,0.0,0.0,0.0,0.0,0.0,0.0,0.0,0.0,0.0,0.0,0.0,0.0,0.0,0.0,0.0,0.0,0.0,0.0,0.0,0.0,0.0,0.0,0.0,0.0,0.0,0.0,0.0,0.0,0.0,0.0,0.0,0.0,0.0,0.0,0.0,0.0,0.0,0.0,0.0,0.0,0.0,0.0,0.0,0.0,0.0,0.0,0.0,2.2009,2.1981,2.3131,2.3281,2.2196,2.0382,1.9619,0.0,0.0,0.0,0.0,0.0,0.0,0.0,0.0,0.0,0.0,0.0,0.0,0.0,0.0,0.0,0.0,0.0,0.0,0.0,0.0,0.0,0.0,0.0,0.0,0.0,0.0,0.0,0.0,0.0,0.0,0.0,0.0,0.0,0.0,0.0,0.0,0.0,0.0,0.0,0.0,0.0,0.0,0.0,0.0,0.0,0.0,0.0,0.0,0.0,0.0,0.0,0.0,0.0,0.0,0.0,0.0,0.0,0.0,0.0,0.0,0.0,0.0,0.0,0.0,0.0,0.0,0.0,0.0,0.0,0.0,0.0,0.0,0.0,0.0,0.0,0.0,0.0,0.0,0.0,0.0,0.0,0.0,0.0,0.0,0.0,0.0,0.0,0.0,0.0,0.0,0.0,0.0,0.0,0.0,0.0,0.0,0.0,0.0,0.0,0.0,0.0,0.0,0.0,0.0,0.0,0.0,0.0,2.1123,2.1679,2.1352,2.2062,2.2023,2.1053,1.9433,1.8929,1.9688,0.0,0.0,0.0,0.0,0.0,0.0,0.0,0.0,0.0,0.0,0.0,0.0,0.0,0.0,0.0,0.0,0.0,0.0,0.0,0.0,0.0,0.0,0.0,0.0,0.0,0.0,0.0,0.0,0.0,0.0,0.0,0.0,0.0,0.0,0.0,0.0,0.0,0.0,1.4382,1.382,0.0,0.0,0.0,0.0,0.0,0.0,0.0,0.0,1.1108,0.0,0.0,0.0,0.0,0.0,0.0,0.0,0.0,0.0,0.0,0.0,0.0,0.0,0.0,0.0,0.0,0.0,0.0,0.0,0.0,0.0,0.0,0.0,0.0,0.0,0.0,0.0,0.0,0.0,0.0,0.0,0.0,0.0,0.0,0.0,0.0,0.0,0.0,0.0,0.0,0.0,0.0,0.0,0.0,0.0,0.0,0.0,0.0,0.0,0.0,0.0,0.0,0.0,0.0,0.0,0.0,1.8913,2.046,2.1133,2.0915,2.1529,2.1529,2.0847,1.959,1.8886,1.8854,0.0,0.0,0.0,0.0,0.0,0.0,0.0,0.0,0.0,0.0,0.0,0.0,0.0,0.0,0.0,0.0,0.0,0.0,0.0,0.0,0.0,0.0,0.0,0.0,0.0,0.0,0.0,0.0,0.0,0.0,0.0,0.0,0.0,0.0,0.0,0.0,0.0,0.0,0.0,1.2886,1.2686,0.0,0.0,0.0,0.0,0.0,0.0,0.0,0.0,1.0423,0.0,0.0,0.0,0.0,0.0,0.0,0.0,0.0,0.0,0.0,0.0,0.0,0.0,0.0,0.0,0.0,0.0,0.0,0.0,0.0,0.0,0.0,0.0,0.0,0.0,0.0,0.0,0.0,0.0,0.0,0.0,0.0,0.0,0.0,0.0,0.0,0.0,0.0,0.0,0.0,0.0,0.0,0.0,0.0,0.0,0.0,0.0,0.0,0.0,0.0,0.0,0.0,0.0,0.0,0.0,1.9087,1.9782,2.025,2.0373,2.039,2.0204,1.9748,1.8352,1.7662,0.0,0.0,0.0,0.0,0.0,0.0,0.0,0.0,0.0,0.0,0.0,0.0,0.0,0.0,0.0,0.0,0.0,0.0,0.0,0.0,0.0,0.0,0.0,0.0,0.0,0.0,0.0,0.0,0.0,0.0,0.0,0.0,0.0,0.0,0.0,0.0,0.0,0.0,0.0,0.0,1.2127,1.1756,1.0838,0.0,0.0,0.0,0.0,0.0,0.0,0.9806,0.9917,0.0,0.0,0.0,0.0,0.0,0.0,0.0,0.0,0.0,0.0,0.0,0.0,0.0,0.0,0.0,0.0,0.0,0.0,0.0,0.0,0.0,0.0,0.0,0.0,0.0,0.0,0.0,0.0,0.0,0.0,0.0,0.0,0.0,0.0,0.0,0.0,0.0,0.0,0.0,0.0,0.0,0.0,0.0,0.0,0.0,0.0,0.0,0.0,0.0,0.0,0.0,0.0,0.0,0.0,0.0,1.9059,1.9018,1.9228,1.9577,1.9092,1.8683,1.8358,1.6789,1.6184,0.0,0.0,0.0,0.0,0.0,0.0,0.0,0.0,0.0,0.0,0.0,0.0,0.0,0.0,0.0,0.0,0.0,0.0,0.0,0.0,0.0,0.0,0.0,0.0,0.0,0.0,0.0,0.0,0.0,0.0,0.0,0.0,0.0,0.0,0.0,0.0,0.0,0.0,0.0,0.0,0.0,1.0813,1.0312,0.988,0.0,0.0,0.0,0.0,0.9451,0.9354,0.0,0.0,0.0,0.0,0.0,0.0,0.0,0.0,0.0,0.0,0.0,0.0,0.0,0.0,0.0,0.0,0.0,0.0,0.0,0.0,0.0,0.0,0.0,0.0,0.0,0.0,0.0,0.0,0.0,0.0,0.0,0.0,0.0,0.0,0.0,0.0,0.0,0.0,0.0,0.0,0.0,0.0,0.0,0.0,0.0,0.0,0.0,0.0,0.0,0.0,0.0,0.0,0.0,0.0,0.0,0.0,1.7978,1.8028,1.813,1.8297,1.7832,1.7409,1.6947,1.5501,1.4873,0.0,0.0,0.0,0.0,0.0,0.0,0.0,0.0,0.0,0.0,0.0,0.0,0.0,0.0,0.0,0.0,0.0,0.0,0.0,0.0,0.0,0.0,0.0,0.0,0.0,0.0,0.0,0.0,0.0,0.0,0.0,0.0,0.0,0.0,0.0,0.0,0.0,0.0,0.0,0.0,0.0,1.0312,1.0364,0.9384,0.8883,0.0,0.0,0.8903,0.891,0.8468,0.0,0.0,0.0,0.0,0.0,0.0,0.0,0.0,0.0,0.0,0.0,0.0,0.0,0.0,0.0,0.0,0.0,0.0,0.0,0.0,0.0,0.0,0.0,0.0,0.0,0.0,0.0,0.0,0.0,0.0,0.0,0.0,0.0,0.0,0.0,0.0,0.0,0.0,0.0,0.0,0.0,0.0,0.0,0.0,0.0,0.0,0.0,0.0,0.0,0.0,0.0,0.0,0.0,0.0,0.0,1.6791,1.7258,1.6848,1.6821,1.7268,1.6496,1.5918,1.5762,1.4303,1.3697,0.0,0.0,0.0,0.0,0.0,0.0,0.0,0.0,0.0,0.0,0.0,0.0,0.0,0.0,0.0,0.0,0.0,0.0,0.0,0.0,0.0,0.0,0.0,0.0,0.0,0.0,0.0,0.0,0.0,0.0,0.0,0.0,0.0,0.0,0.0,0.0,0.0,0.0,0.0,0.0,0.0,0.0,0.9245,0.891,0.0,0.0,0.0,0.8593,0.7949,0.0,0.0,0.0,0.0,0.0,0.0,0.0,0.0,0.0,0.0,0.0,0.0,0.0,0.0,0.0,0.0,0.0,0.0,0.0,0.0,0.0,0.0,0.0,0.0,0.0,0.0,0.0,0.0,0.0,0.0,0.0,0.0,0.0,0.0,0.0,0.0,0.0,0.0,0.0,0.0,0.0,0.0,0.0,0.0,0.0,0.0,0.0,0.0,0.0,0.0,0.0,0.0,0.0,0.0,0.0,0.0,0.0,1.6414,1.5582,1.5499,1.6138,1.5039,1.4342,1.4213,1.292,0.0,0.0,0.0,0.0,0.0,0.0,0.0,0.0,0.0,0.0,0.0,0.0,0.0,0.0,0.0,0.0,0.0,0.0,0.0,0.0,0.0,0.0,0.0,0.0,0.0,0.0,0.0,1.2099,0.0,0.0,0.0,0.0,0.0,0.0,0.0,0.0,0.0,0.0,0.0,0.0,0.0,0.0,0.8541,0.8134,0.8115,0.7764,0.0,0.0,0.7646,0.7079,0.7133,0.7128,0.0,0.0,0.0,0.0,0.0,0.0,0.0,0.0,0.0,0.0,0.0,0.0,0.0,0.0,0.0,0.0,0.0,0.0,0.0,0.0,0.0,0.0,0.0,0.0,0.0,0.0,0.0,0.0,0.0,0.0,0.0,0.0,0.0,0.0,0.0,0.0,0.0,0.0,0.0,0.0,0.0,0.0,0.0,0.0,0.0,0.0,0.0,0.0,0.0,0.0,0.0,0.0,0.0,0.0,0.0,1.5129,1.4399,1.4293,1.4767,1.3507,1.2656,1.2193,1.1182,1.0924,0.0,0.0,0.0,0.0,0.0,0.0,0.0,0.0,0.0,0.0,0.0,0.0,0.0,0.0,0.0,0.0,0.0,0.0,0.0,0.0,0.0,0.0,0.0,0.0,0.0,0.0,0.0,0.0,0.0,0.0,0.0,0.0,0.0,0.0,0.0,0.0,0.0,0.0,0.0,0.0,0.0,0.814,0.7623,0.6886,0.6411,0.0,0.0,0.5491,0.647,0.6263,0.61,0.6534,0.0,0.0,0.0,0.0,0.0,0.0,0.0,0.0,0.0,0.0,0.0,0.0,0.0,0.0,0.0,0.0,0.0,0.0,0.0,0.0,0.0,0.0,0.0,0.0,0.0,0.0,0.0,0.0,0.0,0.0,0.0,0.0,0.0,0.0,0.0,0.0,0.0,0.0,0.0,0.0,0.0,0.0,0.0,0.0,0.0,0.0,0.0,0.0,0.0,0.0,0.0,0.0,0.0,1.4286,1.4105,1.3035,1.256,1.2744,1.2049,1.1569,1.1397,1.0445,1.0066,0.0,0.0,0.0,0.0,0.0,0.0,0.0,0.0,0.0,0.0,0.0,0.0,0.0,0.0,0.0,0.0,0.0,0.0,0.0,0.0,0.0,0.0,0.0,0.0,0.0,0.0,0.0,0.0,1.1558,1.1268,1.1266,0.0,0.0,0.0,0.0,0.0,0.0,0.0,0.0,0.0,0.0,0.6707,0.663,0.5779,0.0,0.0,0.503,0.4871,0.559,0.5724,0.5724,0.5563,0.537,0.0,0.0,0.0,0.0,0.0,0.0,0.0,0.0,0.0,0.0,0.0,0.0,0.0,0.0,0.0,0.0,0.0,0.0,0.0,0.0,0.0,0.0,0.0,0.0,0.0,0.0,0.0,0.0,0.0,0.0,0.0,0.0,0.0,0.0,0.0,0.0,0.0,0.0,0.0,0.0,0.0,0.0,0.0,0.0,0.0,0.0,0.0,0.0,0.0,0.0,0.0,0.0,1.3398,1.3093,1.1957,1.1358,1.1358,1.0799,1.0581,1.0607,0.9779,0.915,0.0,0.0,0.0,0.0,0.0,0.0,0.0,0.0,0.0,0.0,0.0,0.0,0.0,0.0,0.0,0.0,0.0,0.0,0.0,0.0,0.0,0.0,0.0,0.0,0.0,0.0,0.0,0.0,1.1015,1.0568,1.0312,0.0,0.0,0.0,0.0,0.0,0.0,0.0,0.0,0.0,0.0,0.5611,0.5631,0.4982,0.4661,0.514,0.4973,0.4918,0.5312,0.5448,0.5338,0.4876,0.0,0.0,0.0,0.0,0.0,0.0,0.0,0.0,0.0,0.0,0.0,0.0,0.0,0.0,0.0,0.0,0.0,0.0,0.0,0.0,0.0,0.0,0.0,0.0,0.0,0.0,0.0,0.0,0.0,0.0,1.1065,0.0,0.0,0.0,0.0,0.0,0.0,0.0,0.0,0.0,0.0,0.0,0.0,0.0,0.0,0.0,0.0,0.0,0.0,0.0,0.0,0.0,0.0,1.2892,1.1945,1.1207,1.0813,1.0754,0.9974,0.9611,0.9761,0.9091,0.8093,0.6829,0.0,0.0,0.0,0.0,0.0,0.0,0.0,0.0,0.0,0.0,0.0,0.0,0.0,0.0,0.0,0.0,0.0,0.0,0.0,0.0,0.0,0.0,0.0,0.0,0.0,0.0,1.0864,1.0568,1.0269,0.0,0.0,0.0,0.0,0.0,0.0,0.0,0.0,0.0,0.0,0.5467,0.4945,0.4596,0.449,0.4824,0.5779,0.5603,0.5479,0.5864,0.5207,0.4601,0.0,0.0,0.0,0.0,0.0,0.0,0.0,0.0,0.0,0.0,0.0,0.0,0.0,0.0,0.0,0.0,0.0,0.0,0.0,0.0,0.0,0.0,0.0,0.0,0.0,0.0,0.0,0.9059,0.9038,0.0,0.0,0.0,0.0,0.0,0.0,0.0,0.0,0.0,0.0,0.0,1.0722,1.0814,0.0,0.0,0.0,0.0,0.0,0.0,0.0,0.0,0.0,0.0,0.0,0.0,1.1893,1.1296,1.0242,0.9555,0.9183,0.8937,0.8637,0.828,0.7763,0.7114,0.6279,0.0,0.0,0.0,0.0,0.0,0.0,0.0,0.0,0.0,0.0,0.0,0.0,0.0,0.0,0.0,0.0,0.0,0.0,0.0,0.0,0.0,0.0,0.0,0.0,0.0,1.0159,0.0,0.0,0.0,0.0,0.0,0.0,0.0,0.0,0.0,0.0,0.0,0.5936,0.5474,0.489,0.4432,0.4282,0.4471,0.476,0.0,0.0,0.0,0.0,0.0,0.0,0.0,0.0,0.0,0.0,0.0,0.0,0.0,0.0,0.0538,0.1542,0.1676,0.1609,0.1609,0.0,0.0,0.0,0.0,0.0,0.0,0.0,0.0,0.0,0.0,0.0,0.0,0.0,0.0,0.7661,0.0,0.7687,0.0,0.0,0.0,0.0,0.0,0.0,0.0,0.0,0.787,0.8088,0.8822,0.8867,0.9379,0.0,1.0359,1.0889,0.0,0.0,0.0,0.0,0.0,0.0,0.0,0.0,1.0578,1.0265,0.9072,0.8309,0.7943,0.7883,0.761,0.7074,0.6475,0.576,0.4878,0.505,0.5222,0.0,0.0,0.0,0.0,0.0,0.0,0.0,0.0,0.0,0.0,0.0,0.0,0.0,0.0,0.0,0.0,0.0,0.0,0.0,0.0,0.0,0.0,0.0,0.8841,0.0,0.0,0.0,0.0,0.0,0.0,0.0,0.0,0.0,0.7307,0.6026,0.4974,0.4766,0.4345,0.4105,0.4235,0.0,0.0,0.0,0.0,0.0,0.0,0.0,0.4513,0.4496,0.4438,0.4228,0.3828,0.2818,0.1878,0.1073,0.0,0.0,0.0469,0.0671,0.0604,0.0604,0.0265,-0.0,0.0067,-0.0331,-0.0718,0.0,0.0,0.0,0.0,0.0,0.0,0.0,0.0,0.5449,0.5691,0.0,0.5996,0.0,0.0,0.0,0.0,0.0,0.6707,0.0,0.0,0.6287,0.6173,0.6287,0.6836,0.716,0.7311,0.7895,0.8203,0.8389,0.9946,0.0,0.0,0.0,0.0,0.0,0.0,0.894,0.8888,0.7759,0.7085,0.7031,0.6912,0.6642,0.6173,0.5285,0.4165,0.2938,0.3613,0.4009,0.395,0.4553,0.0,0.0,0.0,0.0,0.0,0.0,0.0,0.0,0.0,0.0,0.0,0.0,0.0,0.0,0.0,0.0,0.0,0.0,0.0,0.0,0.81,0.0,0.0,0.0,0.0,0.0,0.0,0.0,0.0,0.0,0.0,0.6021,0.5396,0.4668,0.4003,0.0,0.0,0.0,0.0,0.4513,0.5647,0.5003,0.4699,0.5639,0.4977,0.4361,0.4278,0.0,0.0,0.2753,0.1878,0.1006,0.0403,-0.0067,-0.047,-0.1008,-0.0672,-0.0336,-0.0336,-0.0671,-0.0873,-0.0941,-0.1743,-0.2613,0.4786,0.0,0.0,0.0,0.0,0.5603,0.5342,0.5019,0.5019,0.4702,0.4242,0.4242,0.0,0.0,0.0,0.0,0.0,0.0,0.5987,0.5478,0.5607,0.5839,0.6177,0.6352,0.6702,0.717,0.7391,0.7501,0.749,0.7941,0.8831,1.0049,0.0,0.0,0.0,0.0,0.8053,0.7635,0.7171,0.6696,0.6159,0.6154,0.5882,0.5458,0.4457,0.4018,0.4245,0.3799,0.335,0.3067,0.391,0.0,0.0,0.0,0.0,0.0,0.0,0.0,0.0,0.0,0.0,0.0,0.0,0.0,0.0,0.0,0.0,0.0,0.0,0.0,0.8768,0.7472,0.6878,0.0,0.0,0.0,0.0,0.0,0.0,0.0,0.0,0.0,0.5152,0.4553,0.4124,0.0,0.0,0.3761,0.3918,0.3921,0.4045,0.435,0.4119,0.0,0.4348,0.413,0.399,0.3954,0.3355,0.2551,0.1478,0.0671,0.0067,-0.0202,-0.0806,-0.1277,-0.1412,-0.1479,-0.1412,-0.1479,-0.1813,-0.2149,-0.2216,-0.2686,-0.3092,0.437,0.4567,0.4469,0.4634,0.5043,0.4837,0.4423,0.401,0.3832,0.3576,0.3319,0.3281,0.3279,0.3308,0.3208,0.0,0.0,0.0,0.521,0.4775,0.5235,0.5578,0.5872,0.5872,0.6053,0.6413,0.6699,0.6703,0.6413,0.6641,0.7302,0.8349,0.0,0.0,0.8165,0.752,0.702,0.6712,0.6365,0.5999,0.5557,0.544,0.5242,0.4864,0.4304,0.3747,0.3297,0.3019,0.2531,0.182,0.2679,0.3558,0.0,0.0,0.0,0.0,0.0,0.0,0.0,0.0,0.0,0.0,0.0,0.76,0.0,0.0,0.0,0.0,0.7537,0.7244,0.7249,0.632,0.0,0.0,0.0,0.0,0.0,0.0,0.0,0.5399,0.4766,0.442,0.4417,0.3964,0.3731,0.3991,0.3798,0.3733,0.3793,0.0,0.3825,0.3825,0.3725,0.3711,0.3751,0.3522,0.3179,0.2811,0.1877,0.1074,0.0403,-0.0336,-0.0806,-0.0941,-0.1344,-0.1748,-0.1882,-0.2084,-0.2218,-0.2151,-0.2418,-0.2753,-0.2889,-0.3157,-0.3424,0.3955,0.37,0.3751,0.3741,0.3659,0.307,0.2848,0.2771,0.2342,0.238,0.2856,0.2781,0.2975,0.3294,0.3141,0.0,0.304,0.3845,0.4218,0.4265,0.4945,0.5254,0.5258,0.5322,0.5319,0.5384,0.5912,0.5912,0.5441,0.5896,0.6125,0.6113,0.6337,0.6572,0.681,0.6257,0.5998,0.61,0.5412,0.4995,0.4933,0.4869,0.4689,0.4514,0.4284,0.3093,0.101,0.1685,0.1655,0.0764,0.1235,0.2264,0.3867,0.0,0.0,0.0,0.0,0.0,0.0,0.0,0.0,0.0,0.0,0.0,0.0,0.0,0.0,0.0,0.5383,0.0,0.515,0.4951,0.0,0.0,0.0,0.587,0.5928,0.5216,0.4764,0.4697,0.0,0.0,0.3703,0.3567,0.3496,0.3625,0.3758,0.3756,0.3747,0.3751,0.3758,0.3758,0.3551,0.3461,0.3473,0.283,0.2025,0.1202,0.0134,-0.0403,-0.0605,-0.1143,-0.1547,-0.1681,-0.1816,-0.2084,-0.2417,-0.2619,-0.2686,-0.2551,-0.2684,-0.2889,-0.3226,-0.356,-0.3825,0.2986,0.296,0.291,0.2981,0.3158,0.2645,0.225,0.1943,0.1859,0.1751,0.1537,0.1498,0.156,0.1647,0.1633,0.1628,0.1631,0.2916,0.3553,0.3813,0.4077,0.4273,0.4273,0.4466,0.486,0.5394,0.5639,0.5636,0.5445,0.5519,0.552,0.5377,0.5132,0.5525,0.6329,0.5811,0.5475,0.5328,0.4686,0.4128,0.3772,0.43,0.4545,0.4493,0.2264,0.0812,0.0232,0.0814,0.1891,0.3234,0.1462,0.1098,0.2647,0.3435,0.0,0.0,0.0,0.0,0.0,0.0,0.0,0.0,0.0,0.5744,0.6865,0.0,0.5247,0.0,0.4466,0.455,0.5609,0.5143,0.0,0.0,0.5474,0.5411,0.4292,0.4501,0.4488,0.3809,0.3606,0.3399,0.3049,0.2925,0.2824,0.2622,0.3025,0.3334,0.3398,0.3383,0.336,0.3288,0.2736,0.233,0.2275,0.16,0.0731,-0.0,-0.0336,-0.0739,-0.1479,-0.1681,-0.1951,-0.2351,-0.2485,-0.2621,-0.2956,-0.3025,-0.3159,-0.3422,-0.3489,-0.3558,-0.3625,-0.3961,-0.4167,0.282,0.2727,0.2491,0.2519,0.2541,0.2273,0.2064,0.1889,0.1598,0.1346,0.112,0.0887,0.0821,0.0841,0.084,0.0845,0.0927,0.1635,0.2114,0.2294,0.3197,0.3548,0.3617,0.3613,0.4245,0.5375,0.5503,0.547,0.5406,0.5393,0.5318,0.525,0.5041,0.5185,0.5546,0.5234,0.5143,0.5345,0.4379,0.3673,0.3267,0.339,0.3301,0.2885,0.102,-0.018,-0.048,0.012,0.1404,0.3145,0.239,0.202,0.237,0.3336,0.3398,0.0,0.0,0.0,0.0,0.0,0.0,0.0,0.0,0.0,0.0,0.0,0.4809,0.5209,0.422,0.4023,0.514,0.4602,0.4165,0.4165,0.4414,0.4237,0.3346,0.3453,0.3411,0.2921,0.285,0.2767,0.2525,0.2489,0.2317,0.1887,0.2105,0.2438,0.2713,0.2531,0.2353,0.2353,0.1744,0.114,0.0872,0.0335,-0.0335,-0.0941,-0.121,-0.1479,-0.215,-0.2218,-0.2418,-0.2822,-0.2956,-0.3023,-0.3424,-0.3493,-0.356,-0.3894,-0.4092,-0.4092,-0.4028,-0.4231,-0.4431,0.2706,0.2699,0.2244,0.204,0.1991,0.1864,0.1871,0.1985,0.1335,0.1155,0.1125,0.0757,0.0553,0.0424,0.0425,0.043,0.0439,0.0437,0.0436,0.0509,0.2099,0.2823,0.2907,0.254,0.3197,0.4667,0.4963,0.5048,0.5081,0.5078,0.508,0.5084,0.5081,0.494,0.459,0.4593,0.4841,0.5431,0.4328,0.3597,0.3199,0.2377,0.1561,0.081,0.0187,-0.0434,-0.1053,-0.0496,0.0503,0.1876,0.3243,0.3409,0.228,0.3025,0.3161,0.0,0.3036,0.0,0.0,0.0,0.0,0.0,0.0,0.0,0.0,0.4278,0.4544,0.5404,0.4033,0.337,0.4148,0.3655,0.3235,0.3229,0.3013,0.284,0.2767,0.2481,0.2195,0.212,0.212,0.2102,0.1921,0.1908,0.1674,0.1097,0.104,0.1185,0.1641,0.1425,0.1217,0.1212,0.0738,0.0134,-0.0537,-0.0873,-0.1276,-0.1883,-0.2153,-0.2421,-0.2686,-0.2753,-0.2889,-0.3159,-0.3293,-0.3424,-0.3825,-0.3828,-0.3961,-0.4231,-0.4428,-0.4492,-0.4364,-0.4495,-0.4625,0.1774,0.1745,0.1626,0.1508,0.156,0.1404,0.1452,0.1442,0.092,0.0889,0.1086,0.1008,0.0656,0.0149,0.0075,0.0075,0.0075,0.0074,0.0073,0.0073,0.0427,0.0928,0.1456,0.109,0.0944,0.109,0.2543,0.319,0.3245,0.3245,0.3201,0.3188,0.3466,0.3533,0.3522,0.0,0.0,0.0,0.4461,0.4132,0.302,0.13,0.0338,0.0132,-0.0518,0.0,-0.1088,-0.096,-0.0324,0.0865,0.1671,0.0,0.0,0.0,0.0,0.0,0.0,0.0,0.0,0.0,0.0,0.0,0.1997,0.2667,0.3966,0.322,0.282,0.322,0.2742,0.2414,0.2629,0.2528,0.2437,0.2393,0.2367,0.2328,0.2331,0.2298,0.2177,0.1575,0.1574,0.1272,0.0594,0.0366,0.0144,-0.0215,-0.036,-0.0289,-0.0143,0.0211,0.055,0.0539,-0.0067,-0.0873,-0.1748,-0.2084,-0.2283,-0.2552,-0.2822,-0.3025,-0.3092,-0.3092,-0.3224,-0.3625,-0.3692,-0.3828,-0.4097,-0.4233,-0.4298,-0.4492,-0.4561,-0.4625,-0.4561,-0.4628,-0.4761,0.13,0.0,0.1081,0.1064,0.0,0.1275,0.133,0.1298,0.1083,0.0821,0.0583,0.0583,0.037,-0.0,-0.0,-0.0,-0.0,-0.0,-0.0,-0.0,-0.0,0.022,0.052,0.0371,0.0149,0.0076,0.0906,0.135,0.1335,0.1333,0.117,0.0784,0.0984,0.1047,0.1115,0.1999,0.279,0.3291,0.2586,0.247,0.2821,0.2543,0.1365,-0.047,-0.093,0.0,0.0,0.0,0.0,0.0,0.0,0.0,0.0,0.0617,0.0,-0.0,0.0638,0.0999,0.0999,0.0938,0.0872,0.0872,0.0799,0.1365,0.3006,0.2305,0.1959,0.2378,0.2054,0.1775,0.1755,0.1522,0.1327,0.1386,0.119,0.1132,0.1134,0.0993,0.077,0.0539,0.0385,0.023,-0.0303,-0.0374,-0.0738,-0.1241,-0.1252,-0.1399,-0.1794,-0.1129,-0.0554,-0.0809,-0.1342,-0.188,-0.2353,-0.2755,-0.2956,-0.2956,-0.3092,-0.3293,-0.3426,-0.3491,-0.3627,-0.3961,-0.4095,-0.4292,-0.4428,-0.45,-0.4567,-0.4694,-0.4761,-0.4824,-0.4821,-0.4891,-0.4957,0.1298,0.0816,0.0635,0.0447,0.035,0.0785,0.0936,0.098,0.0,0.0,0.0,-0.0,-0.0,-0.0,-0.0152,-0.0231,-0.0234,-0.0156,-0.0077,-0.0076,-0.0076,-0.0076,-0.0,-0.0,-0.0077,-0.0235,-0.0079,-0.0,-0.0076,-0.0152,-0.045,-0.0948,-0.0859,-0.0709,-0.0564,0.0282,0.1324,0.2381,0.0748,0.0682,0.232,0.3474,0.251,-0.0677,-0.095,-0.1086,-0.1084,-0.1091,-0.0751,-0.0,0.0205,0.0207,-0.007,0.0493,0.0427,-0.0291,0.0219,0.0585,0.0512,0.0368,0.0295,0.0368,-0.0221,0.0073,0.1674,0.1236,0.1163,0.1745,0.1241,0.095,0.0946,0.0598,0.0303,0.0227,-0.0077,-0.0235,-0.0313,-0.0627,-0.0784,-0.0942,-0.1019,-0.1091,-0.13,-0.1295,-0.1512,-0.2157,-0.2258,-0.2244,-0.3001,-0.2378,-0.1859,-0.223,-0.2487,-0.2753,-0.2822,-0.309,-0.3293,-0.3293,-0.336,-0.3493,-0.3761,-0.3959,-0.4025,-0.4298,-0.4498,-0.4628,-0.4625,-0.4694,-0.4827,-0.4827,-0.496,-0.5087,-0.5153,-0.5156,-0.5156,0.1564,0.1419,0.0473,-0.037,-0.1073,-0.1053,-0.0772,-0.0418,-0.0,0.0079,-0.0,-0.0,-0.0,-0.0,-0.0782,-0.1084,-0.1066,-0.0685,-0.0532,-0.053,-0.053,-0.0306,-0.0,-0.0,-0.0391,-0.1021,-0.0393,-0.0157,-0.0547,-0.0938,-0.0917,-0.0514,0.0074,0.0591,0.1087,0.0869,0.065,0.0647,0.1078,0.1294,0.1151,0.1409,0.1254,0.0697,-0.0488,-0.1115,-0.1115,-0.114,-0.1154,-0.1009,-0.0937,-0.1011,-0.1233,-0.1159,-0.1235,-0.1533,-0.1264,-0.1204,-0.1356,-0.1306,-0.1166,-0.1089,-0.1553,-0.1372,-0.0,-0.0218,-0.0291,0.0073,-0.0149,-0.0448,-0.044,-0.0456,-0.0618,-0.0988,-0.1081,-0.1253,-0.1564,-0.172,-0.1879,-0.2349,-0.2504,-0.2662,-0.3117,-0.3193,-0.3188,-0.3492,-0.34,-0.352,-0.3429,-0.3199,-0.298,-0.3029,-0.3092,-0.3159,-0.3169,-0.3426,-0.3701,-0.3758,-0.3966,-0.41,-0.4164,-0.4295,-0.4492,-0.4558,-0.4694,-0.4761,-0.4761,-0.4761,-0.4894,-0.5024,-0.5087,-0.5153,-0.5292,-0.5359,-0.5359,0.0392,-0.0191,-0.0668,-0.0938,-0.1002,-0.1324,-0.1307,-0.1042,-0.0833,-0.0657,-0.0413,-0.0324,-0.032,-0.032,-0.0711,-0.1093,-0.1314,-0.1081,-0.0997,-0.0985,-0.0984,-0.0914,-0.0693,-0.0462,-0.0543,-0.0864,-0.0786,-0.0629,-0.0629,-0.11,-0.1165,-0.0912,-0.053,-0.0224,-0.0,-0.0222,-0.0446,-0.052,-0.0073,-0.0,-0.0218,-0.0144,-0.0143,-0.0143,-0.0787,-0.1145,-0.1146,-0.1304,-0.1385,-0.1385,-0.1458,-0.1541,-0.1636,-0.1639,-0.1723,-0.1823,-0.1766,-0.1777,-0.1856,-0.1873,-0.1962,-0.1962,-0.2198,-0.2098,-0.1518,-0.1289,-0.0986,-0.0455,-0.0844,-0.1306,-0.152,-0.1782,-0.2109,-0.2624,-0.2647,-0.2741,-0.2896,-0.2896,-0.3054,-0.329,-0.3368,-0.3446,-0.3763,-0.3841,-0.3919,-0.407,-0.4269,-0.4185,-0.3946,-0.3956,-0.3816,-0.3322,-0.3402,-0.3569,-0.3573,-0.3912,-0.4115,-0.4185,-0.4271,-0.4375,-0.4431,-0.4561,-0.4625,-0.4691,-0.4824,-0.496,-0.4957,-0.5093,-0.516,-0.5226,-0.5289,-0.5359,-0.5488,-0.5488,-0.5488,-0.0782,-0.144,-0.1536,-0.1325,-0.0923,-0.1253,-0.1422,-0.143,-0.1386,-0.1196,-0.0851,-0.083,-0.0739,-0.0737,-0.0804,-0.0956,-0.1268,-0.1346,-0.133,-0.1301,-0.1299,-0.1298,-0.1299,-0.0917,-0.0771,-0.0784,-0.11,-0.11,-0.0864,-0.11,-0.1336,-0.1333,-0.1226,-0.1203,-0.1188,-0.121,-0.1222,-0.122,-0.1274,-0.1258,-0.1176,-0.117,-0.1166,-0.1166,-0.132,-0.1324,-0.1324,-0.1479,-0.1558,-0.1558,-0.1781,-0.1872,-0.1906,-0.1909,-0.1925,-0.2038,-0.1964,-0.1964,-0.1963,-0.2119,-0.2352,-0.251,-0.251,-0.251,-0.251,-0.2195,-0.1725,-0.1335,-0.1645,-0.2115,-0.2504,-0.2901,-0.3452,-0.3841,-0.3919,-0.3919,-0.4077,-0.4077,-0.4077,-0.4077,-0.4075,-0.4077,-0.4075,-0.4075,-0.4231,-0.453,-0.468,-0.4688,-0.445,-0.4509,-0.4285,-0.3906,-0.3832,-0.4087,-0.4094,-0.4302,-0.4512,-0.458,-0.4486,-0.4569,-0.4678,-0.4721,-0.4758,-0.4894,-0.5027,-0.516,-0.5156,-0.5292,-0.5359,-0.5425,-0.5425,-0.5491,-0.562,-0.5686,-0.5617,-0.1196,-0.098,-0.1371,-0.1533,-0.1391,-0.1474,-0.1457,-0.1437,-0.1429,-0.1338,-0.133,-0.1369,-0.126,-0.126,-0.1256,-0.1322,-0.1298,-0.1298,-0.1281,-0.1333,-0.1331,-0.1331,-0.133,-0.1253,-0.1255,-0.1258,-0.1258,-0.1258,-0.1179,-0.1258,-0.1336,-0.1333,-0.1227,-0.1225,-0.1323,-0.1251,-0.1253,-0.1331,-0.1484,-0.1467,-0.1207,-0.1402,-0.1458,-0.1459,-0.1642,-0.1737,-0.1738,-0.1852,-0.1874,-0.1875,-0.1872,-0.1951,-0.211,-0.2188,-0.2268,-0.2431,-0.2275,-0.2196,-0.2196,-0.2353,-0.251,-0.251,-0.251,-0.251,-0.2588,-0.2824,-0.2904,-0.2826,-0.2904,-0.3137,-0.3606,-0.3684,-0.3919,-0.4309,-0.4307,-0.4465,-0.4781,-0.4859,-0.4859,-0.4862,-0.4781,-0.4859,-0.4781,-0.4781,-0.4859,-0.4857,-0.4852,-0.4855,-0.4769,-0.4688,-0.4683,-0.4563,-0.4637,-0.464,-0.464,-0.4635,-0.4781,-0.4919,-0.4821,-0.4821,-0.4992,-0.5048,-0.509,-0.5135,-0.5226,-0.5359,-0.5359,-0.5428,-0.5425,-0.555,-0.5617,-0.5683,-0.5822,-0.5954,-0.5951,-0.1509,-0.1299,-0.1498,-0.1574,-0.1531,-0.1478,-0.1457,-0.1461,-0.1442,-0.1436,-0.1433,-0.141,-0.139,-0.1372,-0.1356,-0.1332,-0.1303,-0.1303,-0.1286,-0.1338,-0.1336,-0.1336,-0.1336,-0.1336,-0.1336,-0.1336,-0.1336,-0.1336,-0.1336,-0.1336,-0.1336,-0.1335,-0.1244,-0.1245,-0.1335,-0.1415,-0.1493,-0.1493,-0.1651,-0.172,-0.1627,-0.1688,-0.1755,-0.1756,-0.1772,-0.1859,-0.186,-0.2032,-0.2041,-0.2119,-0.2199,-0.2276,-0.2353,-0.2353,-0.2431,-0.251,-0.2431,-0.2353,-0.2353,-0.2431,-0.2588,-0.2824,-0.2824,-0.2982,-0.3215,-0.3452,-0.3608,-0.3763,-0.3686,-0.3684,-0.4073,-0.4151,-0.4309,-0.4701,-0.4779,-0.4781,-0.494,-0.5018,-0.5018,-0.5018,-0.5018,-0.5018,-0.5018,-0.5018,-0.5018,-0.5015,-0.4966,-0.4936,-0.5084,-0.5042,-0.5019,-0.5168,-0.5246,-0.5133,-0.5001,-0.5126,-0.5202,-0.5258,-0.5168,-0.5151,-0.5271,-0.5243,-0.5287,-0.5352,-0.5413,-0.5432,-0.5362,-0.5488,-0.555,-0.5679,-0.6203,-0.647,-0.602,-0.6609,-0.6929,-0.1617,-0.1617,-0.1617,-0.1599,-0.1565,-0.1492,-0.1468,-0.1475,-0.1448,-0.1436,-0.1436,-0.1436,-0.1423,-0.1401,-0.138,-0.1356,-0.1329,-0.1326,-0.1306,-0.1273,-0.1349,-0.1345,-0.1337,-0.1336,-0.1336,-0.1336,-0.1336,-0.1336,-0.1336,-0.1415,-0.1415,-0.1415,-0.1493,-0.1493,-0.1493,-0.1573,-0.1651,-0.173,-0.1886,-0.1964,-0.1963,-0.2043,-0.2043,-0.1963,-0.2043,-0.2043,-0.2042,-0.2198,-0.2273,-0.2273,-0.2431,-0.251,-0.251,-0.251,-0.2588,-0.2668,-0.2668,-0.2746,-0.2824,-0.2824,-0.2981,-0.3217,-0.3295,-0.3452,-0.3765,-0.3919,-0.4075,-0.4307,-0.4229,-0.4309,-0.4465,-0.4543,-0.4701,-0.494,-0.5018,-0.5018,-0.5018,-0.5018,-0.5018,-0.5018,-0.5018,-0.5018,-0.5093,-0.5093,-0.509,-0.5168,-0.5171,-0.5171,-0.5323,-0.5392,-0.5392,-0.5562,-0.5712,-0.5671,-0.5354,-0.5336,-0.5566,-0.561,-0.5522,-0.5431,-0.5554,-0.5503,-0.5375,-0.546,-0.5437,-0.5439,-0.5491,-0.555,-0.5683,-0.5947,-0.647,-0.6929,-0.6218,-0.7326,-0.7777,-0.1617,-0.1617,-0.1617,-0.1598,-0.1569,-0.1534,-0.1506,-0.1577,-0.1451,-0.1437,-0.1438,-0.1436,-0.1435,-0.1431,-0.1427,-0.1414,-0.1386,-0.1382,-0.1352,-0.1304,-0.1301,-0.1286,-0.1337,-0.1336,-0.1336,-0.1337,-0.134,-0.1419,-0.1575,-0.1573,-0.1651,-0.1887,-0.181,-0.1889,-0.1808,-0.189,-0.1887,-0.1887,-0.2042,-0.2195,-0.2196,-0.2353,-0.2353,-0.2196,-0.2353,-0.2433,-0.2431,-0.2511,-0.251,-0.251,-0.251,-0.251,-0.251,-0.251,-0.2746,-0.3061,-0.3061,-0.3295,-0.3606,-0.3684,-0.3684,-0.3763,-0.3765,-0.3763,-0.3919,-0.4231,-0.4387,-0.4384,-0.4701,-0.4859,-0.4937,-0.4937,-0.494,-0.5018,-0.5018,-0.5018,-0.5018,-0.5018,-0.5018,-0.5018,-0.5015,-0.5093,-0.5246,-0.5243,-0.5323,-0.5482,-0.5562,-0.5559,-0.5559,-0.5559,-0.5637,-0.5718,-0.5951,-0.6103,-0.5702,-0.5674,-0.5758,-0.581,-0.5793,-0.579,-0.5772,-0.582,-0.5691,-0.5562,-0.5514,-0.5512,-0.5557,-0.5683,-0.5815,-0.621,-0.6868,-0.7003,-0.6416,-0.7582,-0.7972,-0.1617,-0.1615,-0.1596,-0.1592,-0.1596,-0.1547,-0.1626,-0.1821,-0.1578,-0.1648,-0.1826,-0.1715,-0.1795,-0.1885,-0.1885,-0.1684,-0.1391,-0.139,-0.1369,-0.1334,-0.1331,-0.1316,-0.1288,-0.1447,-0.1514,-0.1498,-0.1674,-0.1766,-0.1844,-0.1821,-0.1808,-0.1892,-0.1914,-0.1915,-0.1975,-0.2074,-0.2152,-0.2121,-0.2276,-0.2431,-0.2356,-0.2431,-0.2431,-0.2431,-0.2431,-0.251,-0.251,-0.251,-0.251,-0.251,-0.251,-0.2588,-0.2902,-0.3137,-0.3372,-0.353,-0.353,-0.3606,-0.3763,-0.3841,-0.3919,-0.4151,-0.4151,-0.4311,-0.4545,-0.4701,-0.4781,-0.4784,-0.494,-0.5018,-0.5018,-0.5018,-0.5018,-0.5018,-0.5018,-0.5018,-0.5018,-0.5018,-0.5018,-0.5018,-0.5093,-0.5246,-0.5401,-0.5482,-0.5559,-0.5562,-0.5562,-0.5637,-0.5789,-0.5789,-0.5786,-0.6028,-0.6183,-0.6261,-0.6103,-0.6025,-0.6099,-0.6089,-0.612,-0.6093,-0.6101,-0.5961,-0.5806,-0.5787,-0.5719,-0.5641,-0.5749,-0.5881,-0.6083,-0.6346,-0.7003,-0.7134,-0.6548,-0.7777,-0.8037,-0.1818,-0.1814,-0.1892,-0.1896,-0.191,-0.1854,-0.194,-0.2053,-0.1897,-0.1956,-0.2126,-0.2006,-0.2078,-0.2156,-0.2155,-0.2049,-0.167,-0.1668,-0.1649,-0.1534,-0.1532,-0.1598,-0.1568,-0.1727,-0.1714,-0.1776,-0.1956,-0.2046,-0.211,-0.2081,-0.2058,-0.2125,-0.217,-0.2169,-0.2138,-0.2251,-0.2336,-0.2386,-0.246,-0.2548,-0.2564,-0.2549,-0.2629,-0.2801,-0.2788,-0.2765,-0.2669,-0.2668,-0.2758,-0.2931,-0.2937,-0.3105,-0.3447,-0.3663,-0.3887,-0.404,-0.4012,-0.4075,-0.4155,-0.4155,-0.4311,-0.4543,-0.4623,-0.4709,-0.4983,-0.5069,-0.5089,-0.5113,-0.5089,-0.5072,-0.5061,-0.504,-0.5018,-0.5018,-0.5018,-0.5018,-0.5012,-0.5093,-0.5174,-0.5249,-0.5326,-0.5479,-0.5634,-0.5712,-0.5712,-0.5792,-0.5873,-0.587,-0.6022,-0.6018,-0.6018,-0.6257,-0.6261,-0.6261,-0.6261,-0.6183,-0.6183,-0.6251,-0.6318,-0.6402,-0.6308,-0.6089,-0.6001,-0.599,-0.6,-0.59,-0.5951,-0.6148,-0.6284,-0.6416,-0.6937,-0.7326,-0.7456,-0.7967,-0.8226,-0.2121,-0.2321,-0.2421,-0.2318,-0.2315,-0.2374,-0.2354,-0.2351,-0.231,-0.2269,-0.2335,-0.2224,-0.22,-0.2255,-0.2252,-0.2246,-0.2238,-0.2148,-0.2126,-0.2089,-0.1999,-0.2063,-0.2021,-0.2102,-0.2103,-0.2094,-0.2099,-0.216,-0.2292,-0.228,-0.2334,-0.2456,-0.2507,-0.2509,-0.2516,-0.2578,-0.2605,-0.2681,-0.2678,-0.2704,-0.2676,-0.2792,-0.2951,-0.3328,-0.3362,-0.3299,-0.3154,-0.3153,-0.3347,-0.3726,-0.3818,-0.3938,-0.4066,-0.4016,-0.4138,-0.4515,-0.4442,-0.4626,-0.4859,-0.4945,-0.488,-0.4961,-0.5031,-0.5018,-0.5173,-0.5189,-0.5227,-0.5292,-0.5246,-0.5184,-0.5159,-0.5091,-0.5029,-0.5018,-0.5018,-0.5012,-0.5085,-0.5165,-0.5401,-0.5556,-0.5637,-0.5712,-0.5864,-0.5941,-0.6022,-0.618,-0.6183,-0.6183,-0.6257,-0.6257,-0.6257,-0.6261,-0.6261,-0.6338,-0.6338,-0.6338,-0.6338,-0.6335,-0.6479,-0.6538,-0.6392,-0.627,-0.6186,-0.6154,-0.6135,-0.6036,-0.6152,-0.6284,-0.635,-0.6552,-0.7068,-0.7456,-0.7717,-0.8102,-0.8742,-0.2322,-0.2422,-0.2422,-0.2422,-0.2421,-0.2406,-0.25,-0.2594,-0.2451,-0.252,-0.2791,-0.266,-0.2615,-0.2758,-0.2749,-0.2729,-0.2695,-0.2694,-0.2504,-0.2222,-0.2221,-0.2195,-0.2158,-0.2237,-0.241,-0.2574,-0.2542,-0.2536,-0.2629,-0.2599,-0.255,-0.2602,-0.2676,-0.2668,-0.2582,-0.2877,-0.3077,-0.3154,-0.3357,-0.3531,-0.3686,-0.3586,-0.3752,-0.3853,-0.3831,-0.3973,-0.4199,-0.3946,-0.3876,-0.407,-0.407,-0.4168,-0.4513,-0.4709,-0.4816,-0.494,-0.4841,-0.4859,-0.4951,-0.5089,-0.5132,-0.5148,-0.5208,-0.5268,-0.5306,-0.5311,-0.5333,-0.5374,-0.533,-0.5284,-0.52,-0.5322,-0.5263,-0.5029,-0.509,-0.5251,-0.5332,-0.5485,-0.5637,-0.5789,-0.5786,-0.5944,-0.6103,-0.6177,-0.618,-0.6257,-0.6261,-0.6261,-0.6261,-0.6261,-0.6261,-0.6261,-0.6338,-0.6416,-0.6412,-0.6563,-0.6718,-0.6644,-0.6637,-0.6623,-0.6544,-0.6485,-0.6395,-0.6283,-0.6257,-0.6308,-0.6358,-0.6486,-0.6552,-0.6679,-0.7199,-0.7461,-0.7591,-0.8172,-0.8941,-0.2623,-0.2725,-0.2725,-0.2725,-0.2725,-0.2725,-0.2826,-0.2923,-0.2791,-0.2864,-0.3036,-0.2906,-0.2859,-0.3,-0.3085,-0.2959,-0.291,-0.2905,-0.2802,-0.2516,-0.2425,-0.2405,-0.2377,-0.2552,-0.264,-0.2812,-0.2779,-0.2767,-0.2781,-0.2744,-0.2695,-0.2664,-0.2736,-0.2818,-0.2896,-0.3196,-0.3486,-0.3646,-0.3861,-0.404,-0.4102,-0.4178,-0.4263,-0.4374,-0.4435,-0.4607,-0.4984,-0.4815,-0.4626,-0.4603,-0.4706,-0.4818,-0.5074,-0.5206,-0.5315,-0.5309,-0.5184,-0.5099,-0.5143,-0.5173,-0.5211,-0.5257,-0.5328,-0.539,-0.542,-0.5436,-0.5447,-0.5496,-0.5461,-0.5388,-0.5451,-0.5502,-0.5448,-0.5331,-0.5474,-0.5547,-0.5704,-0.5902,-0.5954,-0.6025,-0.6022,-0.6099,-0.6257,-0.6261,-0.6261,-0.6261,-0.6261,-0.6261,-0.6261,-0.6261,-0.6261,-0.6338,-0.6497,-0.657,-0.6644,-0.6868,-0.7096,-0.7022,-0.6949,-0.6795,-0.6621,-0.6672,-0.6675,-0.6439,-0.6316,-0.6626,-0.6745,-0.6876,-0.7007,-0.7199,-0.7521,-0.7972,-0.8361,-0.8619,-0.9262,-0.2928,-0.323,-0.323,-0.313,-0.313,-0.313,-0.313,-0.323,-0.3127,-0.3097,-0.3155,-0.3049,-0.311,-0.3064,-0.3053,-0.3018,-0.3059,-0.2951,-0.2926,-0.2895,-0.2886,-0.2884,-0.2892,-0.2875,-0.2867,-0.2876,-0.2867,-0.2838,-0.28,-0.2877,-0.2844,-0.2796,-0.293,-0.3103,-0.3391,-0.3524,-0.3815,-0.4167,-0.4329,-0.4363,-0.4448,-0.4389,-0.455,-0.4982,-0.4998,-0.5165,-0.5502,-0.5515,-0.5571,-0.5505,-0.5478,-0.5518,-0.563,-0.5544,-0.5441,-0.5598,-0.5402,-0.5434,-0.5391,-0.5451,-0.5361,-0.5368,-0.5409,-0.5434,-0.5542,-0.5561,-0.5594,-0.5676,-0.5616,-0.5598,-0.5664,-0.5799,-0.5823,-0.5966,-0.5913,-0.5974,-0.6141,-0.6267,-0.6193,-0.6261,-0.6257,-0.6261,-0.6261,-0.6261,-0.6261,-0.6261,-0.6261,-0.6261,-0.6338,-0.6338,-0.6338,-0.6416,-0.6648,-0.6802,-0.6872,-0.7026,-0.7249,-0.7326,-0.7322,-0.7258,-0.6964,-0.6989,-0.6871,-0.6627,-0.6779,-0.7021,-0.7134,-0.733,-0.7587,-0.7972,-0.8361,-0.8807,-0.9134,-0.9326,-0.9655,-0.313,-0.323,-0.323,-0.323,-0.323,-0.323,-0.323,-0.323,-0.323,-0.3219,-0.3207,-0.3207,-0.3172,-0.312,-0.3115,-0.306,-0.308,-0.3056,-0.2954,-0.303,-0.2936,-0.2965,-0.2974,-0.2914,-0.2898,-0.3015,-0.2987,-0.2865,-0.2939,-0.3198,-0.3341,-0.3278,-0.3687,-0.3868,-0.4064,-0.4245,-0.4552,-0.477,-0.5065,-0.5175,-0.5262,-0.526,-0.5343,-0.545,-0.5518,-0.5518,-0.5733,-0.5733,-0.5725,-0.5695,-0.5711,-0.5733,-0.5725,-0.5635,-0.5835,-0.6224,-0.6173,-0.6074,-0.6121,-0.617,-0.5972,-0.5504,-0.557,-0.5651,-0.5676,-0.5684,-0.5703,-0.5727,-0.578,-0.5889,-0.5955,-0.6175,-0.6404,-0.6541,-0.6302,-0.626,-0.6384,-0.6352,-0.6261,-0.6261,-0.6261,-0.6261,-0.6261,-0.6261,-0.6261,-0.6261,-0.6335,-0.6335,-0.6416,-0.6486,-0.656,-0.6641,-0.6799,-0.6949,-0.7103,-0.7257,-0.7407,-0.7557,-0.7685,-0.8005,-0.7673,-0.7451,-0.7168,-0.6844,-0.7508,-0.7912,-0.7807,-0.7782,-0.8231,-0.8683,-0.9069,-0.9454,-0.9594,-0.9798,-1.0277,-0.323,-0.323,-0.323,-0.323,-0.323,-0.323,-0.323,-0.323,-0.323,-0.323,-0.323,-0.323,-0.3211,-0.3179,-0.3176,-0.3223,-0.3325,-0.3411,-0.3492,-0.3745,-0.3745,-0.3673,-0.34,-0.3155,-0.323,-0.3597,-0.3383,-0.335,-0.3502,-0.3765,-0.3826,-0.3886,-0.4096,-0.4358,-0.4575,-0.475,-0.5039,-0.526,-0.5484,-0.5579,-0.5727,-0.5733,-0.5733,-0.5733,-0.5733,-0.5733,-0.5733,-0.5733,-0.5733,-0.5733,-0.5733,-0.5822,-0.6163,-0.6081,-0.6375,-0.7,-0.6701,-0.6473,-0.6439,-0.6316,-0.6005,-0.5711,-0.5703,-0.5725,-0.573,-0.5733,-0.5733,-0.5908,-0.5994,-0.6104,-0.6267,-0.6494,-0.6781,-0.6887,-0.6723,-0.648,-0.658,-0.639,-0.6278,-0.6261,-0.6261,-0.6261,-0.6261,-0.6261,-0.6261,-0.6335,-0.6718,-0.6644,-0.6567,-0.6633,-0.6784,-0.6791,-0.7026,-0.7257,-0.771,-0.7936,-0.8241,-0.8318,-0.8604,-0.8844,-0.8714,-0.834,-0.8017,-0.7937,-0.8399,-0.8668,-0.8538,-0.8554,-0.9069,-0.9454,-0.9779,-0.9957,-1.0187,-1.0219,-1.0705,-0.3531,-0.3531,-0.3432,-0.3331,-0.343,-0.3232,-0.3331,-0.3432,-0.343,-0.3531,-0.3731,-0.363,-0.3827,-0.343,-0.4016,-0.3886,-0.4203,-0.4378,-0.4638,-0.489,-0.4884,-0.4618,-0.4422,-0.371,-0.3856,-0.4189,-0.3987,-0.4015,-0.4141,-0.43,-0.4389,-0.4378,-0.4474,-0.4656,-0.4994,-0.509,-0.528,-0.5552,-0.5633,-0.5716,-0.5733,-0.5733,-0.5733,-0.5733,-0.5733,-0.5733,-0.5733,-0.5733,-0.5733,-0.5733,-0.5733,-0.6083,-0.6602,-0.6773,-0.7119,-0.7537,-0.727,-0.699,-0.6724,-0.6225,-0.5787,-0.5789,-0.5725,-0.5733,-0.5733,-0.5822,-0.5908,-0.608,-0.6171,-0.6383,-0.6567,-0.6787,-0.6924,-0.7068,-0.699,-0.6861,-0.6715,-0.6478,-0.6386,-0.6379,-0.6305,-0.6362,-0.6359,-0.6345,-0.6338,-0.6791,-0.7022,-0.6868,-0.6868,-0.6938,-0.6938,-0.6945,-0.7257,-0.7569,-0.8169,-0.877,-0.9074,-0.9301,-0.9674,-0.9916,-0.9996,-0.9713,-0.9313,-0.9184,-0.9376,-0.9331,-0.9221,-0.9454,-0.9856,-1.0098,-1.0231,-1.0496,-1.0822,-1.0712,-1.0949,-0.5724,-0.5625,-0.483,-0.4433,-0.4334,-0.3632,-0.3732,-0.4433,-0.4435,-0.4931,-0.5525,-0.5922,-0.5627,-0.5133,-0.5724,-0.6064,-0.5586,-0.6063,-0.6517,-0.652,-0.5927,-0.5955,-0.5816,-0.5032,-0.4474,-0.4624,-0.4469,-0.43,-0.4414,-0.4661,-0.4832,-0.4832,-0.5104,-0.5463,-0.5463,-0.5463,-0.5555,-0.5644,-0.5733,-0.5733,-0.5733,-0.5733,-0.5733,-0.5733,-0.5733,-0.5733,-0.5733,-0.5733,-0.5733,-0.5733,-0.5733,-0.608,-0.6691,-0.6868,-0.7129,-0.7738,-0.8158,-0.7884,-0.7115,-0.6923,-0.6832,-0.5985,-0.5997,-0.5819,-0.5997,-0.6171,-0.6169,-0.6343,-0.6523,-0.6854,-0.6994,-0.7001,-0.7102,-0.7105,-0.7027,-0.6929,-0.6861,-0.6712,-0.6593,-0.6563,-0.6561,-0.6503,-0.6493,-0.6535,-0.6736,-0.718,-0.7326,-0.7249,-0.7242,-0.7314,-0.7395,-0.748,-0.794,-0.8399,-0.8699,-0.9372,-0.99,-1.0276,-1.0651,-1.087,-1.101,-1.0876,-1.0325,-1.014,-1.011,-1.0054,-0.9947,-1.0085,-1.0366,-1.0531,-1.0581,-1.0735,-1.0862,-1.0942,-1.1189,-0.5924,-0.6323,-0.5829,-0.5231,-0.4834,-0.473,-0.4732,-0.4933,-0.5529,-0.6024,-0.652,-0.6915,-0.6722,-0.6431,-0.6924,-0.6979,-0.7134,-0.7609,-0.7906,-0.7821,-0.7493,-0.7518,-0.7415,-0.6608,-0.5841,-0.5494,-0.5016,-0.4915,-0.5103,-0.5218,-0.5282,-0.5371,-0.5644,-0.5644,-0.5733,-0.5733,-0.5733,-0.5733,-0.5733,-0.5733,-0.5733,-0.5733,-0.5733,-0.5733,-0.5733,-0.5733,-0.5733,-0.5733,-0.5733,-0.5733,-0.5733,-0.6169,-0.6956,-0.7041,-0.7305,-0.8185,-0.7921,-0.7921,-0.7394,-0.7305,-0.7214,-0.7044,-0.7044,-0.7217,-0.7478,-0.7562,-0.739,-0.7482,-0.7749,-0.8101,-0.7753,-0.7224,-0.7139,-0.7129,-0.7078,-0.7031,-0.6993,-0.6837,-0.6702,-0.6754,-0.6954,-0.7046,-0.7058,-0.72,-0.759,-0.8255,-0.8313,-0.8237,-0.808,-0.8152,-0.8237,-0.8394,-0.8922,-0.9226,-0.9448,-0.997,-1.0801,-1.1174,-1.1545,-1.17,-1.1784,-1.1595,-1.125,-1.1045,-1.0904,-1.0766,-1.0731,-1.079,-1.0701,-1.0635,-1.0655,-1.0788,-1.0995,-1.1276,-1.1577,-0.6027,-0.6921,-0.6719,-0.6126,-0.5529,-0.6124,-0.6124,-0.5729,-0.662,-0.7313,-0.7415,-0.7617,-0.7915,-0.7621,-0.7915,-0.8117,-0.851,-0.8909,-0.9288,-0.9193,-0.8905,-0.8821,-0.8715,-0.7991,-0.735,-0.6574,-0.5756,-0.5637,-0.5707,-0.5798,-0.5646,-0.5644,-0.5733,-0.5733,-0.5733,-0.5733,-0.5733,-0.5733,-0.5733,-0.5733,-0.5733,-0.5733,-0.5733,-0.5733,-0.5733,-0.5733,-0.5733,-0.5733,-0.5733,-0.5733,-0.5733,-0.6435,-0.7221,-0.7394,-0.7397,-0.8623,-0.8093,-0.8006,-0.7918,-0.7738,-0.791,-0.8611,-0.8519,-0.8782,-0.9043,-0.9043,-0.8786,-0.879,-0.8969,-0.9231,-0.8715,-0.7929,-0.7577,-0.7573,-0.7489,-0.7404,-0.7442,-0.7328,-0.7399,-0.7058,-0.762,-0.8002,-0.8132,-0.826,-0.8793,-0.918,-0.9241,-0.9296,-0.914,-0.8836,-0.8846,-0.9226,-0.9679,-1.0351,-1.0571,-1.0645,-1.1477,-1.17,-1.215,-1.2224,-1.2305,-1.2084,-1.1734,-1.1787,-1.1613,-1.1394,-1.1195,-1.1122,-1.0955,-1.0762,-1.0808,-1.1015,-1.1309,-1.1637,-1.1921,-0.8928,-0.9027,-0.8315,-0.7915,-0.7717,-0.7319,-0.7518,-0.8113,-0.8305,-0.9004,-0.9706,-1.0002,-0.9694,-0.9501,-1.0194,-1.0498,-1.0395,-1.0502,-1.06,-1.0502,-1.0109,-0.9817,-0.962,-0.9023,-0.8502,-0.8028,-0.6972,-0.6131,-0.6007,-0.5795,-0.5838,-0.5738,-0.5733,-0.5733,-0.5733,-0.5733,-0.5733,-0.5733,-0.5733,-0.5733,-0.5733,-0.5733,-0.5733,-0.5733,-0.5733,-0.5735,-0.5735,-0.5735,-0.5733,-0.5733,-0.5733,-0.6523,-0.7485,-0.7746,-0.7918,-0.8273,-0.9056,-0.9052,-0.8703,-0.9222,-0.9305,-0.9218,-0.9213,-0.9305,-0.957,-0.9657,-0.9836,-0.9749,-0.9749,-0.9749,-0.9662,-0.8798,-0.8798,-0.8969,-0.8711,-0.854,-0.9039,-0.9225,-0.8841,-0.8287,-0.8639,-0.9052,-0.918,-0.9355,-0.9837,-0.9905,-0.9711,-0.9992,-1.0201,-0.9674,-0.9226,-0.9755,-1.0432,-1.118,-1.1848,-1.1848,-1.2083,-1.2003,-1.2231,-1.2231,-1.2305,-1.2305,-1.2204,-1.2116,-1.1975,-1.1717,-1.1543,-1.139,-1.1162,-1.0942,-1.1089,-1.1276,-1.1417,-1.1525,-1.185,-0.9225,-0.9723,-0.9414,-0.9015,-0.8711,-0.8814,-0.881,-0.8909,-0.9505,-1.0105,-1.0574,-1.0807,-1.0715,-1.0551,-1.078,-1.109,-1.1175,-1.1194,-1.1194,-1.1096,-1.0801,-1.0605,-1.0511,-0.9817,-0.9453,-0.8972,-0.8041,-0.7237,-0.7108,-0.6609,-0.6421,-0.6177,-0.5908,-0.5733,-0.5733,-0.5733,-0.5733,-0.5733,-0.5735,-0.5733,-0.5733,-0.5733,-0.5733,-0.5733,-0.5733,-0.5824,-0.6,-0.5911,-0.5997,-0.6169,-0.6523,-0.7136,-0.7834,-0.8619,-0.8965,-0.8965,-0.9488,-0.9923,-0.9483,-1.0091,-1.0269,-1.0697,-1.0611,-1.0875,-1.1052,-1.1311,-1.1139,-1.1052,-1.0183,-1.0096,-1.0534,-0.9758,-0.9579,-0.9662,-0.9492,-0.9492,-0.9923,-1.0361,-1.0076,-0.9592,-0.9888,-1.0141,-1.0204,-1.0431,-1.0841,-1.072,-1.0273,-1.0611,-1.1111,-1.0588,-0.9836,-1.0477,-1.1166,-1.1614,-1.2291,-1.2297,-1.2325,-1.2305,-1.2305,-1.2305,-1.2378,-1.2378,-1.2418,-1.2396,-1.2182,-1.2002,-1.181,-1.1643,-1.1383,-1.1156,-1.1269,-1.1336,-1.135,-1.1472,-1.1854,-0.9023,-1.0019,-1.0117,-0.9813,-0.9402,-1.0207,-1.0105,-0.96,-1.04,-1.0774,-1.083,-1.0936,-1.1038,-1.1085,-1.1052,-1.1057,-1.1194,-1.1194,-1.1194,-1.1194,-1.1194,-1.1194,-1.0998,-1.069,-1.0151,-0.9959,-0.9448,-0.8756,-0.7991,-0.7625,-0.7326,-0.7062,-0.6483,-0.6212,-0.6311,-0.6192,-0.6005,-0.5908,-0.5735,-0.5733,-0.5733,-0.5733,-0.5733,-0.5822,-0.5908,-0.6355,-0.7071,-0.7054,-0.7044,-0.7302,-0.7654,-0.8181,-0.8528,-0.9657,-1.0269,-1.0101,-0.9831,-1.0091,-1.0438,-1.0875,-1.1311,-1.1837,-1.21,-1.2272,-1.2443,-1.2351,-1.2528,-1.2443,-1.1574,-1.088,-1.1322,-1.0712,-1.0448,-1.0534,-1.0448,-1.0361,-1.0707,-1.1128,-1.1514,-1.1308,-1.1315,-1.1255,-1.1305,-1.1236,-1.1544,-1.1572,-1.1188,-1.1061,-1.1409,-1.1111,-1.083,-1.1358,-1.1921,-1.2146,-1.2458,-1.2485,-1.2405,-1.2305,-1.2305,-1.2305,-1.2378,-1.2526,-1.2485,-1.2538,-1.2458,-1.2276,-1.2089,-1.1962,-1.165,-1.149,-1.147,-1.1424,-1.131,-1.1654,-1.2131,-0.9817,-1.0019,-1.0502,-1.0609,-1.0596,-1.0895,-1.0998,-1.0895,-1.0984,-1.109,-1.0894,-1.1061,-1.1038,-1.0995,-1.1113,-1.1165,-1.1189,-1.1194,-1.1194,-1.1194,-1.1194,-1.1194,-1.1194,-1.1194,-1.0863,-1.0766,-1.056,-0.9626,-0.8706,-0.834,-0.821,-0.8,-0.7775,-0.7876,-0.7476,-0.6923,-0.6694,-0.6605,-0.6083,-0.5822,-0.5822,-0.5908,-0.5908,-0.5988,-0.6697,-0.786,-0.8677,-0.8736,-0.8607,-0.869,-0.8865,-0.9392,-1.0005,-1.0529,-1.1225,-1.1574,-1.1666,-1.1666,-1.1752,-1.1923,-1.218,-1.2443,-1.2528,-1.2619,-1.2705,-1.2705,-1.2705,-1.2705,-1.2357,-1.2186,-1.2186,-1.1666,-1.1666,-1.1666,-1.1488,-1.166,-1.2009,-1.1746,-1.2128,-1.2383,-1.2216,-1.235,-1.2429,-1.2295,-1.2196,-1.2093,-1.2018,-1.1859,-1.1813,-1.154,-1.1601,-1.2183,-1.2464,-1.2692,-1.2708,-1.2721,-1.2614,-1.2459,-1.2318,-1.2385,-1.2452,-1.2599,-1.2753,-1.2739,-1.2599,-1.2599,-1.249,-1.2274,-1.1962,-1.178,-1.1737,-1.1512,-1.1274,-1.1736,-1.2185,-1.0083,-1.0192,-1.0495,-1.0738,-1.0844,-1.1142,-1.1194,-1.117,-1.1071,-1.1042,-1.1019,-1.0882,-1.0853,-1.0934,-1.1109,-1.1189,-1.1194,-1.1194,-1.1194,-1.1194,-1.1194,-1.1194,-1.1194,-1.1184,-1.1156,-1.1023,-1.0924,-1.0476,-0.9621,-0.9107,-0.9023,-0.8878,-0.8508,-0.8174,-0.8363,-0.7656,-0.7411,-0.7309,-0.7136,-0.7048,-0.7217,-0.7214,-0.6757,-0.5931,-0.7537,-0.9266,-1.046,-0.9887,-0.957,-0.9657,-1.0014,-1.0539,-1.0971,-1.1488,-1.2095,-1.2272,-1.2357,-1.2357,-1.2448,-1.2619,-1.2705,-1.2705,-1.2705,-1.2705,-1.2705,-1.2705,-1.2705,-1.2705,-1.2705,-1.2705,-1.2705,-1.2357,-1.2357,-1.2357,-1.218,-1.2357,-1.2528,-1.2619,-1.2693,-1.2875,-1.3112,-1.3015,-1.2909,-1.2747,-1.2486,-1.2309,-1.2263,-1.212,-1.2182,-1.228,-1.2407,-1.2824,-1.3077,-1.3226,-1.3131,-1.3076,-1.2968,-1.2729,-1.2432,-1.2419,-1.2613,-1.268,-1.2826,-1.298,-1.2973,-1.2973,-1.29,-1.2649,-1.2254,-1.2073,-1.1875,-1.1687,-1.149,-1.1374,-1.1852,-1.014,-1.0168,-1.0421,-1.0626,-1.0825,-1.0976,-1.1028,-1.1014,-1.0877,-1.0901,-1.0948,-1.0792,-1.0792,-1.0962,-1.1123,-1.1194,-1.1194,-1.1194,-1.1194,-1.1194,-1.1194,-1.1194,-1.1194,-1.1179,-1.109,-1.0891,-1.082,-1.0651,-1.0496,-1.0138,-0.9842,-0.9788,-0.9427,-0.9042,-0.8758,-0.8454,-0.8167,-0.7914,-0.7918,-0.8089,-0.8436,-0.8607,-0.796,-0.7854,-0.8744,-1.0574,-1.2076,-1.1386,-1.0621,-1.0794,-1.1241,-1.1591,-1.1843,-1.2186,-1.2528,-1.2619,-1.2619,-1.2619,-1.2619,-1.2705,-1.2705,-1.2705,-1.2705,-1.2705,-1.2705,-1.2705,-1.2705,-1.2705,-1.2705,-1.2705,-1.2705,-1.2619,-1.2619,-1.2619,-1.2613,-1.2699,-1.2705,-1.2705,-1.2875,-1.3137,-1.3237,-1.3227,-1.3104,-1.3039,-1.283,-1.247,-1.2378,-1.2338,-1.2505,-1.2692,-1.2966,-1.3253,-1.3459,-1.3612,-1.3557,-1.3441,-1.3368,-1.3078,-1.2777,-1.2655,-1.2803,-1.2956,-1.3046,-1.32,-1.32,-1.32,-1.3127,-1.2837,-1.2608,-1.2395,-1.2172,-1.1875,-1.1717,-1.1575,-1.1804,-0.9993,-1.0027,-1.0428,-1.0594,-1.0612,-1.0603,-1.0631,-1.0702,-1.0641,-1.0645,-1.0731,-1.0801,-1.0981,-1.1123,-1.1165,-1.1194,-1.1194,-1.1194,-1.1194,-1.1194,-1.1194,-1.1194,-1.1184,-1.1151,-1.108,-1.091,-1.0759,-1.074,-1.0787,-1.0594,-1.0547,-1.073,-1.0283,-1.0403,-1.0136,-0.944,-0.9,-0.8732,-0.8703,-0.8956,-0.9218,-0.9392,-0.9479,-1.0019,-1.0534,-1.1429,-1.2647,-1.2312,-1.2095,-1.2095,-1.2277,-1.2369,-1.2443,-1.2528,-1.2705,-1.2705,-1.2705,-1.2705,-1.2705,-1.2705,-1.2705,-1.2705,-1.2705,-1.2705,-1.2705,-1.2705,-1.2705,-1.2705,-1.2705,-1.2705,-1.2705,-1.2705,-1.2705,-1.2705,-1.2705,-1.2705,-1.2705,-1.279,-1.296,-1.3222,-1.3387,-1.3329,-1.3313,-1.3259,-1.285,-1.2552,-1.2412,-1.2371,-1.2766,-1.2999,-1.3267,-1.3575,-1.3818,-1.3919,-1.4007,-1.395,-1.3829,-1.348,-1.3147,-1.3113,-1.314,-1.3259,-1.32,-1.3273,-1.3346,-1.3346,-1.3346,-1.3157,-1.2912,-1.2621,-1.2416,-1.2255,-1.2164,-1.2115,-1.248,-1.0038,-1.0052,-1.0219,-1.0338,-1.0584,-1.0716,-1.0768,-1.0773,-1.0773,-1.0773,-1.0778,-1.0986,-1.1118,-1.1175,-1.1194,-1.1194,-1.1194,-1.1194,-1.1189,-1.1194,-1.1194,-1.1194,-1.1165,-1.1099,-1.1014,-1.0976,-1.0773,-1.0773,-1.1028,-1.0839,-1.082,-1.0877,-1.0915,-1.0759,-1.0459,-1.0253,-0.9953,-0.997,-1.0101,-1.0443,-1.0783,-1.0961,-1.123,-1.1763,-1.1935,-1.2192,-1.2655,-1.2723,-1.2705,-1.2705,-1.2705,-1.2705,-1.2705,-1.2705,-1.2705,-1.2705,-1.2705,-1.2705,-1.2705,-1.2705,-1.2705,-1.2705,-1.2705,-1.2705,-1.2705,-1.2705,-1.2705,-1.2705,-1.2705,-1.2705,-1.2705,-1.2705,-1.2705,-1.2705,-1.2705,-1.2705,-1.279,-1.2875,-1.3045,-1.3392,-1.351,-1.358,-1.3556,-1.3433,-1.3039,-1.2585,-1.2485,-1.2505,-1.2939,-1.3346,-1.3595,-1.3872,-1.42,-1.4413,-1.4503,-1.4437,-1.4268,-1.3915,-1.3628,-1.346,-1.3402,-1.3216,-1.32,-1.3346,-1.3419,-1.3419,-1.3419,-1.3346,-1.3136,-1.2884,-1.274,-1.2666,-1.2626,-1.2553,-1.2983,-1.0038,-1.0038,-1.0038,-1.0116,-1.0395,-1.0551,-1.0617,-1.0627,-1.0664,-1.0801,-1.0905,-1.1099,-1.1194,-1.1194,-1.1194,-1.1137,-1.1132,-1.1151,-1.1142,-1.1142,-1.1151,-1.1184,-1.1142,-1.109,-1.1047,-1.1038,-1.0896,-1.0863,-1.1042,-1.0948,-1.0953,-1.0976,-1.0957,-1.0816,-1.0529,-1.0598,-1.0722,-1.1063,-1.1327,-1.1757,-1.2095,-1.2186,-1.2186,-1.2534,-1.2613,-1.2613,-1.2711,-1.2705,-1.2705,-1.2705,-1.2705,-1.2705,-1.2705,-1.2705,-1.2705,-1.2705,-1.2705,-1.2705,-1.2705,-1.2705,-1.2705,-1.2705,-1.2705,-1.2705,-1.2705,-1.2705,-1.2705,-1.2705,-1.2705,-1.2705,-1.2705,-1.2705,-1.2705,-1.2705,-1.2881,-1.2881,-1.2966,-1.3052,-1.3222,-1.3476,-1.3594,-1.362,-1.3543,-1.3507,-1.3267,-1.2953,-1.3019,-1.3046,-1.3287,-1.3642,-1.3872,-1.4207,-1.458,-1.4789,-1.5061,-1.4821,-1.4664,-1.4441,-1.4129,-1.3747,-1.3611,-1.3422,-1.3294,-1.3419,-1.3492,-1.3492,-1.3484,-1.3411,-1.323,-1.2997,-1.2936,-1.2742,-1.3016,-1.3026,-1.3384,-1.0038,-1.0038,-1.0038,-1.0052,-1.01,-1.0071,-1.0036,-1.0164,-1.0301,-1.0556,-1.0863,-1.1061,-1.1156,-1.1161,-1.1146,-1.1094,-1.1052,-1.1132,-1.1132,-1.1052,-1.1137,-1.1184,-1.1175,-1.1137,-1.1023,-1.0929,-1.0863,-1.0863,-1.0929,-1.0957,-1.1023,-1.1153,-1.1106,-1.0944,-1.041,-1.0514,-1.1089,-1.1854,-1.1957,-1.2312,-1.2448,-1.2649,-1.2685,-1.2705,-1.2819,-1.2862,-1.2795,-1.2856,-1.2856,-1.2795,-1.2783,-1.2759,-1.2711,-1.2705,-1.2705,-1.2705,-1.2705,-1.2705,-1.2705,-1.2705,-1.2705,-1.2705,-1.2705,-1.2705,-1.2705,-1.2705,-1.2705,-1.2705,-1.2705,-1.2705,-1.2705,-1.2705,-1.2705,-1.279,-1.2966,-1.3052,-1.3137,-1.3228,-1.3483,-1.3646,-1.362,-1.3717,-1.353,-1.348,-1.338,-1.3327,-1.3406,-1.3614,-1.3694,-1.3796,-1.3966,-1.4372,-1.4741,-1.4915,-1.5082,-1.509,-1.4989,-1.4868,-1.4596,-1.4159,-1.3885,-1.3693,-1.3593,-1.3543,-1.3492,-1.3492,-1.3484,-1.3477,-1.3386,-1.3227,-1.2862,-1.2789,-1.31,-1.3514,-1.394,-1.0038,-1.0038,-1.0038,-1.0038,-1.0057,-1.0195,-1.0234,-1.0362,-1.0452,-1.0556,-1.0664,-1.0768,-1.0882,-1.0953,-1.1009,-1.1014,-1.1104,-1.1123,-1.1118,-1.1109,-1.1165,-1.1184,-1.117,-1.1075,-1.0976,-1.0915,-1.0896,-1.091,-1.0905,-1.0976,-1.0995,-1.1014,-1.1387,-1.1328,-1.1389,-1.1657,-1.2293,-1.2312,-1.2528,-1.2736,-1.2759,-1.2868,-1.2898,-1.2759,-1.3037,-1.3121,-1.3006,-1.3097,-1.3097,-1.2976,-1.2946,-1.2874,-1.2747,-1.2705,-1.2705,-1.2705,-1.2705,-1.2705,-1.2705,-1.2705,-1.2705,-1.2705,-1.2705,-1.2705,-1.2705,-1.2705,-1.2705,-1.2705,-1.279,-1.279,-1.2705,-1.2705,-1.279,-1.2966,-1.3052,-1.3222,-1.3313,-1.3483,-1.3652,-1.3737,-1.3802,-1.3886,-1.3805,-1.3754,-1.3641,-1.3534,-1.3647,-1.3774,-1.3861,-1.3748,-1.383,-1.4358,-1.4741,-1.4999,-1.5166,-1.5173,-1.5177,-1.5003,-1.4779,-1.4468,-1.4212,-1.3975,-1.3733,-1.3558,-1.3521,-1.3492,-1.3608,-1.3693,-1.3603,-1.3391,-1.3369,-1.3515,-1.3917,-1.4269,-1.4545,-1.0038,-1.0038,-1.0038,-1.0038,-1.0062,-1.0102,-1.0277,-1.0447,-1.0475,-1.0504,-1.0565,-1.0579,-1.0697,-1.083,-1.0834,-1.0901,-1.108,-1.109,-1.109,-1.1104,-1.117,-1.1132,-1.1066,-1.1023,-1.099,-1.0938,-1.0967,-1.1009,-1.1009,-1.1057,-1.1058,-1.1179,-1.1657,-1.2098,-1.2269,-1.2498,-1.2773,-1.2796,-1.2998,-1.3003,-1.3043,-1.3073,-1.3085,-1.3121,-1.3266,-1.3417,-1.335,-1.3363,-1.3399,-1.3218,-1.3091,-1.2994,-1.2801,-1.2705,-1.2705,-1.2705,-1.2705,-1.2705,-1.2705,-1.2705,-1.2705,-1.2705,-1.2705,-1.2705,-1.2705,-1.279,-1.2875,-1.2875,-1.2881,-1.2966,-1.296,-1.2881,-1.2966,-1.3222,-1.3307,-1.3398,-1.3483,-1.3652,-1.3828,-1.3906,-1.3913,-1.3997,-1.4088,-1.4062,-1.3968,-1.3868,-1.3788,-1.3901,-1.3995,-1.3964,-1.3953,-1.4441,-1.4824,-1.5082,-1.5257,-1.5347,-1.5231,-1.5138,-1.4948,-1.4757,-1.4406,-1.4084,-1.3828,-1.3594,-1.3601,-1.3622,-1.3795,-1.3905,-1.4081,-1.4355,-1.4473,-1.463,-1.4874,-1.5143,-1.5376,-1.0038,-1.0038,-1.0038,-1.0038,-1.0038,-1.0062,-1.0176,-1.0263,-1.0277,-1.0381,-1.0527,-1.0499,-1.0594,-1.0768,-1.066,-1.0707,-1.0877,-1.0905,-1.0929,-1.0948,-1.1028,-1.099,-1.1,-1.1009,-1.0891,-1.0929,-1.0957,-1.0943,-1.1099,-1.1216,-1.1204,-1.1568,-1.2433,-1.2886,-1.304,-1.3136,-1.3256,-1.3332,-1.3309,-1.3344,-1.3332,-1.3302,-1.3326,-1.3399,-1.3556,-1.361,-1.358,-1.3598,-1.3447,-1.329,-1.3157,-1.297,-1.2813,-1.2705,-1.2705,-1.2705,-1.2705,-1.2705,-1.279,-1.279,-1.279,-1.2875,-1.279,-1.279,-1.279,-1.2966,-1.3052,-1.3137,-1.3143,-1.3313,-1.3313,-1.3307,-1.3307,-1.3476,-1.3568,-1.3652,-1.3737,-1.3906,-1.3997,-1.4082,-1.4082,-1.4088,-1.4088,-1.4088,-1.4088,-1.4035,-1.3941,-1.3975,-1.4126,-1.428,-1.4289,-1.4566,-1.4915,-1.5257,-1.5431,-1.5431,-1.5401,-1.5262,-1.5131,-1.4926,-1.456,-1.4271,-1.4074,-1.3918,-1.3769,-1.3905,-1.4371,-1.472,-1.4925,-1.5155,-1.5492,-1.5511,-1.5661,-1.6087,-1.6446,-1.0038,-1.0038,-1.0038,-1.0038,-1.0038,-1.0038,-1.0076,-1.0148,-1.0197,-1.0244,-1.0219,-1.013,-1.0296,-1.0438,-1.0532,-1.0598,-1.0702,-1.0806,-1.0882,-1.0891,-1.0834,-1.0839,-1.0834,-1.0801,-1.0655,-1.0603,-1.0641,-1.0749,-1.0748,-1.0978,-1.1701,-1.2156,-1.2903,-1.34,-1.3702,-1.3909,-1.3854,-1.371,-1.367,-1.3622,-1.3616,-1.3598,-1.3598,-1.3634,-1.3882,-1.39,-1.3839,-1.3948,-1.3797,-1.3483,-1.3411,-1.3212,-1.2741,-1.2705,-1.2705,-1.2705,-1.2705,-1.279,-1.2966,-1.2966,-1.3052,-1.3137,-1.3137,-1.3137,-1.3137,-1.3137,-1.3313,-1.3398,-1.3398,-1.3483,-1.3483,-1.3568,-1.3568,-1.3652,-1.3737,-1.3822,-1.3906,-1.3997,-1.4088,-1.4088,-1.4088,-1.4088,-1.4088,-1.4088,-1.4088,-1.4088,-1.4088,-1.4088,-1.4159,-1.4307,-1.4468,-1.4734,-1.4999,-1.5347,-1.5347,-1.5431,-1.5431,-1.5394,-1.5262,-1.5035,-1.4761,-1.4483,-1.4374,-1.4347,-1.448,-1.4832,-1.5313,-1.5525,-1.5666,-1.6167,-1.6498,-1.6435,-1.6546,-1.6895,-1.7157,-1.0038,-1.0038,-1.0038,-1.0038,-1.0038,-1.0038,-1.0038,-1.0062,-1.0186,-1.0064,-1.0047,-1.0047,-1.0069,-1.0263,-1.0319,-1.04,-1.0584,-1.0584,-1.065,-1.0707,-1.0617,-1.0608,-1.0598,-1.0589,-1.0494,-1.0409,-1.0433,-1.0579,-1.063,-1.1192,-1.1891,-1.2218,-1.3037,-1.3585,-1.3902,-1.3998,-1.4195,-1.4063,-1.3954,-1.3882,-1.3876,-1.3882,-1.3815,-1.3894,-1.4189,-1.4141,-1.4087,-1.4345,-1.4139,-1.3792,-1.3707,-1.3483,-1.3094,-1.3039,-1.3034,-1.3016,-1.3045,-1.3052,-1.3222,-1.3222,-1.3307,-1.3392,-1.3476,-1.3476,-1.3392,-1.3483,-1.3483,-1.3568,-1.3652,-1.3659,-1.3652,-1.3652,-1.3737,-1.3822,-1.3906,-1.3913,-1.3997,-1.4088,-1.4088,-1.4088,-1.4088,-1.4088,-1.4088,-1.4088,-1.4088,-1.4088,-1.4173,-1.4166,-1.4146,-1.4203,-1.4461,-1.4643,-1.4999,-1.5347,-1.5347,-1.5431,-1.5431,-1.5431,-1.5394,-1.5198,-1.49,-1.4927,-1.5028,-1.5162,-1.5355,-1.5745,-1.6088,-1.6237,-1.6376,-1.6872,-1.7226,-1.7257,-1.7239,-1.7404,-1.7657,-1.0038,-1.0038,-1.0038,-1.0038,-1.0038,-1.0038,-1.0038,-1.0038,-1.0052,-1.0038,-1.0038,-1.0038,-1.0055,-1.0168,-1.0159,-1.0329,-1.0357,-1.0386,-1.0452,-1.0537,-1.0452,-1.0414,-1.0414,-1.0409,-1.0305,-1.0329,-1.0448,-1.0462,-1.0793,-1.1323,-1.1815,-1.2089,-1.3046,-1.3646,-1.3785,-1.4045,-1.4177,-1.4214,-1.4111,-1.4032,-1.4129,-1.4105,-1.4039,-1.422,-1.4292,-1.428,-1.4376,-1.4447,-1.4469,-1.4105,-1.3903,-1.3744,-1.3505,-1.3391,-1.3423,-1.3401,-1.3313,-1.3307,-1.3392,-1.3392,-1.3483,-1.3561,-1.3646,-1.3737,-1.3737,-1.3737,-1.3743,-1.3743,-1.3828,-1.3913,-1.3913,-1.3913,-1.3913,-1.3997,-1.3997,-1.3997,-1.4082,-1.4088,-1.4088,-1.4088,-1.4088,-1.4088,-1.4088,-1.4088,-1.4166,-1.4166,-1.4166,-1.4243,-1.4321,-1.4371,-1.4461,-1.4727,-1.5082,-1.5347,-1.5347,-1.5431,-1.5431,-1.5431,-1.5409,-1.5419,-1.528,-1.5447,-1.5757,-1.5969,-1.6167,-1.6446,-1.6802,-1.6941,-1.7088,-1.751,-1.7794,-1.793,-1.794,-1.7862,-1.7872,-1.0038,-1.0038,-1.0038,-1.0038,-1.0038,-1.0038,-1.0038,-1.0038,-1.0038,-1.0038,-1.0038,-1.0043,-1.0067,-1.0119,-1.013,-1.0281,-1.0112,-1.023,-1.0301,-1.0277,-1.022,-1.0234,-1.0211,-1.0187,-1.0112,-1.0064,-1.0167,-1.0416,-1.0785,-1.1347,-1.1949,-1.234,-1.3105,-1.3574,-1.3737,-1.4008,-1.4135,-1.4268,-1.4244,-1.4189,-1.4244,-1.4268,-1.4262,-1.4298,-1.4298,-1.4298,-1.4394,-1.458,-1.4432,-1.4216,-1.4248,-1.3975,-1.3578,-1.3485,-1.3401,-1.3404,-1.3483,-1.3568,-1.3568,-1.3652,-1.3737,-1.3828,-1.3913,-1.3997,-1.4004,-1.4004,-1.4004,-1.4004,-1.4004,-1.4088,-1.4088,-1.4088,-1.4088,-1.4088,-1.4088,-1.4088,-1.4088,-1.4088,-1.4088,-1.4088,-1.4088,-1.4088,-1.4088,-1.4166,-1.4159,-1.4237,-1.4321,-1.4405,-1.4573,-1.4643,-1.481,-1.4992,-1.5166,-1.5347,-1.5431,-1.5431,-1.5514,-1.5516,-1.5539,-1.5568,-1.566,-1.6204,-1.6685,-1.6847,-1.7079,-1.7217,-1.7432,-1.7647,-1.7862,-1.8008,-1.8008,-1.8008,-1.8008,-1.794,-1.794,-1.0038,-1.0038,-1.0038,-1.0038,-1.0038,-1.0038,-1.0038,-1.0038,-1.0038,-1.0038,-1.0038,-1.0038,-1.0038,-1.0038,-1.0171,-1.019,-1.0071,-1.0157,-1.02,-1.0074,-1.0138,-1.0143,-1.0114,-1.01,-1.0086,-1.0038,-1.0207,-1.0492,-1.0921,-1.15,-1.2051,-1.2575,-1.3189,-1.3586,-1.3773,-1.3918,-1.4123,-1.4286,-1.4298,-1.4298,-1.4298,-1.4298,-1.4298,-1.4298,-1.4394,-1.4394,-1.4586,-1.4783,-1.4899,-1.4641,-1.4546,-1.4248,-1.3964,-1.3796,-1.3716,-1.3698,-1.3743,-1.3737,-1.3906,-1.3906,-1.3997,-1.4186,-1.4179,-1.4179,-1.4088,-1.4088,-1.4088,-1.4088,-1.4088,-1.4088,-1.4088,-1.4088,-1.4088,-1.4088,-1.4088,-1.4088,-1.4088,-1.4088,-1.4088,-1.4088,-1.4088,-1.4088,-1.4088,-1.4088,-1.4159,-1.4314,-1.4398,-1.4734,-1.4901,-1.5137,-1.5228,-1.5235,-1.5401,-1.5423,-1.5431,-1.5514,-1.559,-1.5651,-1.5784,-1.6221,-1.6742,-1.7234,-1.7716,-1.7536,-1.7569,-1.7716,-1.794,-1.8008,-1.8008,-1.8008,-1.8008,-1.8008,-1.8008,-1.8008,-1.8008,-1.0038,-1.0038,-1.0038,-1.0038,-1.0038,-1.0038,-1.0038,-1.0038,-1.0038,-1.0038,-1.0038,-1.0038,-1.0038,-1.0038,-1.0038,-1.0038,-1.0047,-1.0081,-1.0067,-1.0062,-1.0052,-1.0067,-1.0062,-1.0043,-1.0038,-1.012,-1.0381,-1.0809,-1.1241,-1.1716,-1.2181,-1.2739,-1.3115,-1.3483,-1.3652,-1.3936,-1.4226,-1.428,-1.4298,-1.4298,-1.4298,-1.4298,-1.4298,-1.44,-1.4592,-1.4688,-1.4879,-1.507,-1.5261,-1.5152,-1.4891,-1.4643,-1.4378,-1.4219,-1.4362,-1.4321,-1.4108,-1.4264,-1.4496,-1.4489,-1.4608,-1.4551,-1.446,-1.4487,-1.4585,-1.4572,-1.4572,-1.4389,-1.4389,-1.4088,-1.4088,-1.4088,-1.4088,-1.4088,-1.4088,-1.4088,-1.4088,-1.4088,-1.4088,-1.4088,-1.4088,-1.4088,-1.4173,-1.4173,-1.4405,-1.4475,-1.4803,-1.5061,-1.5387,-1.5764,-1.5996,-1.5756,-1.5681,-1.5628,-1.5575,-1.5748,-1.5989,-1.6472,-1.6806,-1.7234,-1.7667,-1.7931,-1.7992,-1.7939,-1.8008,-1.8008,-1.8008,-1.8008,-1.8008,-1.8008,-1.8008,-1.8008,-1.8008,-1.8008,-1.8008,-1.0038,-1.0038,-1.0038,-1.0038,-1.0038,-1.0038,-1.0038,-1.0038,-1.0038,-1.0038,-1.0038,-1.0038,-1.0038,-1.0038,-1.0038,-1.0038,-1.0038,-1.0038,-1.0038,-1.0038,-1.0038,-1.0038,-1.0038,-1.0038,-1.0038,-1.0207,-1.0467,-1.0895,-1.1408,-1.1837,-1.2272,-1.2741,-1.3006,-1.3314,-1.3556,-1.3845,-1.4093,-1.4183,-1.4286,-1.4394,-1.4298,-1.4394,-1.449,-1.4592,-1.4694,-1.479,-1.507,-1.535,-1.5445,-1.5367,-1.5384,-1.5147,-1.5006,-1.4803,-1.4932,-1.5205,-1.4972,-1.5141,-1.5387,-1.5471,-1.5606,-1.6109,-1.6239,-1.6445,-1.643,-1.6369,-1.6169,-1.5425,-1.5113,-1.4284,-1.4173,-1.4088,-1.4088,-1.4088,-1.4088,-1.4088,-1.4088,-1.4088,-1.4088,-1.4173,-1.4173,-1.425,-1.4334,-1.4664,-1.5387,-1.5621,-1.6198,-1.6453,-1.678,-1.6814,-1.6782,-1.6545,-1.6308,-1.6234,-1.6273,-1.6296,-1.6527,-1.7179,-1.7652,-1.7982,-1.8248,-1.8275,-1.8308,-1.8056,-1.8018,-1.8008,-1.8008,-1.8008,-1.8008,-1.8008,-1.8008,-1.8008,-1.8008,-1.8008,-1.8008]},{"header":{"parameterUnit":"m.s-1","parameterCategory":1,"la1":31.0,"la2":29.5877,"lo1":-88.7671,"lo2":-86.6584,"dy":0.0162,"dx":0.0185,"nx":115,"ny":88,"refTime":"2023-09-06T06:00:00:Z","depth":0,"parameterNumber":3,"parameterNumberName":"V-component_of_WINDS"},"data":[0.0,0.0,0.0,0.0,0.0,0.0,0.0,0.0,0.0,0.0,0.0,0.0,0.0,0.0,0.0,0.0,0.0,0.0,0.0,0.0,0.0,0.0,0.0,0.0,0.0,0.0,0.0,0.0,0.0,0.0,0.0,0.0,0.0,0.0,0.0,0.0,0.0,0.0,0.0,0.0,0.0,0.0,0.0,0.0,0.0,0.0,0.0,0.0,0.0,0.0,0.0,0.0,0.0,0.0,0.0,0.0,0.0,0.0,0.0,0.0,0.0,0.0,0.0,0.0,0.0,0.0,0.0,0.0,0.0,0.0,0.0,0.0,0.0,0.0,0.0,0.0,0.0,0.0,0.0,0.0,0.0,0.0,0.0,0.0,0.0,0.0,0.0,0.0,0.0,0.0,0.0,0.0,0.0,0.0,0.0,0.0,0.0,0.0,0.0,0.0,0.0,0.0,0.0,0.0,0.0,0.0,0.0,0.0,0.0,0.0,0.0,0.0,0.0,0.0,0.0,0.0,0.0,0.0,0.0,0.0,0.0,0.0,0.0,0.0,0.0,0.0,0.0,0.0,0.0,0.0,0.0,0.0,0.0,0.0,0.0,0.0,0.0,0.0,0.0,0.0,0.0,0.0,0.0,0.0,0.0,0.0,0.0,0.0,0.0,0.0,0.0,0.0,0.0,0.0,0.0,0.0,0.0,0.0,0.0,0.0,0.0,0.0,0.0,0.0,0.0,0.0,0.0,0.0,0.0,0.0,0.0,0.0,0.0,0.0,0.0,0.0,0.0,0.0,0.0,0.0,0.0,0.0,0.0,0.0,0.0,0.0,0.0,0.0,0.0,0.0,0.0,0.0,0.0,0.0,0.0,0.0,0.0,0.0,0.0,0.0,0.0,0.0,0.0,0.0,0.0,0.0,0.0,0.0,0.0,0.0,0.0,0.0,0.0,0.0,0.0,0.0,0.0,0.0,0.0,0.0,0.0,0.0,0.0,0.0,0.0,0.0,0.0,0.0,0.0,0.0,0.0,0.0,0.0,0.0,0.0,0.0,0.0,0.0,0.0,0.0,0.0,0.0,0.0,0.0,0.0,0.0,0.0,0.0,0.0,0.0,0.0,0.0,0.0,0.0,0.0,0.0,0.0,0.0,0.0,0.0,0.0,0.0,0.0,0.0,0.0,0.0,0.0,0.0,0.0,0.0,0.0,0.0,0.0,0.0,0.0,0.0,0.0,0.0,0.0,0.0,0.0,0.0,0.0,0.0,0.0,0.0,0.0,0.0,0.0,0.0,0.0,0.0,0.0,0.0,0.0,0.0,0.0,0.0,0.0,0.0,0.0,0.0,0.0,0.0,0.0,0.0,0.0,0.0,0.0,0.0,0.0,0.0,0.0,0.0,0.0,0.0,0.0,0.0,0.0,0.0,0.0,0.0,0.0,0.0,0.0,0.0,0.0,0.0,0.0,0.0,0.0,0.0,0.0,0.0,0.0,0.0,0.0,0.0,0.0,0.0,0.0,0.0,0.0,0.0,0.0,0.0,0.0,0.0,0.0,0.0,0.0,0.0,0.0,0.0,0.0,0.0,0.0,0.0,0.0,0.0,0.0,0.0,0.0,0.0,0.0,0.0,0.0,0.0,0.0,0.0,0.0,0.0,0.0,0.0,0.0,0.0,0.0,0.0,0.0,0.0,0.0,0.0,0.0,0.0,0.0,0.0,0.0,0.0,0.0,0.0,0.0,0.0,0.0,0.0,0.0,0.0,0.0,0.0,0.0,0.0,0.0,0.0,0.0,0.0,0.0,0.0,0.0,0.0,0.0,0.0,0.0,0.0,0.0,0.0,0.0,0.0,0.0,0.0,0.0,0.0,0.0,0.0,0.0,0.0,0.0,0.0,0.0,0.0,0.0,0.0,0.0,0.0,0.0,0.0,0.0,0.0,0.0,0.0,0.0,0.0,0.0,0.0,0.0,0.0,0.0,0.0,0.0,0.0,0.0,0.0,0.0,0.0,0.0,0.0,0.0,0.0,0.0,0.0,0.0,0.0,0.0,0.0,0.0,0.0,0.0,0.0,0.0,0.0,0.0,0.0,0.0,0.0,0.0,0.0,0.0,0.0,0.0,0.0,0.0,0.0,0.0,0.0,0.0,0.0,0.0,0.0,0.0,0.0,0.0,0.0,0.0,0.0,0.0,0.0,0.0,0.0,0.0,0.0,0.0,0.0,0.0,0.0,0.0,0.0,0.0,0.0,0.0,0.0,0.0,0.0,0.0,0.0,0.0,0.0,0.0,0.0,0.0,0.0,0.0,0.0,0.0,0.0,0.0,0.0,0.0,0.0,0.0,0.0,0.0,0.0,0.0,0.0,0.0,0.0,0.0,0.0,0.0,0.0,0.0,0.0,0.0,0.0,0.0,0.0,0.0,0.0,0.0,0.0,0.0,0.0,0.0,0.0,0.0,0.0,0.0,0.0,0.0,0.0,0.0,0.0,0.0,0.0,0.0,0.0,0.0,0.0,0.0,0.0,0.0,0.0,0.0,0.0,0.0,0.0,0.0,0.0,0.0,0.0,0.0,0.0,0.0,0.0,0.0,0.0,0.0,0.0,0.0,0.0,0.0,0.0,0.0,0.0,0.0,0.0,0.0,0.0,0.0,0.0,0.0,0.0,0.0,0.0,0.0,0.0,0.0,0.0,0.0,0.0,0.0,0.0,0.0,0.0,0.0,0.0,0.0,0.0,0.0,0.0,0.0,0.0,0.0,0.0,0.0,0.0,0.0,0.0,0.0,0.0,0.0,0.0,0.0,0.0,0.0,0.0,0.0,0.0,0.0,0.0,0.0,0.0,0.0,0.0,0.0,0.0,0.0,0.0,0.0,0.0,0.0,0.0,0.0,0.0,0.0,0.0,0.0,0.0,0.0,0.0,0.0,0.0,0.0,0.0,0.0,0.0,0.0,0.0,0.0,0.0,0.0,0.0,0.0,0.0,0.0,0.0,0.0,0.0,0.0,0.0,0.0,0.0,0.0,0.0,0.0,0.0,0.0,0.0,0.0,0.0,0.0,0.0,0.0,0.0,0.0,0.0,0.0,0.0,0.0,0.0,0.0,0.0,0.0,0.0,0.0,0.0,0.0,0.0,0.0,0.0,0.0,0.0,0.0,0.0,0.0,0.0,0.0,0.0,0.0,0.0,0.0,0.0,0.0,0.0,0.0,0.0,0.0,0.0,0.0,0.0,0.0,0.0,0.0,0.0,0.0,0.0,0.0,0.0,0.0,0.0,0.0,0.0,0.0,0.0,0.0,0.0,0.0,0.0,0.0,0.0,0.0,0.0,0.0,0.0,0.0,0.0,0.0,0.0,0.0,0.0,0.0,0.0,0.0,0.0,0.0,0.0,0.0,0.0,0.0,0.0,0.0,0.0,0.0,0.0,0.0,0.0,0.0,0.0,0.0,0.0,0.0,0.0,0.0,0.0,0.0,0.0,0.0,0.0,0.0,0.0,0.0,0.0,0.0,0.0,0.0,0.0,0.0,0.0,0.0,0.0,0.0,0.0,0.0,0.0,0.0,0.0,0.0,0.0,0.0,0.0,0.0,0.0,0.0,0.0,0.0,0.0,0.0,0.0,0.0,0.0,0.0,0.0,0.0,0.0,0.0,0.0,0.0,0.0,0.0,0.0,0.0,0.0,0.0,0.0,0.0,0.0,0.0,0.0,0.0,0.0,0.0,0.0,0.0,0.0,0.0,0.0,0.0,0.0,0.0,0.0,0.0,0.0,0.0,0.0,0.0,0.0,0.0,0.0,0.0,0.0,0.0,0.0,0.0,0.0,0.0,0.0,0.0,0.0,0.0,0.0,0.0,0.0,0.0,0.0,0.0,0.0,0.0,0.0,0.0,0.0,0.0,0.0,0.0,0.0,0.0,0.0,0.0,0.0,0.0,0.0,0.0,0.0,0.0,0.0,0.0,0.0,0.0,0.0,0.0,0.0,0.0,0.0,0.0,0.0,0.0,0.0,0.0,0.0,0.0,0.0,0.0,0.0,0.0,0.0,0.0,0.0,0.0,0.0,0.0,0.0,0.0,0.0,0.0,0.0,0.0,0.0,0.0,0.0,0.0,0.0,0.0,0.0,0.0,0.0,0.0,0.0,0.0,0.0,0.0,0.0,0.0,0.0,0.0,0.0,0.0,0.0,0.0,0.0,0.0,0.0,0.0,0.0,0.0,0.0,0.0,0.0,0.0,0.0,0.0,0.0,0.0,0.0,0.0,0.0,0.0,0.0,0.0,0.0,0.4712,0.0,0.0,0.0,0.0,0.0,0.0,0.0,0.0,0.0,0.0,0.0,0.0,0.0,0.0,0.0,0.0,0.0,0.0,0.0,0.0,0.0,0.0,0.0,0.0,0.0,0.0,0.0,0.0,0.0,0.0,0.0,0.0,0.0,0.0,0.0,0.0,0.0,0.0,0.0,0.0,0.0,0.0,0.0,0.0,0.0,0.0,0.0,0.0,0.0,0.0,0.0,0.0,0.0,0.0,0.0,0.0,0.0,0.0,0.0,0.0,0.0,0.0,0.0,0.0,0.0,0.0,0.0,0.0,0.0,0.0,0.0,0.0,0.0,0.0,0.0,0.0,0.0,0.0,0.0,0.0,0.0,0.0,0.0,0.0,0.0,0.0,0.0,0.0,0.0,0.0,0.0,0.0,0.0,0.0,0.0,0.0,0.0,0.0,0.0,0.0,0.0,0.0,0.0,0.0,0.0,0.0,0.0,0.0,0.0,0.0,0.457,0.4132,0.4144,0.4228,0.4295,0.0,0.0,0.0,0.0,0.0,0.0,0.0,0.0,0.0,0.0,0.0,0.0,0.0,0.0,0.0,0.0,0.0,0.0,0.0,0.0,0.0,0.0,0.0,0.0,0.0,0.0,0.0,0.0,0.0,0.0,0.0,0.0,0.0,0.0,0.0,0.0,0.0,0.0,0.0,0.0,0.0,0.0,0.0,0.0,0.0,0.0,0.0,0.0,0.0,0.0,0.0,0.0,0.0,0.0,0.0,0.0,0.0,0.0,0.0,0.0,0.0,0.0,0.0,0.0,0.0,0.0,0.0,0.0,0.0,0.0,0.0,0.0,0.0,0.0,0.0,0.0,0.0,0.0,0.0,0.0,0.0,0.0,0.0,0.0,0.0,0.0,0.0,0.0,0.0,0.0,0.0,0.0,0.0,0.0,0.0,0.0,0.0,0.0,0.0,0.0,0.0,0.0,0.0,0.0,0.0,0.0,0.0,0.0,0.0,0.0,0.0,0.0,0.4196,0.4168,0.4117,0.0,0.0,0.0,0.0,0.0,0.0,0.0,0.0,0.0,0.0,0.0,0.0,0.0,0.0,0.0,0.0,0.0,0.0,0.0,0.0,0.0,0.0,0.0,0.0,0.0,0.0,0.0,0.0,0.0,0.0,0.0,0.0,0.0,0.0,0.0,0.0,0.0,0.0,0.0,0.0,0.0,0.0,0.0,0.0,0.0,0.0,0.0,0.0,0.0,0.0,0.0,0.0,0.0,0.0,0.0,0.0,0.0,0.0,0.0,0.0,0.0,0.0,0.0,0.0,0.0,0.0,0.0,0.0,0.0,0.0,0.0,0.0,0.0,0.0,0.0,0.0,0.0,0.0,0.0,0.0,0.0,0.0,0.0,0.0,0.0,0.0,0.0,0.0,0.0,0.0,0.0,0.0,0.0,0.0,0.0,0.0,0.0,0.0,0.0,0.0,0.0,0.0,0.0,0.0,0.0,0.0,0.0,0.0,0.0,0.0,0.5236,0.4401,0.4428,0.0,0.469,0.0,0.0,0.0,0.0,0.0,0.0,0.0,0.0,0.0,0.0,0.0,0.0,0.0,0.0,0.0,0.0,0.0,0.0,0.0,0.0,0.0,0.0,0.0,0.0,0.0,0.0,0.0,0.0,0.0,0.0,0.0,0.0,0.0,0.0,0.0,0.0,0.0,0.0,0.0,0.0,0.0,0.0,0.0,0.0,0.0,0.0,0.0,0.0,0.0,0.0,0.0,0.0,0.0,0.0,0.0,0.0,0.0,0.0,0.0,0.0,0.0,0.0,0.0,0.0,0.0,0.0,0.0,0.0,0.0,0.0,0.0,0.0,0.0,0.0,0.0,0.0,0.0,0.0,0.0,0.0,0.0,0.0,0.0,0.0,0.0,0.0,0.0,0.0,0.0,0.0,0.0,0.0,0.0,0.0,0.0,0.0,0.0,0.0,0.0,0.0,0.0,0.0,0.0,0.0,0.0,0.0,0.0,0.0,0.0,0.0,0.4927,0.4196,0.4107,0.43,0.0,0.0,0.0,0.0,0.0,0.0,0.0,0.0,0.0,0.0,0.0,0.0,0.0,0.0,0.0,0.0,0.0,0.0,0.0,0.0,0.0,0.0,0.0,0.0,0.0,0.0,0.0,0.0,0.0,0.0,0.0,0.0,0.0,0.0,0.0,0.0,0.0,0.0,0.0,0.0,0.0,0.0,0.0,0.0,0.0,0.0,0.0,0.0,0.0,0.0,0.0,0.0,0.0,0.0,0.0,0.0,0.0,0.0,0.0,0.0,0.0,0.0,0.0,0.0,0.0,0.0,0.0,0.0,0.0,0.0,0.0,0.0,0.0,0.0,0.0,0.0,0.0,0.0,0.0,0.0,0.0,0.0,0.0,0.0,0.0,0.0,0.0,0.0,0.0,0.0,0.0,0.0,0.0,0.0,0.0,0.0,0.0,0.0,0.0,0.0,0.0,0.0,0.0,0.0,0.0,0.0,0.0,0.0,0.0,0.0,0.5295,0.4808,0.4142,0.3906,0.4057,0.4572,0.0,0.0,0.0,0.0,0.0,0.0,0.0,0.0,0.0,0.0,0.0,0.0,0.0,0.0,0.0,0.0,0.0,0.0,0.0,0.0,0.0,0.0,0.0,0.0,0.0,0.0,0.0,0.0,0.0,0.0,0.0,0.0,0.0,0.0,0.0,0.0,0.0,0.0,0.0,0.0,0.0,0.0,0.0,0.0,0.0,0.0,0.0,0.0,0.0,0.0,0.0,0.0,0.0,0.0,0.0,0.0,0.0,0.0,0.0,0.0,0.0,0.0,0.0,0.0,0.0,0.0,0.0,0.0,0.0,0.0,0.0,0.0,0.0,0.0,0.0,0.0,0.0,0.0,0.0,0.0,0.0,0.0,0.0,0.0,0.0,0.0,0.0,0.0,0.0,0.0,0.0,0.0,0.0,0.0,0.0,0.0,0.0,0.0,0.0,0.0,0.0,0.0,0.0,0.0,0.0,0.0,0.0,0.0,0.56,0.5504,0.5119,0.436,0.4068,0.4047,0.0,0.0,0.0,0.0,0.0,0.0,0.0,0.0,0.0,0.0,0.0,0.0,0.0,0.0,0.0,0.0,0.0,0.0,0.0,0.0,0.0,0.0,0.0,0.0,0.0,0.0,0.0,0.0,0.0,0.0,0.0,0.0,0.0,0.0,0.0,0.0,0.0,0.0,0.0,0.0,0.0,0.0,0.0,0.0,0.0,0.0,0.0,0.0,0.0,0.0,0.0,0.0,0.0,0.0,0.0,0.0,0.0,0.0,0.0,0.0,0.0,0.0,0.0,0.0,0.0,0.0,0.0,0.0,0.0,0.0,0.0,0.0,0.0,0.0,0.0,0.0,0.0,0.0,0.0,0.0,0.0,0.0,0.0,0.0,0.0,0.0,0.0,0.0,0.0,0.0,0.0,0.0,0.0,0.0,0.0,0.0,0.0,0.0,0.0,0.0,0.0,0.0,0.0,0.0,0.0,0.0,0.0,0.0,0.0,0.5486,0.477,0.4098,0.3497,0.3681,0.3847,0.0,0.0,0.0,0.0,0.0,0.0,0.0,0.0,0.0,0.0,0.0,0.0,0.0,0.0,0.0,0.0,0.0,0.0,0.0,0.0,0.0,0.0,0.0,0.0,0.0,0.0,0.0,0.0,0.0,0.0,0.0,0.0,0.0,0.0,0.0,0.0,0.0,0.0,0.0,0.0,0.0,0.0,0.0,0.0,0.0,0.0,0.0,0.0,0.0,0.0,0.0,0.0,0.0,0.0,0.0,0.0,0.0,0.0,0.0,0.0,0.0,0.0,0.0,0.0,0.0,0.0,0.0,0.0,0.0,0.0,0.0,0.0,0.0,0.0,0.0,0.0,0.0,0.0,0.0,0.0,0.0,0.0,0.0,0.0,0.0,0.0,0.0,0.0,0.0,0.0,0.0,0.0,0.0,0.0,0.0,0.0,0.0,0.0,0.0,0.0,0.0,0.0,0.0,0.0,0.0,0.0,0.0,0.0,0.0,0.5144,0.0,0.3229,0.302,0.3308,0.3534,0.0,0.0,0.0,0.0,0.0,0.0,0.0,0.0,0.0,0.0,0.0,0.0,0.0,0.0,0.0,0.0,0.0,0.0,0.0,0.0,0.0,0.0,0.0,0.0,0.0,0.0,0.0,0.0,0.0,0.0,0.0,0.0,0.0,0.0,0.0,0.0,0.0,0.0,0.0,0.0,0.0,0.0,0.0,0.0,0.0,0.0,0.0,0.0,0.0,0.0,0.0,0.0,0.0,0.0,0.0,0.0,0.0,0.0,0.0,0.0,0.0,0.0,0.0,0.0,0.0,0.0,0.0,0.0,0.0,0.0,0.0,0.0,0.0,0.0,0.0,0.0,0.0,0.0,0.0,0.0,0.0,0.0,0.0,0.0,0.0,0.0,0.0,0.0,0.0,0.0,0.0,0.0,0.0,0.0,0.0,0.0,0.0,0.0,0.0,0.0,0.0,0.0,0.0,0.0,0.0,0.0,0.0,0.0,0.6003,0.4528,0.3126,0.263,0.3043,0.2976,0.3132,0.0,0.0,0.0,0.0,0.0,0.0,0.0,0.0,0.0,0.0,0.0,0.0,0.0,0.0,0.0,0.0,0.0,0.0,0.0,0.0,0.0,0.0,0.0,0.0,0.0,0.0,0.0,0.0,0.0,0.0,0.0,0.0,0.0,0.0,0.0,0.0,0.0,0.0,0.0,0.0,0.0,0.0,0.0,0.0,0.0,0.0,0.0,0.0,0.0,0.0,0.0,0.0,0.0,0.0,0.0,0.0,0.0,0.0,0.0,0.0,0.0,0.0,0.0,0.0,0.0,0.0,0.0,0.0,0.0,0.0,0.0,0.0,0.0,0.0,0.0,0.0,0.0,0.0,0.0,0.0,0.0,0.0,0.0,0.0,0.0,0.0,0.0,0.0,0.0,0.0,0.0,0.0,0.0,0.0,0.0,0.0,0.0,0.0,0.0,0.0,0.0,0.0,0.0,0.0,0.0,0.0,0.0,0.0,0.0,0.4304,0.266,0.1989,0.2454,0.276,0.2815,0.0,0.0,0.0,0.0,0.0,0.0,0.0,0.0,0.0,0.0,0.0,0.0,0.0,0.0,0.0,0.0,0.0,0.0,0.0,0.0,0.0,0.0,0.0,0.0,0.0,0.0,0.0,0.0,0.0,0.0,0.0,0.0,0.0,0.0,0.0,0.0,0.0,0.0,0.0,0.0,0.0,0.0,0.0,0.0,0.0,0.0,0.0,0.0,0.0,0.0,0.0,0.0,0.0,0.0,0.0,0.0,0.0,0.0,0.0,0.0,0.0,0.0,0.0,0.0,0.0,0.0,0.0,0.0,0.0,0.0,0.0,0.0,0.0,0.0,0.0,0.0,0.0,0.0,0.0,0.0,0.0,0.0,0.0,0.0,0.0,0.0,0.0,0.0,0.0,0.0,0.0,0.0,0.0,0.0,0.0,0.0,0.0,0.0,0.0,0.0,0.0,0.0,0.0,0.0,0.0,0.0,0.0,0.0,0.0,0.2816,0.1433,0.0892,0.1477,0.2069,0.2349,0.2284,0.0,0.0,0.0,0.0,0.0,0.0,0.0,0.0,0.0,0.0,0.0,0.0,0.0,0.0,0.0,0.0,0.0,0.0,0.0,0.0,0.0,0.0,0.0,0.0,0.0,0.0,0.0,0.0,0.0,0.0,0.0,0.0,0.0,0.0,0.0,0.0,0.0,0.0,0.0,0.0,0.0,0.0,0.0,0.0,0.0,0.0,0.0,0.0,0.0,0.0,0.0,0.0,0.0,0.0,0.0,0.0,0.0,0.0,0.0,0.0,0.0,0.0,0.0,0.0,0.0,0.0,0.0,0.0,0.0,0.0,0.0,0.0,0.0,0.0,0.0,0.0,0.0,0.0,0.0,0.0,0.0,0.0,0.0,0.0,0.0,0.0,0.0,0.0,0.0,0.0,0.0,0.0,0.0,0.0,0.0,0.0,0.0,0.0,0.0,0.0,0.0,0.0,0.0,0.0,0.0,0.0,0.0,0.0,0.0568,-0.0411,-0.0494,0.0316,0.1109,0.1738,0.0,0.0,0.0,0.0,0.0,0.0,0.0,0.0,0.0,0.0,0.0,0.0,0.0,0.0,0.0,0.0,0.0,0.0,0.0,0.0,0.0,0.0,0.0,0.0,0.0,0.0,0.0,0.0,0.0,0.0,0.0,0.0,0.0,0.0,0.0,0.0,0.0,0.0,0.0,0.0,0.0,0.0,0.0,0.0,0.0,0.0,0.0,0.0,0.0,0.0,0.0,0.0,0.0,0.0,0.0,0.0,0.0,0.0,0.0,0.0,0.0,0.0,0.0,0.0,0.0,0.0,0.0,0.0,0.0,0.0,0.0,0.0,0.0,0.0,0.0,0.0,0.0,0.0,0.0,0.0,0.0,0.0,0.0,0.0,0.0,0.0,0.0,0.0,0.0,0.0,0.0,0.0,0.0,0.0,0.0,0.0,0.0,0.0,0.0,0.0,0.0,0.0,0.0,0.0,0.0,0.0,0.0,0.0,0.0,-0.0395,-0.147,-0.1306,0.0238,0.1071,0.1596,0.0,0.0,0.0,0.0,0.0,0.0,0.0,0.0,0.0,0.0,0.0,0.0,0.0,0.0,0.0,0.0,0.0,0.0,0.0,0.0,0.0,0.0,0.0,0.0,0.0,0.0,0.0,0.0,0.0,0.0,0.0,0.0,0.0,0.0,0.0,0.0,0.0,0.0,0.0,0.0,0.0,0.0,0.0,0.0,0.0,0.0,0.0,0.0,0.0,0.0,0.0,0.0,0.0,0.0,0.0,0.0,0.0,0.0,0.0,0.0,0.0,0.0,0.0,0.0,0.0,0.0,0.0,0.0,0.0,0.0,0.0,0.0,0.0,0.0,0.0,0.0,0.0,0.0,0.0,0.0,0.0,0.0,0.0,0.0,0.0,0.0,0.0,0.0,0.0,0.0,0.0,0.0,0.0,0.0,0.0,0.0,0.0,0.0,0.0,0.0,0.0,0.0,0.0,0.0,0.0,0.0,0.0,0.0,-0.1041,-0.2052,-0.2909,-0.2686,-0.1376,-0.0285,0.0599,0.0,0.0,0.0,0.0,0.0,0.0,0.0,0.0,0.0,0.0,0.0,0.0,0.0,0.0,0.0,0.0,0.0,0.0,0.0,0.0,0.0,0.0,0.0,0.0,0.0,0.0,0.0,0.0,0.0,0.0,0.0,0.0,0.0,0.0,0.0,0.0,0.0,0.0,0.0,0.0,0.0,0.0,0.0,0.0,0.0,0.0,0.0,0.0,0.0,0.0,0.0,0.0,0.0,0.0,0.0,0.0,0.0,0.0,0.0,0.0,0.0,0.0,0.0,0.0,0.0,0.0,0.0,0.0,0.0,0.0,0.0,0.0,0.0,0.0,0.0,0.0,0.0,0.0,0.0,0.0,0.0,0.0,0.0,0.0,0.0,0.0,0.0,0.0,0.0,0.0,0.0,0.0,0.0,0.0,0.0,0.0,0.0,0.0,0.0,0.0,0.0,0.0,0.0,0.0,0.0,0.0,0.0,0.0,-0.2522,-0.4055,-0.4492,-0.4348,-0.3683,-0.2181,-0.0908,0.0,0.0,0.0,0.0,0.0,0.0,0.0,0.0,0.0,0.0,0.0,0.0,0.0,0.0,0.0,0.0,0.0,0.0,0.0,0.0,0.0,0.0,0.0,0.0,0.0,0.0,0.0,0.0,0.0,0.0,0.0,0.0,0.0,0.0,0.0,0.0,0.0,0.0,0.0,0.0,0.0,0.0,0.0,0.0,0.0,0.0,0.0,0.0,0.0,0.0,0.0,0.0,0.0,0.0,0.0,0.0,0.0,0.0,0.0,0.0,0.0,0.0,0.0,0.0,0.0,0.0,0.0,0.0,0.0,0.0,0.0,0.0,0.0,0.0,0.0,0.0,0.0,0.0,0.0,0.0,0.0,0.0,0.0,0.0,0.0,0.0,0.0,0.0,0.0,0.0,0.0,0.0,0.0,0.0,0.0,0.0,0.0,0.0,0.0,0.0,0.0,0.0,0.0,0.0,0.0,0.0,0.0,0.0,-0.4122,-0.4628,-0.54,-0.5292,-0.4188,-0.284,-0.1714,0.0,0.0,0.0,0.0,0.0,0.0,0.0,0.0,0.0,0.0,0.0,0.0,0.0,0.0,0.0,0.0,0.0,0.0,0.0,0.0,0.0,0.0,0.0,0.0,0.0,0.0,0.0,0.0,0.0,0.0,0.0,0.0,0.0,0.0,0.0,0.0,0.0,0.0,0.0,0.0,0.0,0.0,0.0,0.0,0.0,0.0,0.0,0.0,-2.2368,0.0,0.0,0.0,0.0,0.0,0.0,0.0,0.0,0.0,0.0,0.0,0.0,0.0,0.0,0.0,0.0,0.0,0.0,0.0,0.0,0.0,0.0,0.0,0.0,0.0,0.0,0.0,0.0,0.0,0.0,0.0,0.0,0.0,0.0,0.0,0.0,0.0,0.0,0.0,0.0,0.0,0.0,0.0,0.0,0.0,0.0,0.0,0.0,0.0,0.0,0.0,0.0,0.0,0.0,0.0,0.0,0.0,0.0,0.0,-0.6363,-0.6459,-0.6907,-0.6951,-0.6417,-0.5509,-0.4081,0.0,0.0,0.0,0.0,0.0,0.0,0.0,0.0,0.0,0.0,0.0,0.0,0.0,0.0,0.0,0.0,0.0,0.0,0.0,0.0,0.0,0.0,0.0,0.0,0.0,0.0,0.0,0.0,0.0,0.0,0.0,0.0,0.0,0.0,0.0,0.0,0.0,0.0,0.0,0.0,0.0,0.0,0.0,0.0,0.0,0.0,0.0,0.0,0.0,0.0,0.0,0.0,0.0,0.0,0.0,0.0,0.0,0.0,0.0,0.0,0.0,0.0,0.0,0.0,0.0,0.0,0.0,0.0,0.0,0.0,0.0,0.0,0.0,0.0,0.0,0.0,0.0,0.0,0.0,0.0,0.0,0.0,0.0,0.0,0.0,0.0,0.0,0.0,0.0,0.0,0.0,0.0,0.0,0.0,0.0,0.0,0.0,0.0,0.0,0.0,0.0,0.0,0.0,0.0,0.0,0.0,0.0,-0.7636,-0.854,-0.8518,-0.8635,-0.8786,-0.8936,-0.85,-0.6983,-0.432,0.0,0.0,0.0,0.0,0.0,0.0,0.0,0.0,0.0,0.0,0.0,0.0,0.0,0.0,0.0,0.0,0.0,0.0,0.0,0.0,0.0,0.0,0.0,0.0,0.0,0.0,0.0,0.0,0.0,0.0,0.0,0.0,0.0,0.0,0.0,0.0,0.0,0.0,-1.9704,-2.088,0.0,0.0,0.0,0.0,0.0,0.0,0.0,0.0,-2.3157,0.0,0.0,0.0,0.0,0.0,0.0,0.0,0.0,0.0,0.0,0.0,0.0,0.0,0.0,0.0,0.0,0.0,0.0,0.0,0.0,0.0,0.0,0.0,0.0,0.0,0.0,0.0,0.0,0.0,0.0,0.0,0.0,0.0,0.0,0.0,0.0,0.0,0.0,0.0,0.0,0.0,0.0,0.0,0.0,0.0,0.0,0.0,0.0,0.0,0.0,0.0,0.0,0.0,0.0,0.0,0.0,-0.7979,-0.8685,-0.9244,-0.9587,-1.0211,-1.0211,-0.9501,-0.9821,-0.9262,-0.7713,0.0,0.0,0.0,0.0,0.0,0.0,0.0,0.0,0.0,0.0,0.0,0.0,0.0,0.0,0.0,0.0,0.0,0.0,0.0,0.0,0.0,0.0,0.0,0.0,0.0,0.0,0.0,0.0,0.0,0.0,0.0,0.0,0.0,0.0,0.0,0.0,0.0,0.0,0.0,-2.1446,-2.2197,0.0,0.0,0.0,0.0,0.0,0.0,0.0,0.0,-2.341,0.0,0.0,0.0,0.0,0.0,0.0,0.0,0.0,0.0,0.0,0.0,0.0,0.0,0.0,0.0,0.0,0.0,0.0,0.0,0.0,0.0,0.0,0.0,0.0,0.0,0.0,0.0,0.0,0.0,0.0,0.0,0.0,0.0,0.0,0.0,0.0,0.0,0.0,0.0,0.0,0.0,0.0,0.0,0.0,0.0,0.0,0.0,0.0,0.0,0.0,0.0,0.0,0.0,0.0,0.0,-0.8749,-1.0134,-1.1167,-1.1822,-1.1832,-1.1724,-1.1575,-1.1468,-1.0876,0.0,0.0,0.0,0.0,0.0,0.0,0.0,0.0,0.0,0.0,0.0,0.0,0.0,0.0,0.0,0.0,0.0,0.0,0.0,0.0,0.0,0.0,0.0,0.0,0.0,0.0,0.0,0.0,0.0,0.0,0.0,0.0,0.0,0.0,0.0,0.0,0.0,0.0,0.0,0.0,-2.2219,-2.2703,-2.3242,0.0,0.0,0.0,0.0,0.0,0.0,-2.3674,-2.3649,0.0,0.0,0.0,0.0,0.0,0.0,0.0,0.0,0.0,0.0,0.0,0.0,0.0,0.0,0.0,0.0,0.0,0.0,0.0,0.0,0.0,0.0,0.0,0.0,0.0,0.0,0.0,0.0,0.0,0.0,0.0,0.0,0.0,0.0,0.0,0.0,0.0,0.0,0.0,0.0,0.0,0.0,0.0,0.0,0.0,0.0,0.0,0.0,0.0,0.0,0.0,0.0,0.0,0.0,0.0,-0.9659,-1.1541,-1.3092,-1.4158,-1.3493,-1.3327,-1.3771,-1.3058,-1.2307,0.0,0.0,0.0,0.0,0.0,0.0,0.0,0.0,0.0,0.0,0.0,0.0,0.0,0.0,0.0,0.0,0.0,0.0,0.0,0.0,0.0,0.0,0.0,0.0,0.0,0.0,0.0,0.0,0.0,0.0,0.0,0.0,0.0,0.0,0.0,0.0,0.0,0.0,0.0,0.0,0.0,-2.3189,-2.3437,-2.3707,0.0,0.0,0.0,0.0,-2.384,-2.3899,0.0,0.0,0.0,0.0,0.0,0.0,0.0,0.0,0.0,0.0,0.0,0.0,0.0,0.0,0.0,0.0,0.0,0.0,0.0,0.0,0.0,0.0,0.0,0.0,0.0,0.0,0.0,0.0,0.0,0.0,0.0,0.0,0.0,0.0,0.0,0.0,0.0,0.0,0.0,0.0,0.0,0.0,0.0,0.0,0.0,0.0,0.0,0.0,0.0,0.0,0.0,0.0,0.0,0.0,0.0,0.0,-1.1619,-1.28,-1.4165,-1.5627,-1.5029,-1.4803,-1.5125,-1.4392,-1.3748,0.0,0.0,0.0,0.0,0.0,0.0,0.0,0.0,0.0,0.0,0.0,0.0,0.0,0.0,0.0,0.0,0.0,0.0,0.0,0.0,0.0,0.0,0.0,0.0,0.0,0.0,0.0,0.0,0.0,0.0,0.0,0.0,0.0,0.0,0.0,0.0,0.0,0.0,0.0,0.0,0.0,-2.3437,-2.3414,-2.3824,-2.4078,0.0,0.0,-2.4133,-2.4151,-2.4248,0.0,0.0,0.0,0.0,0.0,0.0,0.0,0.0,0.0,0.0,0.0,0.0,0.0,0.0,0.0,0.0,0.0,0.0,0.0,0.0,0.0,0.0,0.0,0.0,0.0,0.0,0.0,0.0,0.0,0.0,0.0,0.0,0.0,0.0,0.0,0.0,0.0,0.0,0.0,0.0,0.0,0.0,0.0,0.0,0.0,0.0,0.0,0.0,0.0,0.0,0.0,0.0,0.0,0.0,0.0,-1.2768,-1.3789,-1.5438,-1.6821,-1.7726,-1.6786,-1.6341,-1.6465,-1.561,-1.4947,0.0,0.0,0.0,0.0,0.0,0.0,0.0,0.0,0.0,0.0,0.0,0.0,0.0,0.0,0.0,0.0,0.0,0.0,0.0,0.0,0.0,0.0,0.0,0.0,0.0,0.0,0.0,0.0,0.0,0.0,0.0,0.0,0.0,0.0,0.0,0.0,0.0,0.0,0.0,0.0,0.0,0.0,-2.3773,-2.4151,0.0,0.0,0.0,-2.4266,-2.4464,0.0,0.0,0.0,0.0,0.0,0.0,0.0,0.0,0.0,0.0,0.0,0.0,0.0,0.0,0.0,0.0,0.0,0.0,0.0,0.0,0.0,0.0,0.0,0.0,0.0,0.0,0.0,0.0,0.0,0.0,0.0,0.0,0.0,0.0,0.0,0.0,0.0,0.0,0.0,0.0,0.0,0.0,0.0,0.0,0.0,0.0,0.0,0.0,0.0,0.0,0.0,0.0,0.0,0.0,0.0,0.0,0.0,-1.5645,-1.7768,-1.914,-1.9577,-1.8407,-1.779,-1.7868,-1.7068,0.0,0.0,0.0,0.0,0.0,0.0,0.0,0.0,0.0,0.0,0.0,0.0,0.0,0.0,0.0,0.0,0.0,0.0,0.0,0.0,0.0,0.0,0.0,0.0,0.0,0.0,0.0,-2.0437,0.0,0.0,0.0,0.0,0.0,0.0,0.0,0.0,0.0,0.0,0.0,0.0,0.0,0.0,-2.3309,-2.4135,-2.443,-2.4625,0.0,0.0,-2.4437,-2.4689,-2.4673,-2.4654,0.0,0.0,0.0,0.0,0.0,0.0,0.0,0.0,0.0,0.0,0.0,0.0,0.0,0.0,0.0,0.0,0.0,0.0,0.0,0.0,0.0,0.0,0.0,0.0,0.0,0.0,0.0,0.0,0.0,0.0,0.0,0.0,0.0,0.0,0.0,0.0,0.0,0.0,0.0,0.0,0.0,0.0,0.0,0.0,0.0,0.0,0.0,0.0,0.0,0.0,0.0,0.0,0.0,0.0,0.0,-1.71,-1.8936,-2.0225,-2.0799,-1.9653,-1.9121,-1.9419,-1.8983,-1.8545,0.0,0.0,0.0,0.0,0.0,0.0,0.0,0.0,0.0,0.0,0.0,0.0,0.0,0.0,0.0,0.0,0.0,0.0,0.0,0.0,0.0,0.0,0.0,0.0,0.0,0.0,0.0,0.0,0.0,0.0,0.0,0.0,0.0,0.0,0.0,0.0,0.0,0.0,0.0,0.0,0.0,-2.4153,-2.4362,-2.4622,-2.479,0.0,0.0,-2.477,-2.4795,-2.4888,-2.4929,-2.4818,0.0,0.0,0.0,0.0,0.0,0.0,0.0,0.0,0.0,0.0,0.0,0.0,0.0,0.0,0.0,0.0,0.0,0.0,0.0,0.0,0.0,0.0,0.0,0.0,0.0,0.0,0.0,0.0,0.0,0.0,0.0,0.0,0.0,0.0,0.0,0.0,0.0,0.0,0.0,0.0,0.0,0.0,0.0,0.0,0.0,0.0,0.0,0.0,0.0,0.0,0.0,0.0,0.0,-1.8703,-1.8889,-2.0759,-2.1864,-2.2073,-2.1189,-2.0764,-2.0881,-2.039,-2.0079,0.0,0.0,0.0,0.0,0.0,0.0,0.0,0.0,0.0,0.0,0.0,0.0,0.0,0.0,0.0,0.0,0.0,0.0,0.0,0.0,0.0,0.0,0.0,0.0,0.0,0.0,0.0,0.0,-2.2322,-2.2601,-2.2972,0.0,0.0,0.0,0.0,0.0,0.0,0.0,0.0,0.0,0.0,-2.3982,-2.453,-2.4784,0.0,0.0,-2.5286,-2.5058,-2.5748,-2.5818,-2.5818,-2.5893,-2.6393,0.0,0.0,0.0,0.0,0.0,0.0,0.0,0.0,0.0,0.0,0.0,0.0,0.0,0.0,0.0,0.0,0.0,0.0,0.0,0.0,0.0,0.0,0.0,0.0,0.0,0.0,0.0,0.0,0.0,0.0,0.0,0.0,0.0,0.0,0.0,0.0,0.0,0.0,0.0,0.0,0.0,0.0,0.0,0.0,0.0,0.0,0.0,0.0,0.0,0.0,0.0,0.0,-2.0339,-2.0258,-2.2022,-2.2905,-2.2905,-2.2265,-2.1937,-2.199,-2.1708,-2.1556,0.0,0.0,0.0,0.0,0.0,0.0,0.0,0.0,0.0,0.0,0.0,0.0,0.0,0.0,0.0,0.0,0.0,0.0,0.0,0.0,0.0,0.0,0.0,0.0,0.0,0.0,0.0,0.0,-2.3093,-2.3323,-2.3437,0.0,0.0,0.0,0.0,0.0,0.0,0.0,0.0,0.0,0.0,-2.4302,-2.5139,-2.5335,-2.5773,-2.6757,-2.6192,-2.5904,-2.6703,-2.6776,-2.6837,-2.6965,0.0,0.0,0.0,0.0,0.0,0.0,0.0,0.0,0.0,0.0,0.0,0.0,0.0,0.0,0.0,0.0,0.0,0.0,0.0,0.0,0.0,0.0,0.0,0.0,0.0,0.0,0.0,0.0,0.0,0.0,-2.294,0.0,0.0,0.0,0.0,0.0,0.0,0.0,0.0,0.0,0.0,0.0,0.0,0.0,0.0,0.0,0.0,0.0,0.0,0.0,0.0,0.0,0.0,-2.1351,-2.1113,-2.2478,-2.3189,-2.3194,-2.2668,-2.2506,-2.2718,-2.2932,-2.3013,-2.2869,0.0,0.0,0.0,0.0,0.0,0.0,0.0,0.0,0.0,0.0,0.0,0.0,0.0,0.0,0.0,0.0,0.0,0.0,0.0,0.0,0.0,0.0,0.0,0.0,0.0,0.0,-2.3165,-2.3323,-2.3477,0.0,0.0,0.0,0.0,0.0,0.0,0.0,0.0,0.0,0.0,-2.4915,-2.5442,-2.64,-2.6477,-2.6677,-2.7485,-2.7541,-2.7546,-2.7587,-2.7758,-2.7865,0.0,0.0,0.0,0.0,0.0,0.0,0.0,0.0,0.0,0.0,0.0,0.0,0.0,0.0,0.0,0.0,0.0,0.0,0.0,0.0,0.0,0.0,0.0,0.0,0.0,0.0,0.0,-2.5406,-2.4832,0.0,0.0,0.0,0.0,0.0,0.0,0.0,0.0,0.0,0.0,0.0,-2.2994,-2.2929,0.0,0.0,0.0,0.0,0.0,0.0,0.0,0.0,0.0,0.0,0.0,0.0,-2.2367,-2.2412,-2.3276,-2.3798,-2.3923,-2.3745,-2.3731,-2.3878,-2.4072,-2.4211,-2.4279,0.0,0.0,0.0,0.0,0.0,0.0,0.0,0.0,0.0,0.0,0.0,0.0,0.0,0.0,0.0,0.0,0.0,0.0,0.0,0.0,0.0,0.0,0.0,0.0,0.0,-2.3504,0.0,0.0,0.0,0.0,0.0,0.0,0.0,0.0,0.0,0.0,0.0,-2.5971,-2.6611,-2.6387,-2.6487,-2.7422,-2.7451,-2.7699,0.0,0.0,0.0,0.0,0.0,0.0,0.0,0.0,0.0,0.0,0.0,0.0,0.0,0.0,-3.0796,-3.0703,-3.0696,-3.07,-3.07,0.0,0.0,0.0,0.0,0.0,0.0,0.0,0.0,0.0,0.0,0.0,0.0,0.0,0.0,-2.6716,0.0,-2.616,0.0,0.0,0.0,0.0,0.0,0.0,0.0,0.0,-2.4222,-2.4171,-2.3913,-2.3875,-2.3658,0.0,-2.3267,-2.2959,0.0,0.0,0.0,0.0,0.0,0.0,0.0,0.0,-2.3211,-2.333,-2.3945,-2.4302,-2.4445,-2.4444,-2.451,-2.467,-2.4814,-2.4949,-2.5097,-2.5102,-2.5107,0.0,0.0,0.0,0.0,0.0,0.0,0.0,0.0,0.0,0.0,0.0,0.0,0.0,0.0,0.0,0.0,0.0,0.0,0.0,0.0,0.0,0.0,0.0,-2.4965,0.0,0.0,0.0,0.0,0.0,0.0,0.0,0.0,0.0,-2.6349,-2.6631,-2.7166,-2.7738,-2.7431,-2.7468,-2.8338,0.0,0.0,0.0,0.0,0.0,0.0,0.0,-2.9323,-2.9641,-3.0144,-3.0568,-3.0621,-3.0671,-3.0704,-3.0723,0.0,0.0,-3.0739,-3.0735,-3.0736,-3.0736,-3.0311,-3.0117,-3.0625,-3.0311,-2.9913,0.0,0.0,0.0,0.0,0.0,0.0,0.0,0.0,-2.7711,-2.7663,0.0,-2.7618,0.0,0.0,0.0,0.0,0.0,-2.4813,0.0,0.0,-2.4983,-2.4991,-2.4983,-2.4859,-2.4767,-2.4682,-2.4481,-2.4338,-2.4192,-2.3574,0.0,0.0,0.0,0.0,0.0,0.0,-2.3911,-2.393,-2.4422,-2.4707,-2.4723,-2.4716,-2.479,-2.4991,-2.5134,-2.5225,-2.5299,-2.531,-2.5309,-2.5299,-2.5178,0.0,0.0,0.0,0.0,0.0,0.0,0.0,0.0,0.0,0.0,0.0,0.0,0.0,0.0,0.0,0.0,0.0,0.0,0.0,0.0,-2.6913,0.0,0.0,0.0,0.0,0.0,0.0,0.0,0.0,0.0,0.0,-2.7733,-2.7762,-2.7893,-2.8036,0.0,0.0,0.0,0.0,-2.9323,-3.01,-2.9501,-2.9254,-3.0061,-2.9743,-2.9622,-3.0443,0.0,0.0,-3.0697,-3.0704,-3.0726,-3.0798,-3.0801,-3.0797,-3.0784,-3.0793,-3.0799,-3.0799,-3.0754,-3.0788,-3.0786,-3.0693,-3.0631,-3.2027,0.0,0.0,0.0,0.0,-2.9512,-2.954,-2.9597,-2.9597,-2.9273,-2.881,-2.881,0.0,0.0,0.0,0.0,0.0,0.0,-2.646,-2.6051,-2.6663,-2.6893,-2.6757,-2.6716,-2.6631,-2.6528,-2.6427,-2.6376,-2.6338,-2.5573,-2.4596,-2.353,0.0,0.0,0.0,0.0,-2.4244,-2.44,-2.4601,-2.4775,-2.4934,-2.4915,-2.4981,-2.5137,-2.5274,-2.5367,-2.537,-2.5421,-2.5444,-2.5441,-2.5404,0.0,0.0,0.0,0.0,0.0,0.0,0.0,0.0,0.0,0.0,0.0,0.0,0.0,0.0,0.0,0.0,0.0,0.0,0.0,-2.6785,-2.7175,-2.7331,0.0,0.0,0.0,0.0,0.0,0.0,0.0,0.0,0.0,-2.9594,-2.9158,-2.8887,0.0,0.0,-2.9054,-2.927,-2.9782,-3.0219,-3.0472,-3.0268,0.0,-3.0453,-3.0345,-3.0305,-3.0546,-3.0637,-3.0695,-3.0765,-3.0774,-3.0781,-3.08,-3.079,-3.0794,-3.0788,-3.0785,-3.0788,-3.0785,-3.0747,-3.0726,-3.0721,-3.0703,-3.0704,-3.4352,-3.2493,-3.1797,-3.1477,-3.1394,-3.1427,-3.1468,-3.1523,-3.1211,-3.0789,-3.0307,-2.9958,-2.9349,-2.848,-2.8158,0.0,0.0,0.0,-2.7439,-2.7082,-2.7574,-2.7726,-2.7625,-2.7625,-2.7586,-2.7504,-2.7376,-2.7395,-2.7504,-2.6887,-2.6107,-2.5134,0.0,0.0,-2.4763,-2.4987,-2.5314,-2.5721,-2.5527,-2.5475,-2.5595,-2.5321,-2.5203,-2.5318,-2.538,-2.5448,-2.5471,-2.5506,-2.5696,-2.603,-2.6034,-2.6146,0.0,0.0,0.0,0.0,0.0,0.0,0.0,0.0,0.0,0.0,0.0,-2.6287,0.0,0.0,0.0,0.0,-2.7886,-2.8266,-2.8285,-2.8507,0.0,0.0,0.0,0.0,0.0,0.0,0.0,-2.949,-3.0094,-3.0482,-3.0463,-3.0111,-2.9846,-2.9812,-2.9857,-2.9865,-2.9818,0.0,-3.0602,-3.0602,-3.0338,-3.0222,-3.0552,-3.0323,-3.0243,-3.0594,-3.0685,-3.0743,-3.0798,-3.0799,-3.079,-3.0786,-3.0791,-3.079,-3.0763,-3.0769,-3.076,-3.0765,-3.0725,-3.0697,-3.0704,-3.0678,-3.0649,-3.6859,-3.5962,-3.4248,-3.3483,-3.3413,-3.3414,-3.3394,-3.3342,-3.2474,-3.2021,-3.1845,-3.1008,-3.0205,-2.9484,-2.8676,0.0,-2.8333,-2.8255,-2.8222,-2.8116,-2.8044,-2.8007,-2.8027,-2.8034,-2.8015,-2.8023,-2.7816,-2.7816,-2.7992,-2.774,-2.763,-2.7573,-2.5896,-2.5414,-2.6099,-2.6317,-2.6778,-2.7515,-2.6902,-2.6625,-2.6617,-2.5953,-2.5609,-2.5601,-2.5601,-2.5654,-2.5703,-2.5707,-2.6119,-2.6942,-2.6944,-2.725,-2.7956,0.0,0.0,0.0,0.0,0.0,0.0,0.0,0.0,0.0,0.0,0.0,0.0,0.0,0.0,0.0,-2.9771,0.0,-3.0367,-3.04,0.0,0.0,0.0,-3.0196,-3.0145,-3.0356,-3.0509,-3.0519,0.0,0.0,-3.0715,-3.0711,-3.068,-3.0626,-3.061,-3.0591,-3.0513,-3.0552,-3.061,-3.061,-3.0005,-2.98,-3.0486,-3.0082,-2.9892,-3.0582,-3.0761,-3.0798,-3.0795,-3.0799,-3.0801,-3.0794,-3.0786,-3.0769,-3.0706,-3.0709,-3.0703,-3.0695,-3.0684,-3.0704,-3.069,-3.0653,-3.0602,-3.9026,-3.8695,-3.6975,-3.5872,-3.521,-3.4567,-3.4321,-3.4222,-3.274,-3.2081,-3.1994,-3.1194,-3.1055,-3.1422,-3.1168,-3.1071,-3.1129,-3.0996,-3.0595,-2.9973,-2.9958,-2.9931,-2.9931,-2.9883,-2.9841,-2.9829,-2.9704,-2.9685,-2.974,-2.907,-2.8732,-2.866,-2.7692,-2.7158,-2.7143,-2.7338,-2.7527,-2.7735,-2.7633,-2.7623,-2.7713,-2.7537,-2.7161,-2.6497,-2.6544,-2.657,-2.66,-2.6628,-2.7043,-2.784,-2.7891,-2.7947,-2.8137,-2.7973,0.0,0.0,0.0,0.0,0.0,0.0,0.0,0.0,0.0,-2.8549,-2.832,0.0,-2.9756,0.0,-3.0337,-3.0443,-3.0266,-3.0329,0.0,0.0,-3.0271,-3.0302,-3.054,-3.1043,-3.1439,-3.1588,-3.1651,-3.1674,-3.167,-3.1093,-3.073,-3.0748,-3.0711,-3.0443,-2.9826,-3.028,-3.0676,-3.0644,-3.0502,-3.0458,-3.0619,-3.0524,-3.044,-3.0723,-3.0799,-3.0792,-3.0785,-3.0794,-3.0798,-3.073,-3.072,-3.0728,-3.0698,-3.0711,-3.0697,-3.063,-3.0622,-3.0634,-3.0626,-3.0604,-3.0616,-4.0331,-4.0259,-3.9316,-3.8433,-3.7512,-3.5885,-3.4998,-3.4597,-3.3262,-3.2452,-3.207,-3.1257,-3.1337,-3.2098,-3.2059,-3.2274,-3.2663,-3.2557,-3.2255,-3.1812,-3.1753,-3.1755,-3.1748,-3.1709,-3.1709,-3.1696,-3.1614,-3.1422,-3.1056,-3.0583,-3.016,-2.9775,-2.9336,-2.9033,-2.8867,-2.8587,-2.8802,-2.956,-2.8869,-2.8377,-2.8131,-2.8117,-2.7891,-2.7446,-2.7481,-2.7519,-2.7476,-2.7539,-2.7953,-2.8715,-2.8768,-2.8894,-2.9299,-2.9283,-2.9256,0.0,0.0,0.0,0.0,0.0,0.0,0.0,0.0,0.0,0.0,0.0,-3.0364,-3.0317,-3.051,-3.0557,-3.0309,-3.0791,-3.1109,-3.1109,-3.141,-3.1651,-3.1836,-3.2178,-3.2458,-3.2565,-3.2571,-3.2441,-3.2088,-3.1621,-3.1183,-3.086,-3.1081,-3.0978,-3.025,-3.0461,-3.075,-3.075,-3.0712,-3.0721,-3.0749,-3.074,-3.074,-3.0786,-3.0796,-3.0785,-3.0745,-3.076,-3.0725,-3.071,-3.0698,-3.0691,-3.0649,-3.0661,-3.0653,-3.0613,-3.0567,-3.0567,-3.0595,-3.0588,-3.0559,-4.1279,-4.1181,-4.1111,-4.0613,-3.9637,-3.7121,-3.5693,-3.4963,-3.3978,-3.3085,-3.2226,-3.1534,-3.1675,-3.2419,-3.2439,-3.2849,-3.3552,-3.3395,-3.3298,-3.3316,-3.3137,-3.3102,-3.3232,-3.3204,-3.3206,-3.3209,-3.3205,-3.2797,-3.2081,-3.2061,-3.1626,-3.0794,-3.0775,-3.0758,-3.0714,-2.9844,-3.0141,-3.1607,-3.0318,-2.9292,-2.863,-2.8612,-2.859,-2.8543,-2.8495,-2.8434,-2.8379,-2.8433,-2.8843,-2.9609,-2.9608,-2.9924,-3.0677,-3.0711,-3.0717,0.0,-3.0827,0.0,0.0,0.0,0.0,0.0,0.0,0.0,0.0,-3.0443,-3.0404,-3.0263,-3.0634,-3.0773,-3.0481,-3.1468,-3.2123,-3.2064,-3.2791,-3.3297,-3.3303,-3.3384,-3.3483,-3.3468,-3.3468,-3.3176,-3.258,-3.2346,-3.1948,-3.1426,-3.178,-3.1931,-3.1305,-3.1081,-3.0972,-3.0836,-3.0753,-3.0742,-3.0776,-3.0788,-3.0774,-3.0782,-3.0784,-3.0764,-3.0703,-3.0697,-3.0704,-3.0697,-3.0683,-3.0649,-3.0602,-3.0621,-3.0604,-3.0588,-3.054,-3.0511,-3.0569,-3.053,-3.0491,-4.2776,-4.2073,-4.1394,-4.0636,-3.9715,-3.7845,-3.6944,-3.669,-3.5125,-3.3953,-3.3166,-3.2992,-3.3411,-3.4179,-3.4199,-3.4297,-3.4414,-3.3711,-3.3379,-3.3359,-3.2634,-3.2702,-3.3347,-3.3302,-3.3287,-3.3283,-3.3243,-3.3128,-3.2946,-3.2946,-3.2499,-3.1656,-3.1647,-3.162,-3.1523,0.0,0.0,0.0,-3.1246,-3.1389,-3.1359,-3.134,-3.1014,-3.0332,-2.9683,0.0,-2.9335,-2.934,-2.9725,-3.0495,-3.0599,0.0,0.0,0.0,0.0,0.0,0.0,0.0,0.0,0.0,0.0,0.0,-3.2654,-3.2096,-3.0643,-3.0632,-3.0691,-3.0632,-3.1345,-3.1548,-3.0826,-3.2127,-3.28,-3.2196,-3.2825,-3.3298,-3.3336,-3.3926,-3.4365,-3.4358,-3.4339,-3.4293,-3.4057,-3.3533,-3.3027,-3.2851,-3.3025,-3.3065,-3.2871,-3.2167,-3.1519,-3.0894,-3.0762,-3.0788,-3.079,-3.0769,-3.0716,-3.0714,-3.071,-3.0711,-3.0704,-3.0704,-3.0671,-3.0626,-3.0618,-3.0621,-3.0606,-3.0607,-3.0578,-3.0511,-3.052,-3.0491,-3.052,-3.051,-3.049,-4.2558,0.0,-4.1294,-4.0631,0.0,-3.8944,-3.8082,-3.7165,-3.5452,-3.4209,-3.3393,-3.3393,-3.3885,-3.4707,-3.4707,-3.4922,-3.5312,-3.4883,-3.4453,-3.4023,-3.3594,-3.3632,-3.4039,-3.4002,-3.4218,-3.4629,-3.4617,-3.4368,-3.3978,-3.3939,-3.3495,-3.2647,-3.2192,-3.1975,-3.1934,-3.1558,-3.1106,-3.0664,-3.1123,-3.1387,-3.1456,-3.144,-3.1259,-3.0797,-3.0454,0.0,0.0,0.0,0.0,0.0,0.0,0.0,0.0,-3.142,0.0,-3.2051,-3.2474,-3.27,-3.27,-3.3073,-3.3289,-3.3289,-3.3291,-3.2901,-3.1949,-3.1968,-3.203,-3.2002,-3.2415,-3.251,-3.214,-3.3188,-3.3782,-3.3428,-3.4081,-3.4591,-3.463,-3.4986,-3.5284,-3.5289,-3.5291,-3.5155,-3.4706,-3.4295,-3.38,-3.3453,-3.3746,-3.3721,-3.2861,-3.2343,-3.1753,-3.0907,-3.0732,-3.0743,-3.075,-3.0716,-3.0698,-3.0698,-3.0704,-3.0683,-3.0668,-3.0642,-3.0645,-3.0604,-3.0586,-3.054,-3.054,-3.0569,-3.0559,-3.05,-3.049,-3.046,-3.0441,-3.0449,-3.0439,-4.25,-4.1574,-4.1577,-4.0994,-4.0116,-3.9953,-3.9012,-3.7409,0.0,0.0,0.0,-3.3945,-3.4258,-3.4922,-3.4921,-3.5234,-3.5761,-3.5781,-3.539,-3.4707,-3.4707,-3.4785,-3.4941,-3.4922,-3.5312,-3.5976,-3.6015,-3.5625,-3.4941,-3.4941,-3.4411,-3.3424,-3.2821,-3.2473,-3.2319,-3.2323,-3.1926,-3.112,-3.1182,-3.1242,-3.1222,-3.1096,-3.1031,-3.1028,-3.1079,-3.1094,-3.1036,-3.1231,-3.13,-3.125,-3.1249,-3.1581,-3.2265,-3.2281,-3.2595,-3.3338,-3.3495,-3.353,-3.3551,-3.3689,-3.3768,-3.3767,-3.3769,-3.3633,-3.3337,-3.3317,-3.33,-3.3294,-3.3434,-3.3483,-3.3346,-3.4272,-3.4764,-3.4628,-3.5371,-3.5878,-3.5877,-3.5932,-3.5909,-3.5964,-3.5903,-3.5706,-3.5034,-3.4898,-3.4635,-3.4053,-3.4457,-3.4243,-3.2655,-3.2002,-3.1527,-3.0916,-3.0739,-3.0697,-3.071,-3.0685,-3.0683,-3.0683,-3.0676,-3.0661,-3.0629,-3.0585,-3.0576,-3.0578,-3.055,-3.051,-3.0491,-3.05,-3.0479,-3.0479,-3.0458,-3.0398,-3.0386,-3.0406,-3.0406,-4.4797,-4.3336,-4.3337,-4.244,-4.0962,-4.022,-3.9328,-3.8298,-3.6582,-3.6172,-3.6699,-3.5957,-3.5703,-3.582,-3.5831,-3.5472,-3.4886,-3.4876,-3.4801,-3.4703,-3.4703,-3.5096,-3.5801,-3.5801,-3.5877,-3.6001,-3.6013,-3.5937,-3.5816,-3.5808,-3.5007,-3.3668,-3.3965,-3.3862,-3.3205,-3.3192,-3.3119,-3.2923,-3.2931,-3.2943,-3.2949,-3.2274,-3.1928,-3.1926,-3.193,-3.1934,-3.1934,-3.2636,-3.3046,-3.3031,-3.3034,-3.309,-3.3219,-3.3202,-3.3278,-3.3441,-3.4078,-3.4491,-3.4505,-3.5191,-3.5625,-3.5628,-3.5571,-3.4914,-3.3457,-3.3339,-3.3358,-3.334,-3.4062,-3.4196,-3.3591,-3.4841,-3.5424,-3.481,-3.5394,-3.5876,-3.5825,-3.5818,-3.5849,-3.5841,-3.5811,-3.5819,-3.5626,-3.5599,-3.5541,-3.5453,-3.5305,-3.496,-3.332,-3.1773,-3.0951,-3.075,-3.0704,-3.0697,-3.0794,-3.0668,-3.0696,-3.061,-3.0643,-3.0625,-3.0597,-3.0559,-3.0511,-3.0501,-3.05,-3.049,-3.049,-3.049,-3.0469,-3.0428,-3.0398,-3.0386,-3.0402,-3.039,-3.039,-4.4861,-4.3749,-4.3706,-4.2978,-4.1746,-4.0447,-3.9939,-3.9791,-3.8155,-3.7631,-3.7888,-3.7088,-3.6698,-3.6659,-3.6204,-3.5784,-3.5405,-3.5394,-3.5142,-3.4713,-3.4693,-3.491,-3.5267,-3.5309,-3.5543,-3.5986,-3.6007,-3.601,-3.601,-3.6018,-3.5586,-3.4832,-3.4722,-3.4198,-3.3437,-3.3847,-3.4079,-3.4039,-3.3594,-3.3359,-3.3359,-3.2988,-3.2793,-3.2812,-3.2803,-3.2792,-3.2812,-3.3197,-3.3389,-3.3389,-3.3386,-3.3617,-3.4062,-3.4121,-3.4312,-3.4776,-3.517,-3.5385,-3.542,-3.5732,-3.5942,-3.5942,-3.5929,-3.5583,-3.4771,-3.4742,-3.4752,-3.4782,-3.5146,-3.5191,-3.4811,-3.5483,-3.5758,-3.5313,-3.5624,-3.5833,-3.5801,-3.5801,-3.5807,-3.5806,-3.5799,-3.5791,-3.5799,-3.5791,-3.5782,-3.5726,-3.5408,-3.4709,-3.3971,-3.2809,-3.1646,-3.0955,-3.1064,-3.1321,-3.136,-3.1299,-3.1254,-3.1264,-3.0878,-3.0646,-3.0559,-3.052,-3.0491,-3.0481,-3.046,-3.0458,-3.0439,-3.0436,-3.0425,-3.0414,-3.0383,-3.039,-3.0348,-3.0348,-3.0348,-4.4778,-4.4,-4.3997,-4.3378,-4.2314,-4.1016,-4.0717,-4.0952,-3.9702,-3.9161,-3.9014,-3.8057,-3.761,-3.7532,-3.6866,-3.6491,-3.6306,-3.6284,-3.5835,-3.5054,-3.4995,-3.4976,-3.4995,-3.5007,-3.5343,-3.5948,-3.6018,-3.6018,-3.6005,-3.6018,-3.601,-3.5913,-3.5115,-3.4452,-3.4022,-3.4647,-3.4998,-3.494,-3.4332,-3.3902,-3.369,-3.3495,-3.3378,-3.3398,-3.3587,-3.3704,-3.3704,-3.3874,-3.3988,-3.3988,-3.3977,-3.4285,-3.4909,-3.4967,-3.526,-3.5899,-3.5981,-3.5981,-3.5962,-3.5934,-3.588,-3.5889,-3.5889,-3.5889,-3.5889,-3.589,-3.5916,-3.5971,-3.588,-3.5856,-3.5811,-3.5859,-3.585,-3.5791,-3.5782,-3.5782,-3.5784,-3.5784,-3.5784,-3.5784,-3.5765,-3.5784,-3.5765,-3.5765,-3.5747,-3.5611,-3.4961,-3.4448,-3.4381,-3.3684,-3.2551,-3.1812,-3.1781,-3.2124,-3.2182,-3.2135,-3.2106,-3.2077,-3.142,-3.1033,-3.0839,-3.0674,-3.0471,-3.0469,-3.0447,-3.0425,-3.0406,-3.0402,-3.039,-3.0379,-3.0379,-3.0367,-3.0323,-3.0311,-3.0304,-4.5668,-4.4931,-4.4881,-4.3899,-4.2497,-4.2201,-4.1713,-4.1147,-4.0912,-4.0857,-4.0623,-3.9195,-3.8495,-3.8475,-3.8358,-3.7867,-3.7165,-3.7165,-3.6696,-3.5913,-3.5874,-3.5874,-3.5854,-3.5876,-3.5935,-3.6013,-3.6013,-3.6013,-3.6016,-3.6013,-3.601,-3.5913,-3.5135,-3.5076,-3.5659,-3.5818,-3.5876,-3.5874,-3.5789,-3.538,-3.4569,-3.3799,-3.3386,-3.3425,-3.4179,-3.4585,-3.4605,-3.5342,-3.5752,-3.5771,-3.5713,-3.5728,-3.5778,-3.5773,-3.5807,-3.5894,-3.5904,-3.5909,-3.5909,-3.5899,-3.5889,-3.5889,-3.5889,-3.5889,-3.5883,-3.5885,-3.5898,-3.5905,-3.5898,-3.5859,-3.5815,-3.5807,-3.5782,-3.5737,-3.5718,-3.5718,-3.5716,-3.5706,-3.5706,-3.5725,-3.5716,-3.5706,-3.5716,-3.5716,-3.5706,-3.5687,-3.5076,-3.4543,-3.4476,-3.3896,-3.3325,-3.2987,-3.2996,-3.3015,-3.3015,-3.2977,-3.2975,-3.2916,-3.2259,-3.1785,-3.1521,-3.0998,-3.0417,-3.0687,-3.0414,-3.039,-3.039,-3.0398,-3.0379,-3.0316,-3.0304,-3.0292,-3.0305,-3.0279,-3.026,-4.6088,-4.5782,-4.5757,-4.507,-4.384,-4.2318,-4.1732,-4.183,-4.1303,-4.1108,-4.103,-4.0366,-3.98,-3.9292,-3.8824,-3.8141,-3.7321,-3.7301,-3.6833,-3.6049,-3.601,-3.601,-3.601,-3.601,-3.601,-3.601,-3.601,-3.601,-3.601,-3.601,-3.601,-3.5971,-3.5623,-3.5662,-3.5991,-3.6007,-3.6004,-3.6004,-3.6017,-3.5818,-3.549,-3.5135,-3.4936,-3.4975,-3.5287,-3.5479,-3.5498,-3.5782,-3.5938,-3.5934,-3.5948,-3.5924,-3.5899,-3.5899,-3.5894,-3.5889,-3.5894,-3.5899,-3.5899,-3.5894,-3.5883,-3.5885,-3.5885,-3.5892,-3.5852,-3.585,-3.5834,-3.5799,-3.5826,-3.5807,-3.5745,-3.5736,-3.5737,-3.5707,-3.5697,-3.5716,-3.5715,-3.5704,-3.5704,-3.5704,-3.5704,-3.5704,-3.5704,-3.5704,-3.5704,-3.5684,-3.5336,-3.5123,-3.5063,-3.4773,-3.4618,-3.4577,-3.4585,-3.4345,-3.397,-3.3793,-3.3801,-3.3674,-3.3095,-3.2524,-3.2366,-3.1758,-3.1176,-3.1145,-3.0698,-3.0417,-3.041,-3.0348,-3.0316,-3.0273,-3.015,-3.0114,-3.0266,-3.0123,-3.0011,-4.63,-4.63,-4.63,-4.5792,-4.4816,-4.2728,-4.2025,-4.224,-4.1459,-4.1108,-4.1108,-4.1108,-4.0756,-4.0132,-3.9527,-3.8824,-3.8063,-3.7985,-3.7399,-3.6462,-3.6362,-3.6245,-3.603,-3.601,-3.601,-3.601,-3.601,-3.601,-3.601,-3.6007,-3.6007,-3.6007,-3.6004,-3.6004,-3.6004,-3.602,-3.6017,-3.6013,-3.5986,-3.5981,-3.5962,-3.5977,-3.5977,-3.5962,-3.5977,-3.5977,-3.5958,-3.5929,-3.5885,-3.5885,-3.5894,-3.5889,-3.5889,-3.5889,-3.5883,-3.5897,-3.5897,-3.5891,-3.5885,-3.5885,-3.5872,-3.5872,-3.5864,-3.585,-3.5818,-3.5782,-3.5765,-3.5718,-3.5727,-3.5737,-3.5718,-3.5708,-3.5707,-3.5715,-3.5704,-3.5704,-3.5704,-3.5704,-3.5704,-3.5704,-3.5704,-3.5704,-3.5673,-3.5673,-3.5654,-3.5643,-3.5662,-3.5662,-3.562,-3.555,-3.555,-3.5623,-3.556,-3.5309,-3.4786,-3.467,-3.4653,-3.4448,-3.3909,-3.335,-3.3191,-3.2447,-3.1696,-3.1364,-3.0833,-3.0456,-3.0367,-3.0316,-3.0292,-3.0241,-3.0114,-3.0011,-3.0226,-2.9937,-2.9803,-4.63,-4.63,-4.63,-4.5773,-4.4933,-4.3938,-4.3118,-4.251,-4.1537,-4.1147,-4.1166,-4.1108,-4.1088,-4.0971,-4.0854,-4.0483,-3.9702,-3.9566,-3.8707,-3.734,-3.7243,-3.6813,-3.603,-3.601,-3.601,-3.603,-3.6108,-3.6105,-3.6079,-3.602,-3.6017,-3.6005,-3.6048,-3.6044,-3.6009,-3.6064,-3.6005,-3.6005,-3.5958,-3.589,-3.5909,-3.5899,-3.5899,-3.5909,-3.5899,-3.5914,-3.5894,-3.5908,-3.5889,-3.5889,-3.5889,-3.5889,-3.5889,-3.5889,-3.5891,-3.5885,-3.5885,-3.5864,-3.5815,-3.5807,-3.5807,-3.5799,-3.5818,-3.5799,-3.5782,-3.5747,-3.5728,-3.5708,-3.5707,-3.5706,-3.5695,-3.5695,-3.5715,-3.5704,-3.5704,-3.5704,-3.5704,-3.5704,-3.5704,-3.5704,-3.5684,-3.5673,-3.5631,-3.5612,-3.562,-3.5616,-3.5623,-3.5604,-3.5604,-3.5604,-3.5591,-3.5598,-3.556,-3.5515,-3.5502,-3.5328,-3.5354,-3.5188,-3.4616,-3.4141,-3.359,-3.3006,-3.2275,-3.1545,-3.0879,-3.0482,-3.0355,-3.0292,-3.0267,-3.0188,-3.0045,-3.0034,-3.0185,-2.9853,-2.9751,-4.63,-4.6241,-4.5695,-4.5578,-4.5695,-4.4309,-4.3817,-4.3907,-4.2529,-4.194,-4.1816,-4.1351,-4.1113,-4.1109,-4.1109,-4.061,-3.9839,-3.98,-3.9195,-3.8199,-3.8121,-3.7672,-3.6891,-3.6827,-3.6511,-3.6121,-3.6505,-3.6774,-3.6711,-3.6263,-3.6009,-3.6103,-3.6512,-3.6532,-3.6177,-3.6523,-3.6499,-3.5973,-3.5924,-3.5894,-3.5938,-3.5894,-3.5894,-3.5894,-3.5894,-3.5889,-3.5889,-3.5889,-3.5889,-3.5889,-3.5889,-3.5883,-3.5879,-3.5859,-3.5838,-3.5842,-3.5842,-3.5815,-3.5799,-3.5791,-3.5782,-3.5736,-3.5736,-3.5757,-3.5728,-3.5707,-3.5716,-3.5736,-3.5715,-3.5704,-3.5704,-3.5704,-3.5704,-3.5704,-3.5704,-3.5704,-3.5704,-3.5704,-3.5704,-3.5704,-3.5673,-3.5631,-3.5608,-3.5616,-3.5604,-3.5623,-3.5623,-3.5591,-3.5547,-3.5547,-3.5528,-3.5547,-3.552,-3.5507,-3.5515,-3.5528,-3.5495,-3.5438,-3.5155,-3.5001,-3.4603,-3.3378,-3.2513,-3.2,-3.1239,-3.0439,-3.0279,-3.0254,-3.0234,-3.018,-3.0034,-3.0003,-3.0157,-2.9803,-2.9734,-4.6273,-4.6175,-4.5625,-4.5722,-4.6054,-4.4708,-4.443,-4.4777,-4.3455,-4.267,-4.2329,-4.1768,-4.1374,-4.1135,-4.1115,-4.0808,-4.0258,-4.0219,-3.977,-3.9032,-3.8993,-3.8521,-3.7799,-3.7675,-3.7383,-3.6969,-3.7331,-3.7483,-3.7167,-3.664,-3.625,-3.6031,-3.6791,-3.6772,-3.6246,-3.6806,-3.6879,-3.6406,-3.6323,-3.6434,-3.6668,-3.6454,-3.6448,-3.6612,-3.6436,-3.6144,-3.5917,-3.5897,-3.6047,-3.6229,-3.6307,-3.6411,-3.6635,-3.6378,-3.6218,-3.6162,-3.5909,-3.5765,-3.5775,-3.5775,-3.5757,-3.5708,-3.5718,-3.5766,-3.6024,-3.6071,-3.6207,-3.6381,-3.6207,-3.6091,-3.6013,-3.5858,-3.5704,-3.5704,-3.5704,-3.5704,-3.5665,-3.5673,-3.5681,-3.5651,-3.5639,-3.5596,-3.5572,-3.556,-3.556,-3.5566,-3.5573,-3.5554,-3.5509,-3.5489,-3.5489,-3.5488,-3.5507,-3.5507,-3.5507,-3.552,-3.552,-3.5449,-3.5378,-3.5402,-3.4883,-3.3673,-3.2775,-3.2321,-3.1603,-3.0708,-3.026,-3.0221,-3.0213,-3.0185,-3.0049,-2.9937,-2.9905,-2.9732,-2.9662,-4.626,-4.6211,-4.6187,-4.6153,-4.6094,-4.5289,-4.4919,-4.486,-4.408,-4.33,-4.2768,-4.2442,-4.1974,-4.1306,-4.1247,-4.113,-4.0994,-4.0979,-4.0569,-3.9867,-3.9813,-3.936,-3.856,-3.8497,-3.8517,-3.8361,-3.8439,-3.8044,-3.7469,-3.7274,-3.684,-3.6264,-3.7005,-3.7044,-3.5986,-3.6863,-3.7253,-3.7169,-3.713,-3.75,-3.8266,-3.7572,-3.7501,-3.8038,-3.7486,-3.6786,-3.6054,-3.6034,-3.6428,-3.7,-3.7109,-3.7469,-3.7888,-3.7422,-3.7035,-3.6775,-3.6174,-3.5737,-3.5706,-3.5753,-3.5861,-3.5869,-3.58,-3.6276,-3.6806,-3.6922,-3.7193,-3.7657,-3.7328,-3.6884,-3.6709,-3.6226,-3.5781,-3.5704,-3.5704,-3.5665,-3.5615,-3.5623,-3.5608,-3.5584,-3.5591,-3.556,-3.5515,-3.5502,-3.5509,-3.5501,-3.552,-3.552,-3.5488,-3.5488,-3.5488,-3.5507,-3.5507,-3.5493,-3.5493,-3.5493,-3.5493,-3.5474,-3.5388,-3.5278,-3.4491,-3.3421,-3.2582,-3.2031,-3.1199,-3.0343,-3.024,-3.0213,-3.0199,-3.0176,-3.0019,-2.9905,-2.9839,-2.9716,-2.9514,-4.6231,-4.6206,-4.6206,-4.6206,-4.6187,-4.5913,-4.5791,-4.5688,-4.4894,-4.4382,-4.4052,-4.3493,-4.2752,-4.2078,-4.1941,-4.1629,-4.1123,-4.1103,-4.0939,-4.0701,-4.0682,-4.0213,-3.9531,-3.939,-3.9399,-3.9271,-3.8784,-3.8686,-3.8817,-3.8369,-3.7648,-3.7214,-3.8266,-3.8149,-3.6921,-3.7605,-3.804,-3.7955,-3.7428,-3.7529,-3.828,-3.8113,-3.8097,-3.8263,-3.805,-3.78,-3.7579,-3.7547,-3.7672,-3.7927,-3.7927,-3.8054,-3.8132,-3.7675,-3.7209,-3.6897,-3.6162,-3.5706,-3.5792,-3.6207,-3.6516,-3.6632,-3.7058,-3.7483,-3.7754,-3.7793,-3.7947,-3.8237,-3.7928,-3.7599,-3.7,-3.6706,-3.63,-3.5781,-3.5654,-3.567,-3.5678,-3.5635,-3.5591,-3.5547,-3.5528,-3.5522,-3.5515,-3.5482,-3.5501,-3.5488,-3.5507,-3.5507,-3.5507,-3.5507,-3.5507,-3.5507,-3.5493,-3.5479,-3.546,-3.5412,-3.5383,-3.5417,-3.5379,-3.4885,-3.4064,-3.336,-3.2522,-3.1588,-3.0757,-3.0327,-3.0237,-3.019,-3.0176,-3.0128,-2.9988,-2.9924,-2.9891,-2.9717,-2.9474,-4.6195,-4.6209,-4.6209,-4.6209,-4.6209,-4.6209,-4.6203,-4.6138,-4.5637,-4.5202,-4.4819,-4.4338,-4.3617,-4.2903,-4.2779,-4.2318,-4.1617,-4.1539,-4.137,-4.1134,-4.112,-4.0788,-4.0301,-4.029,-4.0285,-4.0214,-3.9747,-3.9571,-3.9766,-3.924,-3.8539,-3.809,-3.9123,-3.9078,-3.7858,-3.8461,-3.8867,-3.8755,-3.8341,-3.8441,-3.9023,-3.8937,-3.8927,-3.9151,-3.8928,-3.8927,-3.9176,-3.9217,-3.9083,-3.8889,-3.9034,-3.9237,-3.9204,-3.8891,-3.8423,-3.7773,-3.6884,-3.6284,-3.6593,-3.6806,-3.7077,-3.7406,-3.7909,-3.8353,-3.8566,-3.8682,-3.876,-3.9108,-3.8856,-3.8334,-3.7595,-3.7371,-3.7003,-3.6211,-3.6091,-3.604,-3.6016,-3.5746,-3.5579,-3.5528,-3.5509,-3.5495,-3.5488,-3.5507,-3.5507,-3.5507,-3.5507,-3.5507,-3.5507,-3.5507,-3.5507,-3.5493,-3.5484,-3.5451,-3.5417,-3.5335,-3.527,-3.5304,-3.5339,-3.4553,-3.3671,-3.3164,-3.2445,-3.1298,-3.0366,-3.02,-3.0113,-3.0083,-3.0053,-2.9988,-2.9888,-2.9751,-2.9644,-2.957,-2.9375,-4.6216,-4.6196,-4.6196,-4.6203,-4.6203,-4.6203,-4.6203,-4.6196,-4.6164,-4.5715,-4.5124,-4.5014,-4.4481,-4.3819,-4.3663,-4.3156,-4.2409,-4.2202,-4.1851,-4.1403,-4.1266,-4.1247,-4.1364,-4.111,-4.0994,-4.113,-4.0994,-4.0584,-4.0039,-3.9896,-3.9429,-3.8766,-3.9422,-3.9429,-3.8758,-3.9295,-3.9621,-3.9645,-3.9529,-3.984,-4.0616,-4.0073,-3.9937,-4.0574,-3.9982,-3.9901,-4.0428,-4.0525,-4.028,-3.9797,-4.0254,-4.0544,-4.0706,-4.0738,-3.9983,-3.9212,-3.7839,-3.7479,-3.7762,-3.7595,-3.7549,-3.8199,-3.8489,-3.8663,-3.9437,-3.9572,-3.9804,-4.0384,-3.9959,-3.9212,-3.8472,-3.8234,-3.7836,-3.7141,-3.6813,-3.6685,-3.6697,-3.6001,-3.5578,-3.5507,-3.5488,-3.5507,-3.5507,-3.5507,-3.5507,-3.5507,-3.5507,-3.5507,-3.5493,-3.5493,-3.5493,-3.5479,-3.5436,-3.5407,-3.5354,-3.5324,-3.5239,-3.5223,-3.5203,-3.4518,-3.3483,-3.2879,-3.2325,-3.1178,-3.0266,-3.011,-3.0003,-2.9956,-2.9872,-2.9751,-2.9644,-2.9494,-2.9415,-2.9355,-2.9495,-4.6203,-4.6196,-4.6196,-4.6196,-4.6196,-4.6196,-4.6196,-4.6196,-4.6196,-4.604,-4.5864,-4.5864,-4.5358,-4.4618,-4.454,-4.376,-4.2701,-4.237,-4.2241,-4.202,-4.1987,-4.2396,-4.2533,-4.1675,-4.1442,-4.1805,-4.1416,-4.0974,-4.0753,-4.0636,-4.0213,-3.9454,-4.0124,-4.0166,-3.9498,-3.9558,-3.9956,-4.0305,-3.9816,-3.9979,-4.0657,-4.0637,-4.0587,-4.0711,-4.0544,-4.0544,-4.079,-4.079,-4.0732,-4.052,-4.0636,-4.079,-4.0732,-4.0094,-3.9631,-3.9295,-3.8433,-3.7816,-3.8105,-3.8414,-3.8801,-3.9166,-3.963,-4.021,-4.0384,-4.0442,-4.0578,-4.0752,-4.0488,-3.9998,-3.9258,-3.8987,-3.8791,-3.857,-3.766,-3.6914,-3.6675,-3.6026,-3.5507,-3.5507,-3.5507,-3.5507,-3.5507,-3.5507,-3.5507,-3.5507,-3.5474,-3.5474,-3.5479,-3.5427,-3.5393,-3.5398,-3.5388,-3.5339,-3.5308,-3.5277,-3.5226,-3.5174,-3.5026,-3.4674,-3.3568,-3.2597,-3.2,-3.1192,-3.0395,-3.005,-2.9916,-2.9822,-2.9681,-2.9551,-2.9435,-2.9314,-2.931,-2.9283,-2.9636,-4.6196,-4.6196,-4.6196,-4.6196,-4.6196,-4.6196,-4.6196,-4.6196,-4.6196,-4.6196,-4.6196,-4.6196,-4.5923,-4.5455,-4.5416,-4.4689,-4.3467,-4.3342,-4.316,-4.2805,-4.2805,-4.3066,-4.3206,-4.2461,-4.222,-4.2171,-4.1816,-4.1408,-4.1062,-4.098,-4.066,-4.036,-4.0673,-4.0607,-4.015,-4.013,-4.0311,-4.0637,-4.0293,-4.0339,-4.0752,-4.079,-4.079,-4.079,-4.079,-4.079,-4.079,-4.079,-4.079,-4.079,-4.079,-4.0778,-4.0629,-4.0088,-3.9687,-3.97,-3.8999,-3.8681,-3.9003,-3.932,-3.9586,-4.0004,-4.0578,-4.0732,-4.0771,-4.079,-4.079,-4.0746,-4.0713,-4.0243,-3.9565,-3.9331,-3.9461,-3.9561,-3.8618,-3.7709,-3.7315,-3.6238,-3.5603,-3.5507,-3.5507,-3.5507,-3.5507,-3.5507,-3.5507,-3.5474,-3.5383,-3.5417,-3.5432,-3.536,-3.5311,-3.535,-3.5324,-3.5277,-3.5141,-3.507,-3.5,-3.4982,-3.4832,-3.451,-3.3696,-3.2542,-3.1858,-3.1254,-3.0546,-2.9983,-2.9777,-2.9589,-2.9435,-2.9314,-2.9228,-2.9333,-2.9377,-2.947,-2.9816,-4.6154,-4.6154,-4.6181,-4.6189,-4.6162,-4.6215,-4.6189,-4.6181,-4.6162,-4.6154,-4.6119,-4.6127,-4.6052,-4.6162,-4.5899,-4.5557,-4.4666,-4.4453,-4.4132,-4.3771,-4.3712,-4.3938,-4.3918,-4.3494,-4.2991,-4.2528,-4.2371,-4.1702,-4.112,-4.0907,-4.0898,-4.0801,-4.0849,-4.0868,-4.0671,-4.0718,-4.0792,-4.0796,-4.0725,-4.0674,-4.079,-4.079,-4.079,-4.079,-4.079,-4.079,-4.079,-4.079,-4.079,-4.079,-4.079,-4.07,-4.054,-4.0472,-4.0373,-4.0178,-3.9711,-3.9642,-4.0183,-3.9868,-3.9915,-4.0546,-4.0732,-4.079,-4.079,-4.0778,-4.0746,-4.0681,-4.0687,-4.0298,-3.9774,-3.9499,-3.9773,-4.0085,-3.9642,-3.8911,-3.8084,-3.6738,-3.5762,-3.5724,-3.5757,-3.5628,-3.5608,-3.5532,-3.5493,-3.535,-3.5304,-3.5335,-3.5335,-3.5281,-3.5281,-3.532,-3.5277,-3.5231,-3.5037,-3.4851,-3.4773,-3.4713,-3.4591,-3.4298,-3.3746,-3.2791,-3.1952,-3.1257,-3.0669,-3.0049,-2.947,-2.9314,-2.9243,-2.9119,-2.9093,-2.9435,-2.9732,-2.9834,-3.0081,-4.5796,-4.5808,-4.5958,-4.6037,-4.6066,-4.6146,-4.6138,-4.6037,-4.6056,-4.5947,-4.582,-4.5751,-4.5828,-4.5944,-4.5796,-4.5299,-4.4691,-4.455,-4.4269,-4.4288,-4.5022,-4.5235,-4.4938,-4.4167,-4.3481,-4.3092,-4.252,-4.1791,-4.1131,-4.0907,-4.0828,-4.0828,-4.0834,-4.0808,-4.0808,-4.0808,-4.0815,-4.0803,-4.079,-4.079,-4.079,-4.079,-4.079,-4.079,-4.079,-4.079,-4.079,-4.079,-4.079,-4.079,-4.079,-4.0681,-4.0526,-4.0496,-4.0431,-4.0279,-4.0096,-4.0091,-4.0354,-4.0288,-4.0284,-4.0655,-4.0733,-4.0759,-4.0733,-4.0687,-4.0668,-4.0621,-4.0612,-4.0419,-4.0177,-4.0215,-4.0277,-4.0296,-3.9854,-3.9296,-3.8911,-3.8065,-3.7392,-3.7219,-3.6743,-3.6416,-3.6358,-3.5696,-3.5479,-3.5293,-3.5223,-3.5239,-3.52,-3.5165,-3.5168,-3.519,-3.5089,-3.4982,-3.4889,-3.4674,-3.4526,-3.4416,-3.4302,-3.4213,-3.3634,-3.3226,-3.2501,-3.1678,-3.0887,-3.0268,-2.9728,-2.9289,-2.9273,-2.9131,-2.9072,-2.9494,-2.9843,-3.0063,-3.0742,-4.577,-4.5717,-4.5822,-4.5914,-4.5997,-4.5968,-4.5988,-4.5966,-4.5859,-4.5757,-4.567,-4.5592,-4.566,-4.5761,-4.565,-4.5345,-4.5044,-4.4867,-4.4836,-4.493,-4.5382,-4.5536,-4.5533,-4.4887,-4.4363,-4.3955,-4.3186,-4.2313,-4.1563,-4.1017,-4.0812,-4.08,-4.0803,-4.0803,-4.079,-4.079,-4.079,-4.079,-4.079,-4.079,-4.079,-4.079,-4.079,-4.079,-4.079,-4.079,-4.079,-4.079,-4.079,-4.079,-4.079,-4.0668,-4.0481,-4.0446,-4.0399,-4.023,-4.0283,-4.0283,-4.0383,-4.0399,-4.0396,-4.0466,-4.0466,-4.0415,-4.0348,-4.0312,-4.0364,-4.0367,-4.0336,-4.0267,-4.0356,-4.0454,-4.0489,-4.0431,-4.0142,-3.9873,-3.9662,-3.8777,-3.8007,-3.782,-3.7068,-3.6673,-3.6312,-3.5787,-3.5327,-3.5057,-3.4963,-3.4981,-3.4997,-3.4961,-3.4981,-3.4963,-3.4812,-3.4733,-3.4653,-3.4486,-3.4255,-3.4136,-3.4012,-3.3979,-3.3744,-3.3437,-3.3142,-3.2305,-3.1444,-3.083,-3.0304,-2.9848,-2.9402,-2.9219,-2.9274,-2.9641,-3.021,-3.098,-3.1806,-4.5777,-4.563,-4.5641,-4.5764,-4.5859,-4.5744,-4.5744,-4.5835,-4.5655,-4.553,-4.5533,-4.5519,-4.5468,-4.5539,-4.5468,-4.5453,-4.5361,-4.5304,-4.5148,-4.5187,-4.5285,-4.5381,-4.5362,-4.5316,-4.5128,-4.4655,-4.3724,-4.2814,-4.1938,-4.1255,-4.0822,-4.0803,-4.079,-4.079,-4.079,-4.079,-4.079,-4.079,-4.079,-4.079,-4.079,-4.079,-4.079,-4.079,-4.079,-4.079,-4.079,-4.079,-4.079,-4.079,-4.079,-4.0626,-4.0434,-4.0383,-4.0403,-4.0139,-4.0229,-4.0247,-4.0264,-4.0279,-4.0226,-4.0081,-4.0081,-4.0024,-3.9966,-3.9966,-4.0043,-4.0063,-4.0043,-3.9983,-4.0139,-4.0321,-4.0389,-4.037,-4.0406,-4.0441,-4.0156,-3.9065,-3.8514,-3.8082,-3.7455,-3.6856,-3.6307,-3.5778,-3.5268,-3.4866,-3.479,-3.4694,-3.4715,-3.4794,-3.4832,-3.4733,-3.4609,-3.4394,-3.4307,-3.4284,-3.4055,-3.3979,-3.3842,-3.3815,-3.3807,-3.3658,-3.3368,-3.2831,-3.2125,-3.1519,-3.0968,-3.0558,-3.0099,-2.9567,-2.9696,-3.0265,-3.1072,-3.1971,-3.2533,-4.54,-4.538,-4.5417,-4.5468,-4.5503,-4.5568,-4.5536,-4.5433,-4.5359,-4.5265,-4.518,-4.5115,-4.5123,-4.5184,-4.5052,-4.5023,-4.5026,-4.5042,-4.5019,-4.5042,-4.5132,-4.5216,-4.5258,-4.5361,-4.5323,-4.4953,-4.4021,-4.2943,-4.2073,-4.1235,-4.0894,-4.0829,-4.079,-4.079,-4.079,-4.079,-4.079,-4.079,-4.079,-4.079,-4.079,-4.079,-4.079,-4.079,-4.079,-4.081,-4.081,-4.081,-4.079,-4.079,-4.079,-4.0612,-4.0386,-4.0317,-4.0264,-4.0212,-4.0023,-4.0004,-4.0082,-3.9945,-3.9906,-3.9926,-3.9907,-3.9906,-3.9863,-3.9842,-3.9819,-3.984,-3.984,-3.984,-3.9861,-4.0101,-4.0101,-4.0043,-4.012,-4.0177,-3.9947,-3.9564,-3.9071,-3.8573,-3.7795,-3.6994,-3.648,-3.585,-3.5174,-3.483,-3.4722,-3.4561,-3.4439,-3.4591,-3.4733,-3.4588,-3.439,-3.4154,-3.3928,-3.3928,-3.3887,-3.3895,-3.3834,-3.3834,-3.3807,-3.3807,-3.3532,-3.3065,-3.268,-3.2192,-3.1715,-3.1292,-3.0668,-3.0063,-3.0467,-3.098,-3.1157,-3.1451,-3.2122,-4.5341,-4.5256,-4.5262,-4.5323,-4.5343,-4.5343,-4.5323,-4.5304,-4.5203,-4.5113,-4.4905,-4.4588,-4.463,-4.481,-4.4474,-4.4478,-4.4819,-4.4895,-4.4895,-4.4919,-4.4991,-4.5038,-4.508,-4.5216,-4.4954,-4.4595,-4.3918,-4.3246,-4.2476,-4.1726,-4.1123,-4.0725,-4.0746,-4.079,-4.079,-4.079,-4.079,-4.079,-4.081,-4.079,-4.079,-4.079,-4.079,-4.079,-4.079,-4.0797,-4.0752,-4.0765,-4.0733,-4.0668,-4.0612,-4.0469,-4.03,-4.012,-4.0024,-4.0024,-3.9903,-3.9797,-3.9884,-3.9735,-3.9709,-3.9576,-3.9599,-3.9548,-3.9519,-3.9445,-3.9494,-3.9519,-3.9731,-3.9754,-3.966,-3.9878,-3.9901,-3.9861,-3.9922,-3.9922,-3.9797,-3.9705,-3.9315,-3.8833,-3.8234,-3.7521,-3.6795,-3.6081,-3.5184,-3.4792,-3.4682,-3.4437,-3.4197,-3.4363,-3.4586,-3.4539,-3.4364,-3.4215,-3.3999,-3.4017,-3.3862,-3.3807,-3.3807,-3.3807,-3.378,-3.378,-3.3661,-3.3378,-3.302,-3.2753,-3.2449,-3.199,-3.1274,-3.065,-3.0962,-3.1146,-3.0766,-3.0888,-3.1704,-4.5361,-4.5192,-4.517,-4.5197,-4.5204,-4.5109,-4.5113,-4.5163,-4.5045,-4.4877,-4.4683,-4.4275,-4.427,-4.4459,-4.4326,-4.4345,-4.4895,-4.4895,-4.4895,-4.4895,-4.4895,-4.4895,-4.4943,-4.4957,-4.4862,-4.4465,-4.3977,-4.3522,-4.2597,-4.2168,-4.1546,-4.1097,-4.0935,-4.0957,-4.1001,-4.0822,-4.0791,-4.0746,-4.081,-4.079,-4.079,-4.079,-4.079,-4.0778,-4.0746,-4.0698,-4.062,-4.0523,-4.0466,-4.038,-4.0315,-4.0211,-4.0119,-3.9842,-3.9709,-3.9772,-3.98,-3.9735,-3.9645,-3.9548,-3.9445,-3.9331,-3.9272,-3.9219,-3.9165,-3.9173,-3.9137,-3.9165,-3.9389,-3.9566,-3.9483,-3.9632,-3.9683,-3.966,-3.9683,-3.9705,-3.9614,-3.9457,-3.9183,-3.8796,-3.8509,-3.7997,-3.7268,-3.6186,-3.5268,-3.5094,-3.4952,-3.4296,-3.4099,-3.4197,-3.4349,-3.4445,-3.4378,-3.43,-3.4229,-3.4302,-3.4082,-3.3807,-3.3807,-3.3807,-3.378,-3.3726,-3.3616,-3.3534,-3.3542,-3.3276,-3.2991,-3.2643,-3.2008,-3.1568,-3.1513,-3.1176,-3.0656,-3.0965,-3.1808,-4.5216,-4.5192,-4.5042,-4.5057,-4.5,-4.4948,-4.4943,-4.4948,-4.4887,-4.4478,-4.4104,-4.4364,-4.427,-4.4099,-4.4573,-4.4781,-4.4876,-4.4895,-4.4895,-4.4895,-4.4895,-4.4895,-4.4895,-4.4895,-4.4815,-4.4417,-4.3984,-4.2978,-4.2317,-4.241,-4.2237,-4.1641,-4.1445,-4.1485,-4.1341,-4.0823,-4.0545,-4.0559,-4.07,-4.0778,-4.0778,-4.0746,-4.0746,-4.0675,-4.0564,-4.0435,-4.0387,-4.0234,-4.0062,-4.0024,-3.9986,-3.9886,-3.9757,-3.9641,-3.947,-3.9389,-3.9383,-3.9383,-3.9357,-3.9305,-3.9227,-3.9165,-3.9137,-3.9129,-3.9101,-3.9101,-3.9101,-3.9101,-3.9192,-3.9245,-3.9245,-3.9383,-3.9383,-3.9383,-3.9414,-3.9364,-3.9279,-3.9338,-3.9059,-3.8979,-3.8745,-3.8292,-3.7691,-3.648,-3.542,-3.5373,-3.5151,-3.4441,-3.4065,-3.424,-3.4673,-3.4887,-3.4954,-3.4871,-3.4679,-3.4715,-3.4422,-3.4,-3.3844,-3.3798,-3.3753,-3.3698,-3.3661,-3.3625,-3.3698,-3.3698,-3.3405,-3.3048,-3.2643,-3.2148,-3.1602,-3.0998,-3.0357,-3.0976,-3.1536,-4.3675,-4.371,-4.414,-4.4303,-4.4317,-4.4687,-4.4895,-4.48,-4.4402,-4.4289,-4.4194,-4.3644,-4.3531,-4.3853,-4.4554,-4.4876,-4.4895,-4.4895,-4.4895,-4.4895,-4.4895,-4.4895,-4.4895,-4.4857,-4.4743,-4.4213,-4.3815,-4.3221,-4.2519,-4.2392,-4.245,-4.2221,-4.1819,-4.1567,-4.1569,-4.0811,-4.0479,-4.0419,-4.0469,-4.0485,-4.0415,-4.0396,-4.0376,-4.0288,-4.0178,-4.0136,-4.0083,-4.0027,-3.9863,-3.9842,-3.9794,-3.9679,-3.9561,-3.9414,-3.9253,-3.9219,-3.9192,-3.9192,-3.9183,-3.9129,-3.9101,-3.9101,-3.9101,-3.9101,-3.9101,-3.9101,-3.9101,-3.9101,-3.9101,-3.9101,-3.9101,-3.9192,-3.9192,-3.9192,-3.9227,-3.9192,-3.9137,-3.9129,-3.9064,-3.9045,-3.8905,-3.8339,-3.7757,-3.6759,-3.5505,-3.476,-3.4631,-3.4226,-3.4163,-3.4439,-3.5036,-3.5717,-3.5687,-3.5611,-3.5355,-3.5209,-3.4916,-3.4504,-3.3927,-3.389,-3.3735,-3.3689,-3.3633,-3.3595,-3.3577,-3.3577,-3.3605,-3.3387,-3.2993,-3.229,-3.155,-3.0848,-3.0129,-2.963,-3.0283,-4.1835,-4.1949,-4.2993,-4.3426,-4.3417,-4.4023,-4.4232,-4.4175,-4.3625,-4.372,-4.391,-4.3284,-4.3284,-4.3966,-4.4611,-4.4895,-4.4895,-4.4895,-4.4895,-4.4895,-4.4895,-4.4895,-4.4895,-4.4838,-4.4478,-4.3682,-4.3398,-4.3118,-4.2895,-4.2639,-4.2629,-4.2821,-4.2522,-4.2086,-4.1648,-4.1092,-4.0593,-4.0245,-4.0264,-4.021,-4.0119,-4.0062,-4.0017,-3.9938,-3.9853,-3.9811,-3.981,-3.9708,-3.9637,-3.959,-3.9526,-3.9446,-3.935,-3.9245,-3.9137,-3.9129,-3.9129,-3.9129,-3.9129,-3.9101,-3.9101,-3.9101,-3.9101,-3.9101,-3.9101,-3.9101,-3.9101,-3.9101,-3.9101,-3.9101,-3.9101,-3.9129,-3.9129,-3.9129,-3.911,-3.9082,-3.9101,-3.9101,-3.9045,-3.8979,-3.8718,-3.8143,-3.7524,-3.6822,-3.5735,-3.4495,-3.4009,-3.3899,-3.4357,-3.4871,-3.5624,-3.6413,-3.6483,-3.6406,-3.6259,-3.5948,-3.5517,-3.4979,-3.4403,-3.4073,-3.4018,-3.3751,-3.3549,-3.3509,-3.3509,-3.3509,-3.3538,-3.3441,-3.3278,-3.2502,-3.1709,-3.0735,-2.9937,-2.9384,-2.9777,-4.0081,-4.0214,-4.1825,-4.2488,-4.2564,-4.2526,-4.264,-4.2924,-4.2678,-4.2697,-4.3038,-4.3322,-4.4042,-4.4611,-4.4781,-4.4895,-4.4895,-4.4895,-4.4895,-4.4895,-4.4895,-4.4895,-4.4857,-4.4724,-4.444,-4.3758,-4.3152,-4.3076,-4.3265,-4.289,-4.3103,-4.344,-4.3247,-4.2917,-4.2218,-4.1298,-4.0596,-4.0215,-4.0082,-3.9986,-3.9926,-3.9886,-3.9865,-3.9813,-3.966,-3.9533,-3.9509,-3.9349,-3.9253,-3.9253,-3.9237,-3.9229,-3.9165,-3.9137,-3.9101,-3.9101,-3.9101,-3.9101,-3.9101,-3.9101,-3.9101,-3.9101,-3.9101,-3.9101,-3.9101,-3.9101,-3.9101,-3.9101,-3.9101,-3.9101,-3.9101,-3.9101,-3.9101,-3.9101,-3.9101,-3.9101,-3.9101,-3.9073,-3.9017,-3.895,-3.8604,-3.8169,-3.7595,-3.693,-3.579,-3.4486,-3.41,-3.399,-3.5073,-3.5716,-3.645,-3.7044,-3.7204,-3.7229,-3.7217,-3.6821,-3.6261,-3.5579,-3.4932,-3.4611,-3.4454,-3.4095,-3.3509,-3.3481,-3.3452,-3.3452,-3.3452,-3.34,-3.3203,-3.2666,-3.1928,-3.1111,-3.0685,-3.0368,-3.1084,-3.9889,-3.9946,-4.0609,-4.1465,-4.245,-4.2981,-4.3189,-4.3208,-4.3208,-4.3208,-4.3227,-4.4061,-4.4592,-4.4819,-4.4895,-4.4895,-4.4895,-4.4895,-4.4876,-4.4895,-4.4895,-4.4895,-4.4781,-4.4516,-4.4175,-4.4023,-4.3208,-4.3208,-4.4232,-4.3474,-4.3398,-4.3625,-4.3777,-4.3152,-4.2341,-4.1124,-4.0293,-3.9987,-3.9772,-3.9664,-3.9552,-3.9524,-3.9489,-3.9395,-3.9343,-3.9264,-3.924,-3.9157,-3.9101,-3.9101,-3.9101,-3.9101,-3.9101,-3.9101,-3.9101,-3.9101,-3.9101,-3.9101,-3.9101,-3.9101,-3.9101,-3.9101,-3.9101,-3.9101,-3.9101,-3.9101,-3.9101,-3.9101,-3.9101,-3.9101,-3.9101,-3.9101,-3.9101,-3.9101,-3.9101,-3.9101,-3.9073,-3.9045,-3.8989,-3.8892,-3.8685,-3.835,-3.7757,-3.7158,-3.5826,-3.4578,-3.4302,-3.4357,-3.555,-3.6421,-3.7099,-3.7601,-3.7729,-3.7794,-3.7781,-3.7366,-3.6929,-3.6249,-3.5501,-3.5064,-3.4688,-3.3985,-3.3509,-3.3452,-3.3422,-3.3422,-3.3422,-3.3452,-3.3136,-3.25,-3.2137,-3.1746,-3.1447,-3.1266,-3.1934,-3.9889,-3.9889,-3.9889,-4.0574,-4.1692,-4.2318,-4.2583,-4.2621,-4.2773,-4.3322,-4.3739,-4.4516,-4.4895,-4.4895,-4.4895,-4.4668,-4.4649,-4.4724,-4.4687,-4.4687,-4.4724,-4.4857,-4.4687,-4.4478,-4.4308,-4.427,-4.3701,-4.3568,-4.4289,-4.391,-4.3929,-4.4023,-4.3947,-4.3379,-4.184,-4.0613,-3.967,-3.9556,-3.9502,-3.9376,-3.9253,-3.9245,-3.9245,-3.9156,-3.911,-3.911,-3.912,-3.9101,-3.9101,-3.9101,-3.9101,-3.9101,-3.9101,-3.9101,-3.9101,-3.9101,-3.9101,-3.9101,-3.9101,-3.9101,-3.9101,-3.9101,-3.9101,-3.9101,-3.9101,-3.9101,-3.9101,-3.9101,-3.9101,-3.9101,-3.9101,-3.9101,-3.9101,-3.9101,-3.9064,-3.9064,-3.9036,-3.9007,-3.895,-3.8862,-3.8656,-3.846,-3.772,-3.711,-3.645,-3.5587,-3.5771,-3.5844,-3.6505,-3.7228,-3.7601,-3.7997,-3.8232,-3.8277,-3.8234,-3.7867,-3.7467,-3.7135,-3.6334,-3.5351,-3.4775,-3.4073,-3.3535,-3.3422,-3.3393,-3.3393,-3.3375,-3.3404,-3.2951,-3.2371,-3.2017,-3.1737,-3.1815,-3.1642,-3.1917,-3.9889,-3.9889,-3.9889,-3.9946,-4.0135,-4.0022,-4.0252,-4.0764,-4.1313,-4.2337,-4.3568,-4.4364,-4.4743,-4.4762,-4.4706,-4.4497,-4.4326,-4.4649,-4.4649,-4.4326,-4.4668,-4.4857,-4.4819,-4.4668,-4.4213,-4.3834,-4.3568,-4.3568,-4.3834,-4.3947,-4.4213,-4.4321,-4.4132,-4.3488,-4.1366,-4.0291,-3.965,-3.9388,-3.9418,-3.9349,-3.9183,-3.9222,-3.9333,-3.9101,-3.9454,-3.9584,-3.938,-3.9565,-3.9565,-3.938,-3.9342,-3.9268,-3.912,-3.9101,-3.9101,-3.9101,-3.9101,-3.9101,-3.9101,-3.9101,-3.9101,-3.9101,-3.9101,-3.9101,-3.9101,-3.9101,-3.9101,-3.9101,-3.9101,-3.9101,-3.9101,-3.9101,-3.9101,-3.9073,-3.9036,-3.9007,-3.8979,-3.8968,-3.8881,-3.8803,-3.873,-3.8467,-3.7684,-3.7037,-3.6762,-3.6615,-3.7085,-3.7404,-3.7624,-3.7649,-3.7857,-3.8186,-3.8401,-3.8354,-3.8289,-3.8307,-3.8053,-3.7744,-3.7053,-3.5945,-3.5024,-3.4322,-3.3857,-3.352,-3.3393,-3.3393,-3.3375,-3.3357,-3.2719,-3.213,-3.1836,-3.1655,-3.1823,-3.2031,-3.2253,-3.9889,-3.9889,-3.9889,-3.9889,-3.9965,-4.0514,-4.1048,-4.156,-4.192,-4.2337,-4.2773,-4.3189,-4.3644,-4.3929,-4.4156,-4.4175,-4.4535,-4.4611,-4.4592,-4.4554,-4.4781,-4.4857,-4.48,-4.4421,-4.4023,-4.3777,-4.3701,-4.3758,-4.3739,-4.4023,-4.4099,-4.4175,-4.3636,-4.3026,-4.2504,-4.1682,-4.0846,-4.0269,-4.0039,-3.9788,-3.9268,-3.9602,-3.9695,-3.9268,-4.0123,-4.0383,-4.003,-4.0308,-4.0308,-3.9937,-3.9844,-3.9621,-3.9231,-3.9101,-3.9101,-3.9101,-3.9101,-3.9101,-3.9101,-3.9101,-3.9101,-3.9101,-3.9101,-3.9101,-3.9101,-3.9101,-3.9101,-3.9101,-3.9073,-3.9073,-3.9101,-3.9101,-3.9073,-3.9036,-3.9007,-3.895,-3.8939,-3.8881,-3.8822,-3.8792,-3.8707,-3.8676,-3.8187,-3.779,-3.7477,-3.7184,-3.7496,-3.7845,-3.8083,-3.7771,-3.7741,-3.8149,-3.8401,-3.8322,-3.8256,-3.8274,-3.8041,-3.7606,-3.7043,-3.6263,-3.5398,-3.4588,-3.3991,-3.3556,-3.3465,-3.3393,-3.3262,-3.3057,-3.2439,-3.1935,-3.1881,-3.184,-3.2007,-3.2237,-3.2478,-3.9889,-3.9889,-3.9889,-3.9889,-3.9984,-4.0517,-4.1219,-4.1901,-4.2014,-4.2128,-4.2375,-4.2431,-4.2905,-4.3436,-4.3455,-4.372,-4.444,-4.4478,-4.4478,-4.4535,-4.48,-4.4649,-4.4383,-4.4213,-4.408,-4.3872,-4.3985,-4.4156,-4.4156,-4.4345,-4.3942,-4.3226,-4.2756,-4.2897,-4.2787,-4.2192,-4.1456,-4.0896,-4.0607,-4.0318,-4.0141,-4.0234,-4.0271,-4.0383,-4.0828,-4.1293,-4.1089,-4.1126,-4.1237,-4.068,-4.029,-3.9993,-3.9398,-3.9101,-3.9101,-3.9101,-3.9101,-3.9101,-3.9101,-3.9101,-3.9101,-3.9101,-3.9101,-3.9101,-3.9101,-3.9073,-3.9045,-3.9045,-3.9064,-3.9036,-3.9017,-3.9064,-3.9036,-3.895,-3.8921,-3.891,-3.8881,-3.8822,-3.878,-3.8732,-3.875,-3.8719,-3.8707,-3.8634,-3.8377,-3.8102,-3.7881,-3.8193,-3.845,-3.8108,-3.7821,-3.8118,-3.8368,-3.8289,-3.8241,-3.8225,-3.7935,-3.7468,-3.6997,-3.6526,-3.5657,-3.486,-3.4226,-3.3647,-3.3454,-3.3298,-3.31,-3.2757,-3.2384,-3.2242,-3.2317,-3.2289,-3.2264,-3.229,-3.2417,-3.9889,-3.9889,-3.9889,-3.9889,-3.9889,-3.9984,-4.0438,-4.1162,-4.1219,-4.1635,-4.2223,-4.2109,-4.2488,-4.3189,-4.2754,-4.2943,-4.3625,-4.3739,-4.3834,-4.391,-4.4232,-4.408,-4.4118,-4.4156,-4.3682,-4.3834,-4.3947,-4.3891,-4.4516,-4.4164,-4.3321,-4.28,-4.3004,-4.3156,-4.2987,-4.2632,-4.2042,-4.1649,-4.1266,-4.107,-4.1033,-4.094,-4.1014,-4.1237,-4.172,-4.1887,-4.1794,-4.185,-4.1386,-4.0903,-4.0494,-3.9918,-3.9435,-3.9101,-3.9101,-3.9101,-3.9101,-3.9101,-3.9073,-3.9073,-3.9073,-3.9045,-3.9073,-3.9073,-3.9073,-3.9036,-3.9007,-3.8979,-3.8997,-3.8939,-3.8939,-3.8921,-3.8921,-3.8862,-3.8851,-3.8822,-3.8792,-3.8732,-3.8719,-3.8689,-3.8689,-3.8707,-3.8707,-3.8707,-3.8707,-3.856,-3.8303,-3.8395,-3.8548,-3.8449,-3.8217,-3.8196,-3.8354,-3.8241,-3.8192,-3.8192,-3.8119,-3.7775,-3.7449,-3.6942,-3.6037,-3.51,-3.44,-3.381,-3.3448,-3.316,-3.2854,-3.2677,-3.2563,-3.25,-3.2297,-3.2158,-3.1933,-3.1917,-3.1932,-3.9889,-3.9889,-3.9889,-3.9889,-3.9889,-3.9889,-4.0041,-4.0325,-4.0896,-4.1086,-4.0609,-4.0631,-4.1294,-4.1863,-4.2242,-4.2507,-4.2924,-4.3341,-4.3644,-4.3682,-4.3455,-4.3474,-4.3455,-4.3322,-4.2735,-4.2526,-4.2678,-4.3114,-4.2711,-4.2834,-4.329,-4.3104,-4.3212,-4.349,-4.3457,-4.3453,-4.2958,-4.2512,-4.2073,-4.1924,-4.1906,-4.185,-4.185,-4.1962,-4.2723,-4.2779,-4.2593,-4.2927,-4.2463,-4.1497,-4.1274,-4.0661,-3.9212,-3.9101,-3.9101,-3.9101,-3.9101,-3.9073,-3.9036,-3.9036,-3.9007,-3.8979,-3.8979,-3.8979,-3.8979,-3.8979,-3.8939,-3.891,-3.891,-3.8881,-3.8881,-3.8851,-3.8851,-3.8822,-3.8792,-3.8762,-3.8732,-3.8719,-3.8707,-3.8707,-3.8707,-3.8707,-3.8707,-3.8707,-3.8707,-3.8707,-3.8707,-3.8707,-3.864,-3.8523,-3.8442,-3.8382,-3.8322,-3.8225,-3.8225,-3.8192,-3.8192,-3.8101,-3.7775,-3.7214,-3.6082,-3.5182,-3.4488,-3.38,-3.3104,-3.2734,-3.2468,-3.2368,-3.2299,-3.2074,-3.1861,-3.174,-3.1616,-3.1608,-3.16,-3.9889,-3.9889,-3.9889,-3.9889,-3.9889,-3.9889,-3.9889,-3.9984,-4.0476,-4.0366,-3.9927,-3.9927,-4.0385,-4.1162,-4.1389,-4.1711,-4.245,-4.245,-4.2716,-4.2943,-4.2583,-4.2545,-4.2507,-4.2469,-4.209,-4.1749,-4.1844,-4.2431,-4.1855,-4.1769,-4.2164,-4.1582,-4.2641,-4.3085,-4.3107,-4.3404,-4.3689,-4.328,-4.2946,-4.2723,-4.2705,-4.2723,-4.2519,-4.276,-4.367,-4.3522,-4.3355,-4.3825,-4.3194,-4.2136,-4.1876,-4.1189,-4.0001,-3.9834,-3.9239,-3.9184,-3.8989,-3.9007,-3.895,-3.895,-3.8921,-3.8892,-3.8862,-3.8862,-3.8892,-3.8881,-3.8881,-3.8851,-3.8822,-3.884,-3.8822,-3.8822,-3.8792,-3.8762,-3.8732,-3.875,-3.8719,-3.8707,-3.8707,-3.8707,-3.8707,-3.8707,-3.8707,-3.8707,-3.8707,-3.8707,-3.8676,-3.8658,-3.8603,-3.8499,-3.8423,-3.8396,-3.8322,-3.8225,-3.8225,-3.8192,-3.8192,-3.8192,-3.8101,-3.738,-3.6194,-3.5166,-3.4357,-3.3463,-3.2557,-3.2283,-3.2092,-3.2039,-3.1967,-3.1731,-3.1562,-3.1456,-3.1422,-3.1397,-3.1368,-3.9889,-3.9889,-3.9889,-3.9889,-3.9889,-3.9889,-3.9889,-3.9889,-3.9946,-3.9889,-3.9889,-3.9889,-4.0328,-4.0783,-4.0745,-4.1044,-4.1541,-4.1654,-4.192,-4.2261,-4.192,-4.1768,-4.1768,-4.1749,-4.1332,-4.1427,-4.1518,-4.1575,-4.1732,-4.1531,-4.0865,-3.9541,-4.1063,-4.1999,-4.2426,-4.3225,-4.3633,-4.3745,-4.3429,-4.3188,-4.3485,-4.341,-4.3206,-4.3763,-4.3986,-4.3949,-4.3918,-4.3812,-4.3558,-4.2773,-4.2161,-4.1679,-4.0956,-4.0314,-3.9542,-3.9198,-3.8939,-3.8921,-3.8892,-3.8892,-3.8881,-3.8833,-3.8803,-3.8792,-3.8792,-3.8792,-3.881,-3.881,-3.878,-3.875,-3.875,-3.875,-3.875,-3.8719,-3.8719,-3.8719,-3.8689,-3.8707,-3.8707,-3.8707,-3.8707,-3.8707,-3.8707,-3.8707,-3.8658,-3.8658,-3.8658,-3.8609,-3.8559,-3.8436,-3.8423,-3.8364,-3.8289,-3.8225,-3.8225,-3.8192,-3.8192,-3.8192,-3.8138,-3.7226,-3.578,-3.4898,-3.4179,-3.3108,-3.2074,-3.1932,-3.1768,-3.1694,-3.1637,-3.1428,-3.1291,-3.1213,-3.123,-3.1252,-3.1269,-3.9889,-3.9889,-3.9889,-3.9889,-3.9889,-3.9889,-3.9889,-3.9889,-3.9889,-3.9889,-3.9889,-3.9908,-4.0003,-4.0211,-4.0631,-4.0855,-4.0555,-4.1029,-4.1313,-4.1219,-4.0991,-4.1048,-4.0953,-4.0858,-4.0555,-4.0366,-4.04,-4.064,-4.0604,-4.0572,-4.0664,-4.0363,-4.1249,-4.1776,-4.2277,-4.3113,-4.3503,-4.3912,-4.3838,-4.367,-4.3838,-4.3912,-4.3893,-4.4005,-4.4005,-4.4005,-4.3974,-4.3892,-4.3447,-4.2798,-4.2582,-4.1767,-4.0581,-3.9727,-3.9198,-3.8929,-3.8881,-3.8851,-3.8851,-3.8822,-3.8792,-3.878,-3.875,-3.8719,-3.8738,-3.8738,-3.8738,-3.8738,-3.8738,-3.8707,-3.8707,-3.8707,-3.8707,-3.8707,-3.8707,-3.8707,-3.8707,-3.8707,-3.8707,-3.8707,-3.8707,-3.8707,-3.8707,-3.8658,-3.864,-3.859,-3.8559,-3.8528,-3.8465,-3.8396,-3.8332,-3.8303,-3.8256,-3.8225,-3.8192,-3.8192,-3.8158,-3.7925,-3.7747,-3.6676,-3.5381,-3.4164,-3.3103,-3.2362,-3.162,-3.1545,-3.1449,-3.1351,-3.1252,-3.119,-3.119,-3.119,-3.119,-3.123,-3.123,-3.9889,-3.9889,-3.9889,-3.9889,-3.9889,-3.9889,-3.9889,-3.9889,-3.9889,-3.9889,-3.9889,-3.9889,-3.9889,-3.9889,-4.0419,-4.0495,-4.0022,-4.0363,-4.0533,-4.0404,-4.0287,-4.0306,-4.0192,-4.0135,-4.0079,-3.9889,-3.9826,-3.9853,-3.9717,-3.9777,-4.0042,-4.0188,-4.0894,-4.1813,-4.2389,-4.2835,-4.3466,-4.3968,-4.4005,-4.4005,-4.4005,-4.4005,-4.4005,-4.4005,-4.3974,-4.3974,-4.391,-4.3865,-4.3578,-4.313,-4.2852,-4.1675,-4.0554,-3.9785,-3.9275,-3.8951,-3.881,-3.8792,-3.8732,-3.8732,-3.8719,-3.8713,-3.8695,-3.8695,-3.8707,-3.8707,-3.8707,-3.8707,-3.8707,-3.8707,-3.8707,-3.8707,-3.8707,-3.8707,-3.8707,-3.8707,-3.8707,-3.8707,-3.8707,-3.8707,-3.8707,-3.8707,-3.8707,-3.8707,-3.864,-3.8541,-3.851,-3.8382,-3.8318,-3.8183,-3.8168,-3.8186,-3.8119,-3.8174,-3.8192,-3.8158,-3.8106,-3.7785,-3.7412,-3.6221,-3.4903,-3.3283,-3.1961,-3.1637,-3.1372,-3.1312,-3.123,-3.119,-3.119,-3.119,-3.119,-3.119,-3.119,-3.119,-3.119,-3.9889,-3.9889,-3.9889,-3.9889,-3.9889,-3.9889,-3.9889,-3.9889,-3.9889,-3.9889,-3.9889,-3.9889,-3.9889,-3.9889,-3.9889,-3.9889,-3.9927,-4.006,-4.0003,-3.9984,-3.9946,-4.0003,-3.9984,-3.9908,-3.9889,-3.9848,-3.9781,-3.9647,-3.9526,-3.9551,-3.9533,-3.95,-4.0364,-4.1497,-4.2017,-4.289,-4.3782,-4.3949,-4.4005,-4.4005,-4.4005,-4.4005,-4.4005,-4.3992,-4.3929,-4.3897,-4.3832,-4.3767,-4.3701,-4.3387,-4.2941,-4.1931,-4.0885,-4.0154,-3.946,-3.908,-3.8762,-3.8664,-3.8515,-3.8496,-3.8556,-3.8661,-3.8674,-3.8747,-3.8752,-3.8716,-3.8716,-3.8742,-3.8742,-3.8707,-3.8707,-3.8707,-3.8707,-3.8707,-3.8707,-3.8707,-3.8707,-3.8707,-3.8707,-3.8707,-3.8707,-3.8707,-3.8676,-3.8676,-3.8528,-3.846,-3.8314,-3.8234,-3.8083,-3.7823,-3.7683,-3.7805,-3.7857,-3.7964,-3.807,-3.802,-3.7898,-3.7435,-3.6878,-3.5729,-3.4488,-3.3024,-3.1964,-3.1387,-3.119,-3.119,-3.119,-3.119,-3.119,-3.119,-3.119,-3.119,-3.119,-3.119,-3.119,-3.9889,-3.9889,-3.9889,-3.9889,-3.9889,-3.9889,-3.9889,-3.9889,-3.9889,-3.9889,-3.9889,-3.9889,-3.9889,-3.9889,-3.9889,-3.9889,-3.9889,-3.9889,-3.9889,-3.9889,-3.9889,-3.9889,-3.9889,-3.9889,-3.9889,-3.9826,-3.9758,-3.9623,-3.9458,-3.9331,-3.9219,-3.9212,-4.003,-4.0977,-4.172,-4.2612,-4.3373,-4.3652,-4.3968,-4.3974,-4.4005,-4.3974,-4.3942,-4.3929,-4.3915,-4.3883,-4.3767,-4.3649,-4.3615,-4.3395,-4.2849,-4.2187,-4.1511,-4.0671,-3.9937,-3.9352,-3.9002,-3.8685,-3.8567,-3.8534,-3.8627,-3.8652,-3.8725,-3.8978,-3.8942,-3.8798,-3.8797,-3.8909,-3.8864,-3.8719,-3.8676,-3.8707,-3.8707,-3.8707,-3.8707,-3.8707,-3.8707,-3.8707,-3.8707,-3.8676,-3.8676,-3.8627,-3.8596,-3.8451,-3.8083,-3.7946,-3.7703,-3.7614,-3.7469,-3.7325,-3.7254,-3.7381,-3.7506,-3.756,-3.7649,-3.7703,-3.756,-3.7051,-3.6394,-3.5292,-3.414,-3.2969,-3.2032,-3.1433,-3.1207,-3.119,-3.119,-3.119,-3.119,-3.119,-3.119,-3.119,-3.119,-3.119,-3.119]}]]